[[{"header":{"parameterUnit":"m.s-1","parameterCategory":1,"la1":30.6,"la2":28.766,"lo1":-90.7593,"lo2":-88.6598,"dx":0.0162,"dy":0.0183,"nx":116,"ny":114,"refTime":"2022-12-11T18:00:00:Z","depth":0,"parameterNumber":2,"parameterNumberName":"U-component_of_WINDS"},"data":[0.0,0.0,0.0,0.0,0.0,0.0,0.0,0.0,0.0,0.0,0.0,0.0,0.0,0.0,0.0,0.0,0.0,0.0,0.0,0.0,0.0,0.0,0.0,0.0,0.0,0.0,0.0,0.0,0.0,0.0,0.0,0.0,0.0,0.0,0.0,0.0,0.0,0.0,0.0,0.0,0.0,0.0,0.0,0.0,0.0,0.0,0.0,0.0,0.0,0.0,0.0,0.0,0.0,0.0,0.0,0.0,0.0,0.0,0.0,0.0,0.0,0.0,0.0,0.0,0.0,0.0,0.0,0.0,0.0,0.0,0.0,0.0,0.0,0.0,0.0,0.0,0.0,0.0,0.0,0.0,0.0,0.0,0.0,0.0,0.0,0.0,0.0,0.0,0.0,0.0,0.0,0.0,0.0,0.0,0.0,0.0,0.0,0.0,0.0,0.0,0.0,0.0,0.0,0.0,0.0,0.0,0.0,0.0,0.0,0.0,0.0,0.0,0.0,0.0,0.0,0.0,0.0,0.0,0.0,0.0,0.0,0.0,0.0,0.0,0.0,0.0,0.0,0.0,0.0,0.0,0.0,0.0,0.0,0.0,0.0,0.0,0.0,0.0,0.0,0.0,0.0,0.0,0.0,0.0,0.0,0.0,0.0,0.0,0.0,0.0,0.0,0.0,0.0,0.0,0.0,0.0,0.0,0.0,0.0,0.0,0.0,0.0,0.0,0.0,0.0,0.0,0.0,0.0,0.0,0.0,0.0,0.0,0.0,0.0,0.0,0.0,0.0,0.0,0.0,0.0,0.0,0.0,0.0,0.0,0.0,0.0,0.0,0.0,0.0,0.0,0.0,0.0,0.0,0.0,0.0,0.0,0.0,0.0,0.0,0.0,0.0,0.0,0.0,0.0,0.0,0.0,0.0,0.0,0.0,0.0,0.0,0.0,0.0,0.0,0.0,0.0,0.0,0.0,0.0,0.0,0.0,0.0,0.0,0.0,0.0,0.0,0.0,0.0,0.0,0.0,0.0,0.0,0.0,0.0,0.0,0.0,0.0,0.0,0.0,0.0,0.0,0.0,0.0,0.0,0.0,0.0,0.0,0.0,0.0,0.0,0.0,0.0,0.0,0.0,0.0,0.0,0.0,0.0,0.0,0.0,0.0,0.0,0.0,0.0,0.0,0.0,0.0,0.0,0.0,0.0,0.0,0.0,0.0,0.0,0.0,0.0,0.0,0.0,0.0,0.0,0.0,0.0,0.0,0.0,0.0,0.0,0.0,0.0,0.0,0.0,0.0,0.0,0.0,0.0,0.0,0.0,0.0,0.0,0.0,0.0,0.0,0.0,0.0,0.0,0.0,0.0,0.0,0.0,0.0,0.0,0.0,0.0,0.0,0.0,0.0,0.0,0.0,0.0,0.0,0.0,0.0,0.0,0.0,0.0,0.0,0.0,0.0,0.0,0.0,0.0,0.0,0.0,0.0,0.0,0.0,0.0,0.0,0.0,0.0,0.0,0.0,0.0,0.0,0.0,0.0,0.0,0.0,0.0,0.0,0.0,0.0,0.0,0.0,0.0,0.0,0.0,0.0,0.0,0.0,0.0,0.0,0.0,0.0,0.0,0.0,0.0,0.0,0.0,0.0,0.0,0.0,0.0,0.0,0.0,0.0,0.0,0.0,0.0,0.0,0.0,0.0,0.0,0.0,0.0,0.0,0.0,0.0,0.0,0.0,0.0,0.0,0.0,0.0,0.0,0.0,0.0,0.0,0.0,0.0,0.0,0.0,0.0,0.0,0.0,0.0,0.0,0.0,0.0,0.0,0.0,0.0,0.0,0.0,0.0,0.0,0.0,0.0,0.0,0.0,0.0,0.0,0.0,0.0,0.0,0.0,0.0,0.0,0.0,0.0,0.0,0.0,0.0,0.0,0.0,0.0,0.0,0.0,0.0,0.0,0.0,0.0,0.0,0.0,0.0,0.0,0.0,0.0,0.0,0.0,0.0,0.0,0.0,0.0,0.0,0.0,0.0,0.0,0.0,0.0,0.0,0.0,0.0,0.0,0.0,0.0,0.0,0.0,0.0,0.0,0.0,0.0,0.0,0.0,0.0,0.0,0.0,0.0,0.0,0.0,0.0,0.0,0.0,0.0,0.0,0.0,0.0,0.0,0.0,0.0,0.0,0.0,0.0,0.0,0.0,0.0,0.0,0.0,0.0,0.0,0.0,0.0,0.0,0.0,0.0,0.0,0.0,0.0,0.0,0.0,0.0,0.0,0.0,0.0,0.0,0.0,0.0,0.0,0.0,0.0,0.0,0.0,0.0,0.0,0.0,0.0,0.0,0.0,0.0,0.0,0.0,0.0,0.0,0.0,0.0,0.0,0.0,0.0,0.0,0.0,0.0,0.0,0.0,0.0,0.0,0.0,0.0,0.0,0.0,0.0,0.0,0.0,0.0,0.0,0.0,0.0,0.0,0.0,0.0,0.0,0.0,0.0,0.0,0.0,0.0,0.0,0.0,0.0,0.0,0.0,0.0,0.0,0.0,0.0,0.0,0.0,0.0,0.0,0.0,0.0,0.0,0.0,0.0,0.0,0.0,0.0,0.0,0.0,0.0,0.0,0.0,0.0,0.0,0.0,0.0,0.0,0.0,0.0,0.0,0.0,0.0,0.0,0.0,0.0,0.0,0.0,0.0,0.0,0.0,0.0,0.0,0.0,0.0,0.0,0.0,0.0,0.0,0.0,0.0,0.0,0.0,0.0,0.0,0.0,0.0,0.0,0.0,0.0,0.0,0.0,0.0,0.0,0.0,0.0,0.0,0.0,0.0,0.0,0.0,0.0,0.0,0.0,0.0,0.0,0.0,0.0,0.0,0.0,0.0,0.0,0.0,0.0,0.0,0.0,0.0,0.0,0.0,0.0,0.0,0.0,0.0,0.0,0.0,0.0,0.0,0.0,0.0,0.0,0.0,0.0,0.0,0.0,0.0,0.0,0.0,0.0,0.0,0.0,0.0,0.0,0.0,0.0,0.0,0.0,0.0,0.0,0.0,0.0,0.0,0.0,0.0,0.0,0.0,0.0,0.0,0.0,0.0,0.0,0.0,0.0,0.0,0.0,0.0,0.0,0.0,0.0,0.0,0.0,0.0,0.0,0.0,0.0,0.0,0.0,0.0,0.0,0.0,0.0,0.0,0.0,0.0,0.0,0.0,0.0,0.0,0.0,0.0,0.0,0.0,0.0,0.0,0.0,0.0,0.0,0.0,0.0,0.0,0.0,0.0,0.0,0.0,0.0,0.0,0.0,0.0,0.0,0.0,0.0,0.0,0.0,0.0,0.0,0.0,0.0,0.0,0.0,0.0,0.0,0.0,0.0,0.0,0.0,0.0,0.0,0.0,0.0,0.0,0.0,0.0,0.0,0.0,0.0,0.0,0.0,0.0,0.0,0.0,0.0,0.0,0.0,0.0,0.0,0.0,0.0,0.0,0.0,0.0,0.0,0.0,0.0,0.0,0.0,0.0,0.0,0.0,0.0,0.0,0.0,0.0,0.0,0.0,0.0,0.0,0.0,0.0,0.0,0.0,0.0,0.0,0.0,0.0,0.0,0.0,0.0,0.0,0.0,0.0,0.0,0.0,0.0,0.0,0.0,0.0,0.0,0.0,0.0,0.0,0.0,0.0,0.0,0.0,0.0,0.0,0.0,0.0,0.0,0.0,0.0,0.0,0.0,0.0,0.0,0.0,0.0,0.0,0.0,0.0,0.0,0.0,0.0,0.0,0.0,0.0,0.0,0.0,0.0,0.0,0.0,0.0,0.0,0.0,0.0,0.0,0.0,0.0,0.0,0.0,0.0,0.0,0.0,0.0,0.0,0.0,0.0,0.0,0.0,0.0,0.0,0.0,0.0,0.0,0.0,0.0,0.0,0.0,0.0,0.0,0.0,0.0,0.0,0.0,0.0,0.0,0.0,0.0,0.0,0.0,0.0,0.0,0.0,0.0,0.0,0.0,0.0,0.0,0.0,0.0,0.0,0.0,0.0,0.0,0.0,0.0,0.0,0.0,0.0,0.0,0.0,0.0,0.0,0.0,0.0,0.0,0.0,0.0,0.0,0.0,0.0,0.0,0.0,0.0,0.0,0.0,0.0,0.0,0.0,0.0,0.0,0.0,0.0,0.0,0.0,0.0,0.0,0.0,0.0,0.0,0.0,0.0,0.0,0.0,0.0,0.0,0.0,0.0,0.0,0.0,0.0,0.0,0.0,0.0,0.0,0.0,0.0,0.0,0.0,0.0,0.0,0.0,0.0,0.0,0.0,0.0,0.0,0.0,0.0,0.0,0.0,0.0,0.0,0.0,0.0,0.0,0.0,0.0,0.0,0.0,0.0,0.0,0.0,0.0,0.0,0.0,0.0,0.0,0.0,0.0,0.0,0.0,0.0,0.0,0.0,0.0,0.0,0.0,0.0,0.0,0.0,0.0,0.0,0.0,0.0,0.0,0.0,0.0,0.0,0.0,0.0,0.0,0.0,0.0,0.0,0.0,0.0,0.0,0.0,0.0,0.0,0.0,0.0,0.0,0.0,0.0,0.0,0.0,0.0,0.0,0.0,0.0,0.0,0.0,0.0,0.0,0.0,0.0,0.0,0.0,0.0,0.0,0.0,0.0,0.0,0.0,0.0,0.0,0.0,0.0,0.0,0.0,0.0,0.0,0.0,0.0,0.0,0.0,0.0,0.0,0.0,0.0,0.0,0.0,0.0,0.0,0.0,0.0,0.0,0.0,0.0,0.0,0.0,0.0,0.0,0.0,0.0,0.0,0.0,0.0,0.0,0.0,0.0,0.0,0.0,0.0,0.0,0.0,0.0,0.0,0.0,0.0,0.0,0.0,0.0,0.0,0.0,0.0,0.0,0.0,0.0,0.0,0.0,0.0,0.0,0.0,0.0,0.0,0.0,0.0,0.0,0.0,0.0,0.0,0.0,0.0,0.0,0.0,0.0,0.0,0.0,0.0,0.0,0.0,0.0,0.0,0.0,0.0,0.0,0.0,0.0,0.0,0.0,0.0,0.0,0.0,0.0,0.0,0.0,0.0,0.0,0.0,0.0,0.0,0.0,0.0,0.0,0.0,0.0,0.0,0.0,0.0,0.0,0.0,0.0,0.0,0.0,0.0,0.0,0.0,0.0,0.0,0.0,0.0,0.0,0.0,0.0,0.0,0.0,0.0,0.0,0.0,0.0,0.0,0.0,0.0,0.0,0.0,0.0,0.0,0.0,0.0,0.0,0.0,0.0,0.0,0.0,0.0,0.0,0.0,0.0,0.0,0.0,0.0,0.0,0.0,0.0,0.0,0.0,0.0,0.0,0.0,0.0,0.0,0.0,0.0,0.0,0.0,0.0,0.0,0.0,0.0,0.0,0.0,0.0,0.0,0.0,0.0,0.0,0.0,0.0,0.0,0.0,0.0,0.0,0.0,0.0,0.0,0.0,0.0,0.0,0.0,0.0,0.0,0.0,0.0,0.0,0.0,0.0,0.0,0.0,0.0,0.0,0.0,0.0,0.0,0.0,0.0,0.0,0.0,0.0,0.0,0.0,0.0,0.0,0.0,0.0,0.0,0.0,0.0,0.0,0.0,0.0,0.0,0.0,0.0,0.0,0.0,0.0,0.0,0.0,0.0,0.0,0.0,0.0,0.0,0.0,0.0,0.0,0.0,0.0,0.0,0.0,0.0,0.0,0.0,0.0,0.0,0.0,0.0,0.0,0.0,0.0,0.0,0.0,0.0,0.0,0.0,0.0,0.0,0.0,0.0,0.0,0.0,0.0,0.0,0.0,0.0,0.0,0.0,0.0,0.0,0.0,0.0,0.0,0.0,0.0,0.0,0.0,0.0,0.0,0.0,0.0,0.0,0.0,0.0,0.0,0.0,0.0,0.0,0.0,0.0,0.0,0.0,0.0,0.0,0.0,0.0,0.0,0.0,0.0,0.0,0.0,0.0,0.0,0.0,0.0,0.0,0.0,0.0,0.0,0.0,0.0,0.0,0.0,0.0,0.0,0.0,0.0,0.0,0.0,0.0,0.0,0.0,0.0,0.0,0.0,0.0,0.0,0.0,0.0,0.0,0.0,0.0,2.9152,2.7769,0.0,0.0,0.0,0.0,0.0,0.0,0.0,0.0,0.0,0.0,0.0,0.0,0.0,0.0,0.0,0.0,0.0,0.0,0.0,0.0,0.0,0.0,0.0,1.2229,1.2572,1.286,1.2886,0.0,0.0,0.0,0.0,0.0,0.0,0.0,0.0,0.0,1.3435,1.3696,1.564,1.703,1.7851,1.8204,1.7525,1.6162,0.0,0.0,0.0,0.0,0.0,0.0,0.0,0.0,0.0,0.0,0.0,0.0,0.0,0.0,0.0,0.0,0.0,0.0,0.0,0.0,0.0,0.0,0.0,0.0,0.0,0.0,0.0,0.0,0.0,0.0,0.0,0.0,0.0,0.0,0.0,0.0,0.0,0.0,0.0,0.0,0.0,0.0,0.0,0.0,0.0,0.0,0.0,0.0,0.0,0.0,0.0,0.0,0.0,0.0,0.0,0.0,0.0,0.0,0.0,0.0,0.0,0.0,0.0,0.0,0.0,0.0,0.0,0.0,0.0,0.0,3.2617,3.0492,0.0,0.0,0.0,0.0,0.0,0.0,0.0,0.0,0.0,0.0,0.0,0.0,0.0,0.0,0.0,0.0,0.0,0.0,0.0,0.0,0.0,1.249,1.2991,1.3226,1.3539,1.4036,1.4088,1.3879,1.3383,1.333,0.0,0.0,0.0,0.0,0.0,1.3984,1.4708,1.5333,1.7784,2.0049,2.21,2.3229,2.2294,1.9642,1.9627,0.0,0.0,0.0,0.0,0.0,0.0,0.0,0.0,0.0,0.0,0.0,0.0,0.0,0.0,0.0,0.0,0.0,0.0,0.0,0.0,0.0,0.0,0.0,0.0,0.0,0.0,0.0,0.0,0.0,0.0,0.0,0.0,0.0,0.0,0.0,0.0,0.0,0.0,0.0,0.0,0.0,0.0,0.0,0.0,0.0,0.0,0.0,0.0,0.0,0.0,0.0,0.0,0.0,0.0,0.0,0.0,0.0,0.0,0.0,0.0,0.0,0.0,0.0,3.6567,3.7734,3.8751,3.932,4.0247,4.1115,3.6058,3.3754,3.3484,3.2706,0.0,0.0,0.0,0.0,0.0,0.0,0.0,0.0,0.0,0.0,0.0,0.0,0.0,0.0,0.0,0.0,0.0,0.0,0.0,1.3592,1.367,1.4559,1.5186,1.5265,1.5265,1.5238,1.516,1.516,0.0,0.0,0.0,0.0,1.4376,1.5944,1.7262,1.8317,2.136,2.3508,2.4793,2.5586,2.6031,2.6002,2.4118,2.2949,2.2275,0.0,0.0,0.0,0.0,0.0,0.0,0.0,0.0,0.0,0.0,0.0,0.0,0.0,0.0,0.0,0.0,0.0,0.0,0.0,0.0,0.0,0.0,0.0,0.0,0.0,0.0,0.0,0.0,0.0,0.0,0.0,0.0,0.0,0.0,0.0,0.0,0.0,0.0,0.0,0.0,0.0,2.3826,2.4432,0.0,0.0,0.0,0.0,0.0,0.0,0.0,0.0,0.0,0.0,0.0,0.0,0.0,3.4203,3.6477,3.7315,3.8093,3.8781,3.9529,3.9978,4.0127,4.0217,4.0666,4.1294,3.9948,0.0,3.7524,3.6327,0.0,0.0,0.0,0.0,0.0,0.0,0.0,0.0,0.0,0.0,0.0,0.0,0.0,0.0,0.0,0.0,0.0,0.0,0.0,0.0,0.0,1.597,1.6467,1.6467,1.6754,1.6676,1.6049,1.5996,0.0,0.0,0.0,1.6023,1.6049,1.7629,1.9646,2.2112,2.4858,2.676,2.788,2.9109,2.9796,2.9984,2.9144,2.7452,2.5271,2.4832,0.0,0.0,0.0,0.0,0.0,0.0,0.0,0.0,0.0,0.0,0.0,0.0,0.0,0.0,0.0,0.0,0.0,0.0,0.0,0.0,0.0,0.0,0.0,0.0,0.0,0.0,0.0,0.0,0.0,0.0,0.0,0.0,0.0,0.0,0.0,0.0,0.0,0.0,0.0,2.559,2.7336,2.7573,2.8483,2.9333,0.0,0.0,0.0,0.0,0.0,0.0,0.0,0.0,0.0,3.5669,3.6417,3.7554,3.908,3.9738,4.0397,4.1085,4.2102,4.2791,4.318,4.3539,4.4077,4.4676,4.4018,4.318,4.2043,3.929,3.7973,3.7674,0.0,0.0,0.0,0.0,3.6836,3.6507,0.0,0.0,0.0,0.0,0.0,0.0,0.0,0.0,0.0,0.0,0.0,0.0,1.6545,1.7094,1.7486,1.7617,1.8035,1.7931,1.7094,1.7042,1.6833,1.6388,1.6937,1.746,1.7852,1.9978,2.2547,2.5523,2.8125,2.9858,3.0752,3.216,3.2767,3.2767,3.288,3.119,2.8137,2.7387,2.6321,2.5011,0.0,0.0,0.0,0.0,0.0,0.0,0.0,0.0,0.0,0.0,0.0,0.0,0.0,0.0,0.0,0.0,0.0,0.0,0.0,0.0,0.0,0.0,0.0,0.0,0.0,0.0,0.0,0.0,0.0,0.0,0.0,0.0,0.0,0.0,0.0,0.0,0.0,2.8607,3.0193,3.0552,3.1599,3.2347,0.0,0.0,0.0,0.0,0.0,0.0,3.5699,3.7285,3.8242,3.8422,3.9559,4.0576,4.1384,4.2222,4.288,4.3389,4.4706,4.5574,4.6082,4.6591,4.7189,4.7758,4.71,4.6531,4.5783,4.2162,4.0576,4.0457,4.0786,4.0905,4.0935,4.1265,4.1055,4.0666,0.0,0.0,0.0,0.0,0.0,0.0,0.0,0.0,0.0,0.0,0.0,1.6545,1.7094,1.7695,1.827,1.8767,1.8845,1.8845,1.8793,1.8767,1.8767,1.8741,1.9316,1.9656,1.9682,2.3668,2.6517,2.8081,3.1243,3.2901,3.3218,3.4014,3.4352,3.4352,3.4352,3.3183,3.1151,3.0317,2.9195,2.7867,2.6443,0.0,0.0,0.0,0.0,0.0,0.0,0.0,0.0,0.0,0.0,0.0,0.0,0.0,0.0,0.0,0.0,0.0,0.0,0.0,0.0,0.0,0.0,0.0,0.0,0.0,0.0,0.0,0.0,0.0,0.0,0.0,0.0,0.0,0.0,0.0,0.0,0.0,0.0,3.3155,3.3903,0.0,0.0,0.0,0.0,3.7075,3.7195,3.7793,3.911,3.9858,4.0546,4.1175,4.1863,4.2821,4.4107,4.5424,4.6082,4.6142,4.7459,4.8117,4.8147,4.8177,4.8536,4.9134,4.8476,4.8177,4.7938,4.5185,4.3688,4.309,4.2491,4.2252,4.2192,4.1594,4.1354,4.1324,0.0,0.0,0.0,1.0821,1.1344,1.205,1.3017,1.4141,1.5082,1.5683,1.6781,1.7695,1.8244,1.9159,1.986,2.007,2.0361,2.0414,2.0096,2.007,2.007,2.007,2.0936,2.2352,2.4334,2.6721,2.8799,3.0571,3.3156,3.4484,3.4574,3.583,3.6415,3.6445,3.6876,3.6415,3.5183,3.3126,3.1743,3.076,2.9287,2.7893,0.0,0.0,0.0,0.0,0.0,0.0,0.0,0.0,0.0,0.0,0.0,0.0,0.0,0.0,0.0,0.0,0.0,0.0,0.0,0.0,0.0,0.0,0.0,0.0,0.0,0.0,0.0,0.0,0.0,0.0,0.0,0.0,0.0,0.0,0.0,0.0,0.0,3.531,3.6357,0.0,3.7943,3.8033,3.8392,3.926,3.9738,4.0367,4.1265,4.2342,4.321,4.3868,4.4556,4.5544,4.686,4.7339,4.7788,4.8237,4.8686,4.8925,4.8925,4.8925,4.9284,4.9883,4.9643,4.9793,5.0092,4.9134,4.7638,4.5903,4.6112,4.6172,4.6202,4.6381,4.6202,4.5813,0.0,0.0,0.0,1.1396,1.1945,1.2651,1.3644,1.4768,1.5761,1.6571,1.7669,1.8662,1.942,2.0594,2.1354,2.1511,2.206,2.2243,2.1851,2.1825,2.1825,2.1825,2.2923,2.4734,2.7228,2.9049,3.0725,3.2357,3.4693,3.589,3.5983,3.7244,3.7831,3.7861,3.8323,3.8262,3.7738,3.5891,3.4475,3.3306,3.1842,3.0615,2.9449,0.0,0.0,0.0,0.0,0.0,0.0,0.0,0.0,0.0,0.0,0.0,0.0,0.0,0.0,0.0,0.0,0.0,0.0,0.0,0.0,0.0,0.0,0.0,0.0,0.0,0.0,0.0,0.0,0.0,0.0,0.0,0.0,0.0,0.0,3.4861,3.6237,3.7345,3.8601,3.9679,4.0337,4.0606,4.1025,4.1683,4.2342,4.3,4.3658,4.4945,4.5843,4.6292,4.695,4.7848,4.8925,4.9164,4.9613,5.0272,5.0481,5.072,5.093,5.069,5.096,5.1558,5.1319,5.1468,5.1887,5.1887,5.087,4.9284,4.9284,4.9284,4.9314,4.9763,4.9643,4.9314,0.0,0.0,1.202,1.202,1.2546,1.3153,1.3749,1.4794,1.5944,1.7068,1.8218,1.9394,2.0594,2.1773,2.2635,2.321,2.3812,2.4178,2.4178,2.4178,2.4178,2.423,2.5301,2.6617,2.8145,3.0536,3.2385,3.3573,3.6019,3.7299,3.7554,3.8231,3.8539,3.8539,3.8569,3.8569,3.8539,3.8539,3.74,3.546,3.4044,3.309,3.2351,0.0,0.0,0.0,0.0,0.0,0.0,0.0,0.0,0.0,0.0,0.0,0.0,0.0,0.0,0.0,0.0,0.0,0.0,0.0,0.0,0.0,0.0,0.0,0.0,0.0,0.0,0.0,0.0,0.0,0.0,0.0,0.0,0.0,3.5699,3.6207,3.7345,3.929,4.0666,4.1743,4.2402,4.303,4.3688,4.4347,4.5005,4.5693,4.6381,4.7638,4.8356,4.8386,4.9015,4.9673,5.0361,5.096,5.1618,5.2276,5.2875,5.3533,5.4162,5.3503,5.3563,5.4162,5.3503,5.3234,5.3264,5.3264,5.3294,5.3174,5.1798,5.1289,5.1289,5.1289,5.1289,5.1379,1.2099,1.1994,1.2151,1.2572,1.3147,1.3879,1.4872,1.5657,1.6545,1.7695,1.8845,1.9995,2.1146,2.2688,2.3864,2.4439,2.5014,2.5354,2.5354,2.5354,2.572,2.6556,2.7551,2.8704,2.9944,3.165,3.3207,3.4816,3.6141,3.7319,3.8262,3.8939,3.9247,3.9277,3.9739,3.9708,3.9247,3.9247,3.8631,3.7554,3.6199,3.5245,3.4475,0.0,0.0,0.0,0.0,0.0,0.0,0.0,0.0,0.0,0.0,0.0,0.0,0.0,0.0,0.0,0.0,0.0,0.0,0.0,0.0,0.0,0.0,0.0,0.0,0.0,0.0,0.0,0.0,0.0,0.0,0.0,3.6626,3.7255,3.7554,3.899,4.0427,4.1444,4.2701,4.3778,4.4436,4.5095,4.5783,4.6441,4.71,4.7758,4.8416,4.9254,4.9912,5.0391,5.105,5.1947,5.3114,5.2815,5.2995,5.3653,5.3324,5.3294,5.3443,5.3264,5.3563,5.4192,5.4012,5.4461,5.5359,5.5359,5.5598,5.5777,5.3533,5.2636,5.2636,5.2636,5.2636,5.2665,1.2834,1.275,1.2886,1.32,1.3749,1.4428,1.5343,1.5996,1.6885,1.827,1.9237,2.0335,2.1721,2.342,2.47,2.5275,2.6059,2.653,2.653,2.6765,2.7314,2.8229,2.9013,2.9927,3.0949,3.243,3.3956,3.5546,3.6858,3.7977,3.8939,3.9616,3.9955,3.9955,4.0355,4.0324,3.9955,3.9955,3.9554,3.8877,3.8077,3.7369,3.6599,3.5185,3.4386,3.3891,3.2149,3.1344,3.0913,3.0134,0.0,0.0,0.0,0.0,0.0,0.0,0.0,0.0,0.0,0.0,0.0,0.0,0.0,0.0,0.0,0.0,0.0,0.0,0.0,0.0,0.0,0.0,0.0,0.0,3.8901,3.9798,4.0726,4.1414,4.2132,4.306,4.4586,4.5723,4.6112,4.701,4.7728,4.8087,4.8985,4.9673,5.0062,5.1229,5.1947,5.2037,5.2695,5.3563,5.461,5.4221,5.4491,5.5418,5.4999,5.497,5.5239,5.494,5.5209,5.5837,5.5538,5.5867,5.6555,5.6555,5.6765,5.6944,0.0,0.0,0.0,0.0,5.5598,5.6077,1.3775,1.3775,1.3775,1.3775,1.4297,1.4872,1.5421,1.6049,1.7042,1.861,1.9394,2.044,2.214,2.3869,2.5118,2.5667,2.6765,2.7497,2.7602,2.815,2.8752,2.9353,3.0,3.0679,3.145,3.3063,3.4583,3.6055,3.7694,3.891,3.9647,4.0262,4.057,4.0632,4.0632,4.0693,4.0755,4.0755,4.0416,3.9862,3.9862,3.9308,3.8385,3.7184,3.6722,3.6476,3.4537,3.386,3.3767,3.2828,0.0,0.0,0.0,0.0,0.0,0.0,0.0,0.0,0.0,0.0,0.0,0.0,0.0,0.0,0.0,0.0,0.0,0.0,0.0,0.0,0.0,0.0,0.0,0.0,4.1713,4.306,4.4466,4.3658,4.3359,4.4496,4.6292,4.7429,4.7519,4.8716,4.9494,4.9494,5.078,5.1528,5.1439,5.3354,0.0,0.0,0.0,5.485,5.5508,5.5448,5.6017,5.7214,5.7124,5.7423,5.7992,5.7363,5.7423,5.7962,5.7363,5.7124,5.7214,5.7214,5.7244,5.7304,5.7154,5.7094,5.7154,5.7782,5.874,5.9757,1.3775,1.3775,1.3775,1.3775,1.4637,1.5369,1.5474,1.6362,1.7329,1.814,1.9159,2.0283,2.1538,2.3237,2.4517,2.5092,2.619,2.7236,2.815,2.8778,2.9353,2.9954,3.1089,3.189,3.2225,3.3505,3.5138,3.7054,3.7647,3.8772,4.0324,4.0478,4.0847,4.1401,4.1401,4.1709,4.2202,4.2202,4.214,4.2017,4.2017,4.0601,3.8477,3.8231,3.8108,3.7984,3.7061,3.6722,3.6538,3.5306,3.4814,3.4417,3.2986,3.2527,0.0,0.0,0.0,0.0,0.0,0.0,0.0,0.0,0.0,0.0,0.0,0.0,0.0,0.0,0.0,0.0,0.0,0.0,0.0,4.1833,4.309,4.4586,4.6471,4.6501,4.6441,4.6711,4.7549,4.8297,4.8835,5.0062,5.084,5.084,5.2576,5.3384,5.2845,5.47,5.5478,5.482,5.5927,5.6855,5.7543,5.7004,5.7124,5.7932,5.7363,0.0,5.7304,5.7154,5.7154,5.7304,5.7154,5.7423,5.7932,5.7932,5.8231,5.862,5.7513,5.7094,5.7124,5.7244,5.7453,5.7663,1.3775,1.3775,1.3775,1.3775,1.4742,1.55,1.55,1.6467,1.7408,1.8009,1.8584,1.9499,2.0936,2.2374,2.3602,2.4465,2.585,2.7288,2.8752,2.9118,2.9666,3.0529,3.1188,3.191,3.2799,3.3649,3.5243,3.7549,3.8046,3.902,4.0539,4.0909,4.1247,4.1617,4.1955,4.2294,4.2602,4.2602,4.2602,4.2602,4.2602,4.1801,4.0478,3.9801,3.9524,3.94,3.8385,3.8015,3.7892,3.7215,3.6999,3.6753,3.5338,3.4848,3.4634,0.0,0.0,0.0,0.0,0.0,0.0,0.0,0.0,0.0,0.0,0.0,0.0,0.0,0.0,3.914,3.9768,0.0,4.306,4.3718,4.4945,4.6292,4.7608,4.8087,4.8297,4.8297,4.8865,4.9523,5.0182,5.1439,5.2187,5.2187,5.4042,5.491,5.4221,5.6077,5.6825,5.6166,5.7094,5.7782,5.8112,5.7782,5.7962,5.862,5.8261,5.8112,5.8112,5.8112,5.8112,5.8112,5.8441,5.877,5.9129,5.9488,5.9817,6.0027,5.9368,5.889,5.859,5.859,5.88,5.9099,1.3775,1.3775,1.3775,1.3775,1.4742,1.55,1.55,1.6467,1.7382,1.7852,1.8035,1.8662,2.0201,2.1406,2.2583,2.3995,2.5589,2.7236,2.8987,2.9222,2.9797,3.0921,3.1048,3.1814,3.3213,3.3854,3.5311,3.7827,3.8458,3.9307,4.0331,4.1208,4.1678,4.1832,4.2509,4.2879,4.3002,4.3002,4.3002,4.3002,4.3002,4.3002,4.2848,4.1463,4.0847,4.057,3.9339,3.8908,3.8877,3.8754,3.8692,3.8508,3.7277,3.6784,3.6507,3.534,3.485,0.0,0.0,0.0,0.0,0.0,0.0,0.0,0.0,3.7165,3.8182,3.8841,4.0457,4.1803,4.1923,4.3449,4.4915,4.5574,4.6711,4.7758,4.8566,4.9224,4.9703,4.9823,5.0301,5.087,5.1528,5.2785,5.3563,5.3563,5.5299,5.6137,5.5598,5.7304,5.7992,5.7304,5.7962,5.8321,5.8321,5.8321,5.865,5.9308,5.9308,5.9368,5.9488,5.9488,5.9488,5.9518,6.0057,6.0266,6.0326,6.0894,6.1104,6.1104,6.1104,6.0775,6.0266,6.0266,6.0625,6.1104,1.3775,1.3775,1.3775,1.3775,1.4742,1.55,1.55,1.6467,1.7225,1.7277,1.7774,1.8349,1.9028,2.0201,2.1773,2.3916,2.5223,2.6634,2.836,2.8987,2.9797,3.0921,3.1347,3.23,3.3887,3.43,3.5639,3.7936,3.8517,3.9162,3.9839,4.1036,4.1925,4.2509,4.3187,4.3802,4.4356,4.4356,4.4356,4.4356,4.4356,4.4356,4.4202,4.2879,4.2017,4.137,4.0601,4.0293,4.0201,3.9616,3.94,3.9277,3.8508,3.7861,3.7461,3.7923,3.7215,3.6322,3.684,3.6641,3.6567,3.7207,3.7669,3.8123,0.0,3.9529,4.0247,4.0905,4.2132,4.3299,4.3868,4.5155,4.6322,4.698,4.7698,4.8596,4.9853,5.0571,5.1229,5.1798,5.1947,5.2247,5.2905,5.4192,5.497,5.497,5.6226,5.6944,5.6885,5.8231,5.868,5.8022,5.865,5.9009,5.9009,5.9009,5.9308,5.9967,5.9967,6.0296,6.0894,6.0894,6.0894,6.0894,6.0954,6.1014,6.1014,6.1074,6.1104,6.1104,6.1104,6.1074,6.1014,6.1014,6.1044,6.1104,1.3775,1.3775,1.3775,1.3775,1.4742,1.55,1.55,1.6467,1.7199,1.7199,1.7408,1.78,1.8375,1.9808,2.1511,2.342,2.436,2.5694,2.7758,2.8438,2.9274,3.0451,3.0939,3.1969,3.3403,3.4011,3.5272,3.7353,3.8296,3.909,3.9696,4.0965,4.1955,4.2633,4.3279,4.3956,4.4572,4.4572,4.4572,4.4572,4.4572,4.4356,4.3895,4.2971,4.2202,4.1494,4.0786,4.0539,0.0,4.0201,4.0108,3.9985,3.9308,3.8908,3.8662,3.8407,3.8043,3.7766,3.8177,3.8432,3.875,3.9415,3.9866,4.0381,4.1115,4.2,4.2761,4.303,4.4137,4.5274,4.5933,4.683,4.7668,4.8327,4.8985,4.9883,5.1199,5.1618,5.2336,5.3773,5.4281,5.4461,5.4371,5.5209,5.5927,5.6286,5.7513,5.8082,5.7723,5.859,5.8979,5.871,5.8949,5.9279,5.9668,5.9668,6.0027,6.0685,6.0685,6.0835,6.1104,6.1104,6.1313,6.1672,6.1672,6.1912,6.2241,6.2241,6.2241,6.2241,6.2241,6.2241,6.2181,6.1403,6.1104,6.1104,1.3775,1.3775,1.3775,1.3775,1.4742,1.55,1.55,1.6467,1.7199,1.7199,1.7199,1.7434,1.8035,1.9342,2.0856,2.2374,2.3341,2.47,2.6687,2.7654,2.8673,2.9849,3.0451,3.1453,3.2874,3.3409,3.4506,3.6322,3.7666,3.8648,3.9182,4.0802,4.1863,4.2355,4.3002,4.3587,4.4048,4.4048,4.4048,4.4048,4.4048,4.3741,4.3217,4.2355,4.174,4.1247,4.0724,4.0539,4.0539,4.0539,4.0539,4.0447,3.9955,3.9801,3.9671,3.9296,3.9327,3.9733,4.013,4.0609,4.1085,4.1789,4.2138,4.2526,4.3344,4.4208,4.4855,4.4855,4.5933,4.7096,4.7489,4.8205,4.8865,4.9434,5.0242,5.1109,5.2067,5.2845,5.3773,5.5029,5.5927,5.6316,5.6017,5.6436,5.6885,5.7334,5.8291,5.871,5.8411,5.886,5.9189,5.9368,5.9368,5.9697,6.0356,6.0386,6.0715,6.1373,6.1373,6.1493,6.1642,6.1642,6.1912,6.2361,6.2361,6.263,6.3079,6.3079,6.3079,6.3079,6.3079,6.3079,6.2959,6.2002,6.1642,6.1642,1.3775,1.3775,1.3775,1.3775,1.4742,1.55,1.55,1.6467,1.7199,1.7199,1.7199,1.7434,1.8035,1.861,1.9447,2.0673,2.2269,2.3759,2.4962,2.6608,2.8072,2.9248,2.9849,3.0908,3.2471,3.2524,3.3274,3.4657,3.6487,3.7535,3.7895,4.0416,4.1617,4.1648,4.2325,4.2633,4.2663,4.2663,4.2663,4.2663,4.2663,4.2663,4.2479,4.1124,4.057,4.057,4.0539,4.0539,4.0539,4.0539,4.0539,4.0539,4.0509,4.0509,4.0632,4.1309,4.1955,4.2633,4.3279,4.3315,4.3502,4.4816,4.4868,4.476,4.5423,4.595,4.6262,4.6262,4.7482,4.8471,4.8325,4.8953,4.9704,5.0092,5.1289,5.2157,5.2187,5.4431,5.5837,5.5269,5.6286,5.7334,5.7962,5.8052,5.8082,5.8082,5.8141,5.8411,5.9039,5.9099,5.9398,6.0027,6.0057,6.0386,6.1074,6.1074,6.1403,6.2061,6.2061,6.2391,6.3019,6.3019,6.3019,6.3049,6.3049,6.3049,6.3079,6.3079,6.3079,6.3079,6.3079,6.3079,6.3079,6.3019,6.3019,6.3019,1.4925,1.4925,1.4925,1.4925,1.5578,1.6101,1.6101,1.6728,1.7199,1.7199,1.7199,0.0,0.0,0.0,0.0,0.0,2.0727,2.2165,2.3707,2.5066,2.6504,2.8046,2.8673,2.9724,3.1249,3.1723,3.2577,3.3919,3.539,3.6433,3.7146,3.8461,3.9673,4.0909,4.1124,4.174,4.2602,4.2602,4.2602,4.2571,4.2109,4.1648,4.1124,4.0201,3.9585,3.9185,0.0,3.9118,3.9143,3.964,3.9794,3.9818,4.0317,4.0847,4.137,4.2078,4.299,4.3761,4.4021,4.468,4.5489,4.6376,4.6458,4.6477,4.7228,4.7395,4.7462,4.7462,4.7825,4.8399,4.9307,4.9551,5.0125,5.16,5.2012,5.2815,5.4581,5.5598,5.6406,5.7064,5.7902,5.8351,5.8141,5.8112,5.8291,5.874,5.877,5.9069,5.9727,5.9757,6.0057,6.0745,6.0775,6.1104,6.1762,6.1762,6.2091,6.275,6.275,6.2869,6.3079,6.3079,6.3079,6.3079,6.3079,6.3079,6.3079,6.3079,6.3079,6.3079,6.3079,6.3079,6.3079,6.3079,6.3079,6.3079,0.0,1.55,1.55,1.55,1.5996,0.0,0.0,0.0,0.0,0.0,0.0,0.0,0.0,0.0,0.0,0.0,0.0,2.091,2.2217,2.3785,2.5249,2.6556,2.7549,2.8654,2.9812,3.0493,3.1368,3.2591,3.4112,3.5324,3.602,3.7323,3.8537,3.9528,3.9733,4.0293,4.1155,4.1155,4.1709,4.2479,4.1063,4.0816,4.1093,3.9431,3.8539,0.0,3.7861,3.7671,3.7663,3.878,3.9204,3.9443,4.0186,4.1198,4.2406,4.3402,4.4188,4.491,4.537,4.6137,4.6966,4.7558,4.7629,4.7585,4.8179,4.8133,4.7964,4.7964,4.8231,4.8748,4.9786,5.0092,5.0638,5.242,5.2893,5.3879,5.6071,5.6762,5.7378,5.8351,5.886,5.8949,5.853,5.868,5.889,5.9099,5.9308,5.9638,6.0057,6.0326,6.0775,6.1433,6.1463,6.1792,6.245,6.245,6.266,6.3079,6.3079,6.3079,6.3079,6.3079,6.3079,6.3079,6.3079,6.3079,6.3079,6.3079,6.3079,6.3079,6.3079,6.3079,6.3079,6.3079,6.3079,6.3079,0.0,0.0,1.5578,0.0,0.0,0.0,0.0,0.0,0.0,0.0,0.0,0.0,0.0,0.0,0.0,0.0,0.0,0.0,2.062,2.2714,2.423,2.4883,2.6478,2.7654,2.8333,2.8908,2.9697,3.0637,3.2681,3.3899,3.4427,3.703,3.8025,3.7624,3.8152,3.8411,3.8508,3.8508,4.0016,4.2171,3.9524,3.9985,4.1925,3.8631,3.7369,3.7277,3.6661,3.6258,3.6189,3.7885,3.8836,3.9436,4.0139,4.1729,4.3669,4.511,4.5649,4.5957,4.725,4.7619,4.7804,4.845,4.8469,4.8301,4.8301,4.8133,4.8049,4.8049,4.8706,4.9377,4.9904,5.0484,5.1395,5.273,5.3875,5.5008,5.6395,5.7721,5.867,5.9039,5.9129,5.9159,5.9159,5.9727,5.9847,5.9249,5.9787,6.0146,6.0176,6.0805,6.1463,6.2121,6.2151,6.245,6.3079,6.3079,6.3079,6.3079,6.3079,6.3079,6.3079,6.3079,6.3079,6.3079,6.3079,6.3079,6.3079,6.3079,6.3079,6.3079,6.3079,6.3079,6.3079,6.3079,6.3079,6.3079,0.0,0.0,0.0,0.0,0.0,0.0,0.0,0.0,0.0,0.0,0.0,0.0,0.0,0.0,0.0,0.0,0.0,0.0,1.9943,2.0963,2.2374,2.4256,2.4753,2.585,2.7706,2.7889,2.867,2.9997,3.0551,3.1514,3.2824,3.4017,3.5264,3.6425,3.7136,3.7623,3.8177,3.8244,3.8739,3.9327,3.8196,3.7892,3.7892,3.6382,3.5554,3.5276,3.5493,3.5462,3.5676,3.7244,3.8811,4.0409,4.1638,4.3051,4.4403,4.5341,4.6296,4.7157,4.7527,4.7958,4.8389,4.8573,4.8521,4.8521,4.8521,4.8438,4.8438,4.8438,4.8591,4.9013,4.9634,4.9961,5.0666,5.1972,5.2959,5.4171,5.5999,5.7408,5.8488,5.9039,5.9548,5.9847,5.9847,5.9997,6.0236,6.0565,6.0745,6.1074,6.1553,6.1762,6.2151,6.281,6.2839,6.2899,6.3079,6.3079,6.3079,6.3079,6.3079,6.3079,6.3079,6.3079,6.3079,6.3079,6.3079,6.3079,6.3079,6.3079,6.3079,6.3079,6.3079,6.3079,6.3079,6.3079,6.3079,6.3079,0.0,0.0,0.0,0.0,0.0,0.0,0.0,0.0,0.0,0.0,0.0,0.0,0.0,0.0,0.0,0.0,0.0,0.0,0.0,2.0096,2.1275,2.2531,2.3315,2.4439,2.5981,2.6269,2.721,2.8807,2.9188,2.9968,3.116,3.2188,3.3281,3.4371,3.5048,3.5631,3.628,3.6407,3.7174,0.0,0.0,3.6473,3.7088,3.5309,3.4605,3.4568,3.5033,3.5646,3.6382,3.7391,3.8825,4.0576,4.2099,4.3635,4.508,4.5834,4.6788,4.7742,4.8358,4.8789,4.9097,4.9097,4.9097,4.9004,4.8696,4.8604,4.8604,4.8604,4.8604,4.882,4.9558,4.9647,5.0147,5.185,5.2634,5.3946,5.6432,5.7453,5.8248,5.9398,5.9847,6.0196,6.0336,6.0736,6.1246,6.1859,6.1665,6.1702,6.2288,6.2475,6.2804,6.3279,6.3194,6.3079,6.3079,6.3079,6.3079,6.3079,6.3079,6.3079,6.3079,6.3079,6.3079,6.3079,6.3079,6.3079,6.3079,6.3079,6.3079,6.3079,6.3079,6.3079,6.3079,6.3079,6.3079,6.3079,0.0,0.0,0.0,0.0,0.0,0.0,0.0,0.0,0.0,0.0,1.7199,1.7199,1.7199,1.7199,0.0,0.0,0.0,0.0,0.0,0.0,2.0437,2.0594,2.2034,2.3184,2.3864,2.4439,2.5537,2.7183,2.7975,2.8736,2.9441,3.0862,3.1725,3.2037,3.275,3.3425,3.391,3.4089,3.5492,3.7314,3.4972,3.546,3.7327,0.0,3.3996,3.4232,3.485,3.6075,3.7428,3.7903,3.9017,4.0517,4.2222,4.3959,4.5629,4.6462,4.7219,4.8019,4.9343,4.9682,4.9682,4.9682,4.9682,4.9497,4.8789,4.8604,4.8573,4.8512,4.8543,4.8789,4.9312,4.9389,4.9922,5.1635,5.258,5.4092,5.6847,5.7406,5.8144,5.9837,6.0027,6.0256,6.0596,6.1597,6.2461,6.3001,6.2551,6.2438,6.2634,6.2979,6.3309,6.3538,6.3194,6.3079,6.3194,6.3079,6.3079,6.3194,6.3079,6.3079,6.3194,6.3079,6.3079,6.3079,6.3079,6.3079,6.3079,6.3169,6.3199,6.3199,6.3288,6.3348,6.3348,6.3348,6.3348,6.3318,0.0,0.0,0.0,0.0,0.0,0.0,0.0,0.0,0.0,0.0,1.7199,1.7199,0.0,0.0,0.0,0.0,0.0,0.0,0.0,0.0,0.0,1.9917,2.0701,2.1642,2.269,2.3237,2.4151,2.5406,2.559,2.6214,2.7379,2.8675,2.9869,3.1006,3.2149,3.2992,3.3607,3.391,3.4243,3.4545,3.4272,3.4028,3.3878,3.3244,0.0,0.0,3.3933,3.5248,3.6626,3.7947,3.9733,4.1576,4.2971,4.4787,4.6462,4.7219,4.7896,4.8635,4.9466,4.9682,4.9682,4.9682,4.9682,4.9497,4.8789,4.8604,4.845,4.7896,4.8235,4.8481,4.805,4.8661,4.953,5.0239,5.206,5.3983,5.5671,5.7122,5.8398,5.9482,5.9867,6.0296,6.1006,6.1838,6.2724,6.3297,6.3357,6.3243,6.3357,6.3334,6.3424,6.3538,6.3194,6.3194,6.3424,6.3194,6.3194,6.3424,6.3194,6.3194,6.3424,6.3194,6.3079,6.3079,6.3079,6.3079,6.3109,6.3617,6.3827,6.3887,6.4455,6.4695,6.4695,6.4695,6.4695,6.4605,0.0,0.0,0.0,0.0,0.0,0.0,0.0,1.746,1.7669,1.7669,1.7904,1.7852,1.7251,1.7199,1.7199,0.0,0.0,0.0,0.0,0.0,0.0,0.0,0.0,0.0,2.1511,2.2034,2.2897,2.4047,0.0,2.4985,2.5902,2.7093,2.818,2.9142,3.0131,3.0896,3.1537,3.2098,3.2249,3.2105,3.2611,3.2639,3.2367,0.0,0.0,0.0,3.3754,3.4942,3.6346,3.7851,3.9757,4.1659,4.3156,4.4972,4.6726,4.7404,4.8081,4.885,4.9928,4.9959,4.9774,5.0112,4.9959,4.9497,4.8789,4.8327,4.7989,4.7681,4.7588,4.7558,4.7588,4.806,4.8691,4.9443,5.1001,5.2786,5.448,5.6041,5.7588,5.879,6.0084,6.1047,6.1489,6.2453,6.326,6.3932,6.3622,6.3538,6.3766,6.3766,6.3652,6.3538,6.3424,6.3424,6.3538,6.3194,6.3194,6.3538,6.3194,6.3194,6.3538,6.3194,6.3309,6.3538,6.3524,6.3674,6.385,6.4276,6.4545,6.4575,6.4904,6.5024,6.5024,6.5024,6.5024,6.4994,0.0,0.0,0.0,0.0,0.0,0.0,0.0,1.7721,1.8087,1.8087,1.8584,1.8558,1.7669,1.746,1.7382,0.0,0.0,0.0,0.0,0.0,0.0,0.0,0.0,0.0,0.0,0.0,0.0,2.2844,2.3446,0.0,0.0,0.0,0.0,0.0,2.8282,2.8931,2.9678,3.0322,3.0478,0.0,0.0,3.1444,0.0,0.0,0.0,0.0,0.0,3.482,3.6037,3.7602,3.9474,4.1372,4.2867,4.4849,4.6726,4.7404,4.8081,4.8881,5.0143,5.0082,4.9805,5.0328,5.0082,4.9466,4.8604,4.7989,4.7527,4.7219,4.688,4.6726,4.7096,4.7404,4.7937,4.8913,5.0296,5.1911,5.3766,5.543,5.7002,5.8489,6.0391,6.1629,6.1959,6.295,6.3849,6.43,6.3849,6.3652,6.3993,6.3993,6.388,6.3736,6.3652,6.3622,6.3736,6.3309,6.3309,6.3652,6.3309,6.3309,6.3652,6.3424,6.3538,6.4023,6.4086,6.427,6.4563,6.5023,6.5233,6.5263,6.5383,6.5443,6.5443,6.5443,6.5443,6.5443,0.0,0.0,0.0,0.0,0.0,0.0,0.0,1.7721,1.8087,1.8087,1.8584,1.8872,1.8767,1.8323,1.8009,0.0,0.0,0.0,0.0,0.0,0.0,0.0,0.0,0.0,0.0,0.0,0.0,2.1668,2.2243,0.0,0.0,0.0,0.0,0.0,0.0,2.8453,2.9648,2.9786,0.0,0.0,0.0,0.0,0.0,0.0,0.0,0.0,0.0,3.4546,3.5337,3.6996,3.8806,4.0598,4.2015,4.4327,4.6726,4.7404,4.8081,4.8789,4.9558,4.9743,4.9682,4.9774,4.9743,4.9343,4.8019,4.765,4.725,4.6018,4.6203,4.6419,4.5865,4.6788,4.7784,4.8301,5.0506,5.2643,5.4171,5.6122,5.7825,5.9173,6.0607,6.1629,6.1989,6.3204,6.3993,6.3993,6.3766,6.3652,6.3993,6.3993,6.4075,6.427,6.4075,6.4075,6.427,6.3736,6.3652,6.3993,6.3652,6.3652,6.3993,6.388,6.3993,6.4023,6.4347,6.4503,6.4623,6.5532,6.5922,6.5981,6.658,6.6819,6.6819,6.6819,6.6819,6.6729,0.0,0.0,0.0,0.0,0.0,0.0,1.7199,1.7983,1.8584,1.8584,1.9394,1.9991,1.9991,1.9133,1.8453,1.814,0.0,0.0,0.0,0.0,0.0,0.0,0.0,0.0,0.0,0.0,2.0701,2.1511,2.2086,0.0,0.0,0.0,0.0,0.0,0.0,2.7705,2.7924,2.8734,0.0,0.0,0.0,0.0,0.0,0.0,0.0,0.0,0.0,0.0,3.4453,3.6718,3.8371,3.9664,4.0781,4.307,4.568,4.6996,4.7722,4.8266,4.9374,4.9374,4.9158,4.9589,4.9035,4.8296,4.7742,4.6973,4.6111,4.5187,4.488,4.4818,4.4941,4.5741,4.6757,4.7702,4.9702,5.1603,5.3131,5.5262,5.7163,5.8634,6.0685,6.2068,6.2177,6.3507,6.4188,6.3993,6.4075,6.4075,6.4188,6.4106,6.4075,6.4382,6.43,6.43,6.4382,6.3849,6.3736,6.4188,6.3736,6.3736,6.4188,6.4075,6.4218,6.4616,6.5001,6.5339,6.5663,6.6312,6.6732,6.6883,6.7001,6.6999,6.6999,6.6999,6.6999,6.6939,0.0,0.0,0.0,0.0,0.0,1.7199,1.7199,1.8166,1.8898,1.8898,1.9917,2.0699,2.0699,1.9603,1.8741,1.8375,1.7643,0.0,0.0,0.0,0.0,0.0,0.0,0.0,0.0,0.0,2.0936,2.1511,2.2269,2.2844,0.0,0.0,2.5437,2.5272,0.0,0.0,0.0,0.0,0.0,0.0,0.0,0.0,0.0,0.0,0.0,0.0,0.0,0.0,0.0,0.0,0.0,3.8591,3.9642,4.1495,4.3758,4.5843,4.6843,4.7558,4.8758,4.8573,4.8173,4.8881,4.8173,4.725,4.7065,4.6111,4.5095,4.4418,4.3741,4.3494,4.4172,4.5003,4.5957,4.7127,4.8867,5.0677,5.2236,5.4202,5.6145,5.8001,6.0543,6.215,6.2472,6.3697,6.427,6.4075,6.4188,6.4412,6.4524,6.43,6.43,6.4524,6.4524,6.4524,6.4524,6.4075,6.3963,6.4382,6.3963,6.3963,6.4382,6.43,6.4554,6.498,6.5389,6.5849,6.629,6.6794,6.7121,6.7365,6.7121,6.6999,6.6999,6.6999,6.6999,6.6999,0.0,0.0,0.0,0.0,0.0,0.0,1.7199,1.8166,1.8898,1.8898,1.9917,2.0699,2.0699,1.9603,1.8898,1.8898,1.7852,0.0,0.0,0.0,0.0,0.0,0.0,0.0,0.0,0.0,2.0936,2.1511,2.2662,2.321,2.3237,2.4472,2.5271,2.5825,0.0,0.0,0.0,0.0,0.0,0.0,0.0,0.0,3.0582,0.0,0.0,0.0,0.0,0.0,0.0,0.0,0.0,0.0,0.0,3.9634,4.0842,4.3532,4.5401,4.6757,4.7434,4.7127,4.6788,4.7465,4.7127,4.6419,4.5772,4.5095,4.4387,4.371,4.3063,4.2817,4.3464,4.4664,4.5803,4.648,4.8358,5.0174,5.1528,5.3193,5.5214,5.7531,5.9972,6.1768,6.2764,6.3838,6.4382,6.4382,6.4188,6.4218,6.4888,6.4635,6.4524,6.4888,6.4888,6.4888,6.4888,6.4524,6.4382,6.4382,6.4382,6.4382,6.4382,6.4777,6.4888,6.498,6.5589,6.5905,6.591,6.6673,6.6999,6.6999,6.6999,6.6999,6.6999,6.6999,6.6999,6.6999,0.0,0.0,0.0,0.0,0.0,0.0,0.0,1.7852,1.8349,1.8349,1.9002,1.9447,1.9447,1.8793,1.8349,1.8349,1.7643,0.0,0.0,0.0,0.0,0.0,0.0,0.0,0.0,2.044,2.1511,2.2086,2.3263,2.4253,2.5114,2.5834,2.6256,2.651,2.7088,2.7221,0.0,0.0,0.0,0.0,0.0,2.9953,3.0582,0.0,0.0,0.0,0.0,0.0,0.0,0.0,0.0,0.0,0.0,0.0,0.0,4.1148,4.3284,4.5464,4.6603,4.6757,4.6634,4.685,4.6419,4.5741,4.5064,4.4387,4.3587,4.2448,4.2048,4.2109,4.2786,4.3987,4.528,4.6419,4.8727,5.0851,5.2206,5.4022,5.605,5.8208,6.0751,6.2841,6.4118,6.45,6.4777,6.4777,6.4666,6.4666,6.4888,6.4777,6.4777,6.4888,6.4888,6.4888,6.4888,6.4524,6.4524,6.4777,6.4524,6.4524,6.4777,6.4888,6.4888,6.498,6.5849,6.6199,6.629,6.7034,6.7365,6.7365,6.7121,6.6999,6.6999,6.6999,6.6999,6.6999,0.0,0.0,0.0,0.0,0.0,0.0,0.0,1.7721,1.8087,1.8087,1.8584,1.8898,1.8898,1.8427,1.8087,1.8087,1.7539,0.0,0.0,0.0,0.0,0.0,0.0,0.0,1.9237,2.0963,2.2243,2.3027,2.3968,2.4965,2.5942,2.6715,2.6972,2.6788,2.7883,2.7822,0.0,0.0,0.0,0.0,2.8667,2.9355,3.0223,0.0,0.0,0.0,0.0,0.0,0.0,0.0,0.0,0.0,0.0,0.0,0.0,0.0,4.1382,4.3402,4.5033,4.528,4.5157,4.5403,4.4941,4.4356,4.3925,4.331,4.2602,4.1771,4.1586,4.1801,4.2479,4.3895,4.5311,4.6419,4.8696,5.079,5.2144,5.4052,5.6484,5.9562,6.1625,6.3349,6.4764,6.4888,6.4888,6.4888,6.4888,6.4888,6.4888,6.4888,6.4888,6.4888,6.4888,6.4888,6.4888,6.4635,6.4635,6.4888,6.4635,6.4635,6.4888,6.4888,6.4888,6.498,6.5963,6.643,0.0,6.7184,6.7608,6.7608,6.7365,6.7243,6.7365,6.7365,6.7365,6.7365,0.0,0.0,0.0,0.0,0.0,0.0,0.0,1.7669,1.8035,1.8035,1.8479,1.8793,1.8793,1.8323,1.8035,1.8035,0.0,0.0,0.0,0.0,0.0,0.0,0.0,0.0,1.9865,2.159,2.3001,2.4125,2.4779,2.5415,2.5965,2.7149,2.7434,2.6979,2.8677,2.8741,0.0,0.0,0.0,0.0,2.7619,2.8397,0.0,0.0,0.0,0.0,0.0,0.0,0.0,0.0,0.0,0.0,0.0,0.0,0.0,0.0,0.0,0.0,0.0,4.291,4.2756,4.334,4.3063,4.2602,4.254,4.2078,0.0,4.1617,4.1648,4.1894,4.2602,4.4295,4.5834,4.6603,4.845,5.0236,5.1652,5.3714,5.6761,6.1255,6.2456,6.341,6.4764,6.4888,6.4888,6.4888,6.4888,6.4888,6.4888,6.4888,6.4888,6.4888,6.4888,6.4888,6.4888,6.4888,6.4888,6.4888,6.4888,6.4888,6.4888,6.4888,6.4918,6.5042,6.5994,6.646,6.6497,6.7304,6.7729,6.797,6.7608,6.7729,6.797,6.797,6.797,6.797,0.0,0.0,0.0,0.0,0.0,0.0,0.0,0.0,0.0,0.0,1.7512,1.7591,1.7591,1.7486,1.7408,0.0,0.0,0.0,0.0,0.0,0.0,0.0,0.0,0.0,2.0489,2.2139,2.3393,2.4125,2.5563,2.6638,2.7274,2.7444,2.7991,2.8836,2.8745,2.8627,0.0,0.0,0.0,0.0,2.8158,2.8547,0.0,0.0,0.0,0.0,3.133,3.1629,0.0,0.0,0.0,0.0,0.0,0.0,0.0,0.0,3.7947,3.8218,3.9364,0.0,4.2633,4.2786,4.2725,4.2479,0.0,4.2109,4.2232,4.1709,4.2017,4.2725,4.3895,4.491,4.6142,4.7865,4.9435,5.1097,5.2975,5.633,5.9408,6.1563,6.2856,6.3933,6.4826,6.4888,6.4888,6.4888,6.4888,6.4888,6.4888,6.4888,6.4888,6.4888,6.4888,6.4888,6.4888,6.4888,6.4888,6.4888,6.4888,6.4888,6.4888,6.4888,6.5165,6.5719,6.6436,6.6967,6.7225,6.7962,6.8059,6.797,6.797,6.797,6.797,6.797,6.797,6.809,0.0,0.0,0.0,0.0,0.0,0.0,0.0,0.0,0.0,0.0,0.0,1.7199,1.7199,1.7199,0.0,0.0,0.0,0.0,0.0,0.0,0.0,0.0,0.0,2.0306,2.1459,2.2871,2.4308,2.5694,2.6966,2.7904,2.8465,2.9026,2.9329,2.9453,2.8838,2.8768,0.0,0.0,0.0,2.759,2.7649,0.0,0.0,0.0,0.0,0.0,3.0941,3.127,0.0,3.2017,3.2945,3.4001,0.0,0.0,0.0,0.0,3.7054,3.7425,3.7954,3.9585,4.1186,4.1186,4.1678,4.2048,4.1678,4.2109,4.2509,4.214,4.2848,4.3741,4.4449,4.5649,4.6973,4.8389,5.0051,5.2206,5.5161,5.827,6.0763,6.2117,6.3195,6.4118,6.4826,6.4888,6.4888,6.4888,6.4888,6.4888,6.4888,6.4888,6.4888,6.4888,6.4888,6.4888,6.4888,6.4888,6.4888,6.4888,6.4888,6.4888,6.4918,6.5226,6.5565,6.5965,6.695,6.745,6.7703,6.8142,6.8417,6.8417,6.8179,6.8298,6.8417,6.8417,6.8417,6.8417,0.0,0.0,0.0,0.0,0.0,0.0,0.0,0.0,0.0,0.0,0.0,0.0,0.0,0.0,0.0,0.0,0.0,0.0,0.0,0.0,0.0,0.0,1.9887,2.1379,2.2801,2.3817,2.5529,2.7855,2.8606,2.92,2.9671,3.0853,3.0787,2.9663,2.9056,2.9042,2.9445,2.756,2.7051,2.758,2.6961,0.0,0.0,0.0,0.0,0.0,0.0,0.0,0.0,3.1682,3.2613,3.3698,3.3698,0.0,0.0,0.0,0.0,0.0,3.7338,3.8323,3.94,3.9493,4.057,4.1586,4.1586,4.2294,4.291,4.291,4.3956,4.491,4.5033,4.6542,4.805,4.8943,5.1005,5.3714,5.7285,5.9624,6.1409,6.2671,6.3502,6.4241,6.4826,6.4888,6.4888,6.4888,6.4888,6.4888,6.4888,6.4888,6.4888,6.4888,6.4888,6.4888,6.4888,6.4888,6.4888,6.4888,6.4888,6.4888,6.4918,6.5503,6.5873,6.6119,6.7258,6.7873,6.812,6.8408,6.8654,6.8889,6.8654,6.8654,6.8889,6.8889,6.8889,6.8889,0.0,0.0,0.0,0.0,0.0,0.0,0.0,0.0,0.0,0.0,0.0,0.0,0.0,0.0,0.0,0.0,0.0,0.0,0.0,0.0,0.0,1.9525,2.0306,2.1955,2.4639,2.5236,2.6818,2.9373,2.9882,3.0458,3.1188,3.1387,3.1375,3.1133,2.9982,2.951,2.9475,2.8038,2.752,2.761,2.752,0.0,0.0,0.0,0.0,0.0,0.0,0.0,0.0,3.133,3.2282,3.3182,3.3638,0.0,0.0,0.0,0.0,0.0,3.6568,3.7646,3.8816,3.937,4.057,4.1586,4.1586,4.3002,4.4264,4.4264,4.5341,4.6449,4.7034,4.7865,4.9066,5.0913,5.3899,5.6392,5.7592,6.0024,6.1933,6.2733,6.3933,6.4764,6.4888,6.4888,6.4888,6.4888,6.4888,6.4888,6.4888,6.4888,6.4888,6.4888,6.4888,6.4888,6.4888,6.4888,6.4888,6.4888,6.4888,6.4888,6.4888,6.5011,6.5688,6.6765,6.6981,6.772,6.8735,6.8828,6.8889,6.8889,6.8889,6.8889,6.8889,6.8889,6.8889,6.8889,0.0,0.0,0.0,0.0,0.0,0.0,0.0,0.0,0.0,0.0,0.0,0.0,0.0,0.0,0.0,0.0,0.0,0.0,0.0,0.0,1.9821,2.1095,2.2081,2.3501,2.554,2.6762,2.8429,3.0608,3.1177,3.1762,3.2438,3.2094,3.1961,3.1932,3.0656,2.9894,2.9535,2.8547,2.7919,2.761,0.0,0.0,0.0,0.0,0.0,0.0,0.0,0.0,0.0,0.0,3.2105,3.3002,3.3487,0.0,0.0,0.0,0.0,0.0,3.6875,3.8015,3.9216,3.9893,4.1124,4.2325,4.3063,4.4202,4.5218,4.5588,4.6449,4.7342,4.8019,4.9004,5.0636,5.3406,5.5807,5.7808,5.9193,6.1101,6.261,6.3287,6.4272,6.4888,6.4888,6.4888,6.4888,6.4888,6.4888,6.4888,6.4888,6.4888,6.4888,6.4888,6.4888,6.4888,6.4888,6.4888,6.4888,6.4888,6.4888,6.4888,6.4918,6.5288,6.5965,6.695,6.7289,6.7997,6.8889,6.8889,6.8889,6.8889,6.8889,6.8889,6.8889,6.8889,6.8889,6.8889,0.0,0.0,0.0,0.0,0.0,0.0,0.0,0.0,0.0,0.0,0.0,0.0,0.0,0.0,0.0,0.0,0.0,0.0,0.0,1.8986,2.0107,2.2424,2.3845,2.5163,2.64,2.8188,3.0034,3.1911,3.2549,3.3175,3.3699,3.2999,3.2645,3.2557,3.1159,3.0163,2.9535,2.8876,2.8188,2.761,0.0,0.0,0.0,0.0,0.0,0.0,0.0,0.0,0.0,0.0,0.0,0.0,0.0,0.0,0.0,3.573,3.61,3.6348,3.7244,3.8442,3.9702,4.0755,4.2048,4.334,4.4356,4.5341,4.6265,4.6942,4.7619,4.8358,4.9189,5.0728,5.276,5.5499,5.7377,5.9008,6.0578,6.2086,6.3256,6.3779,6.4457,6.4888,6.4888,6.4888,6.4888,6.4888,6.4888,6.4888,6.4888,6.4888,6.4888,6.4888,6.4888,6.4888,6.4888,6.4888,6.4888,6.4888,6.4888,6.4888,6.4918,6.5442,6.6119,6.695,6.7473,6.815,6.8889,6.8889,6.8889,6.8889,6.8889,6.8889,6.8889,6.8889,6.8889,6.8889,0.0,0.0,0.0,0.0,0.0,0.0,0.0,0.0,0.0,0.0,0.0,0.0,0.0,0.0,0.0,0.0,0.0,0.0,0.0,1.9337,2.0662,2.2909,2.4759,2.6301,2.7651,2.942,3.1352,3.3362,3.3937,3.4581,3.5329,3.3988,3.3423,3.3333,3.139,3.0163,2.9535,2.8876,2.8188,2.761,2.761,0.0,0.0,0.0,0.0,0.0,0.0,0.0,0.0,0.0,0.0,0.0,0.0,0.0,3.4304,3.5609,3.6037,3.6252,3.7244,3.8376,3.9811,4.1884,4.3464,4.4449,4.4541,4.608,4.765,4.8327,4.9035,4.9928,5.1251,5.3591,5.5622,5.6546,5.8885,6.064,6.0763,6.2517,6.3779,6.381,6.4457,6.4888,6.4888,6.4888,6.4888,6.4888,6.4888,6.4888,6.4888,6.4888,6.4888,6.4888,6.4888,6.4888,6.4888,6.4888,6.4888,6.4888,6.4888,6.4888,6.4888,6.4949,6.5688,6.6919,6.6981,6.772,6.8889,6.8889,6.8889,6.8889,6.8889,6.8889,6.8889,6.8889,6.8889,6.8889,0.0,0.0,0.0,0.0,0.0,0.0,0.0,0.0,0.0,0.0,0.0,0.0,0.0,0.0,0.0,0.0,0.0,0.0,0.0,2.0133,2.1254,2.396,2.5609,2.7018,2.8311,3.0553,3.2319,3.3484,3.4545,3.4971,3.4743,3.4312,3.3873,3.3455,3.2287,3.115,3.0133,2.9894,2.9175,2.8218,2.8218,2.7949,0.0,0.0,0.0,0.0,0.0,0.0,0.0,0.0,3.0728,3.1267,3.2946,3.3698,3.4152,3.5579,3.631,3.7018,3.8381,4.0009,4.1761,4.3433,4.5464,4.7096,4.7096,4.7681,4.8543,4.9682,5.0451,5.159,5.3775,5.5376,5.6854,5.8393,5.987,6.1101,6.1933,6.3071,6.3995,6.4426,6.4734,6.4888,6.4888,6.4888,6.4888,6.4888,6.4888,6.4888,6.4888,6.4888,6.4888,6.4888,6.4888,6.4888,6.4888,6.4888,6.4888,6.4888,6.4888,6.4888,6.4888,6.4888,6.5411,6.6304,6.6735,6.7442,6.8304,6.8735,6.8889,6.8889,6.8889,6.8889,6.8889,6.8889,6.8889,6.8889,0.0,0.0,0.0,0.0,0.0,0.0,0.0,0.0,0.0,0.0,0.0,0.0,0.0,0.0,0.0,0.0,0.0,0.0,2.1053,2.0626,2.1741,2.4916,2.6163,2.753,2.9013,3.1307,3.2815,3.3484,3.4831,3.5198,3.4647,3.4371,3.3933,3.3455,3.2587,3.1569,3.0492,3.0492,2.9774,2.8607,2.8607,2.8188,0.0,0.0,0.0,0.0,0.0,0.0,0.0,0.0,3.0342,3.0851,3.2856,3.3637,3.4091,3.5579,3.6493,3.738,3.9087,4.0962,4.2794,4.451,4.6757,4.8789,4.9435,4.9589,4.9928,5.1097,5.239,5.3929,5.5961,5.71,5.8239,5.9839,6.0855,6.184,6.2979,6.3718,6.4334,6.4826,6.4888,6.4888,6.4888,6.4888,6.4888,6.4888,6.4888,6.4888,6.4888,6.4888,6.4888,6.4888,6.4888,6.4888,6.4888,6.4888,6.4888,6.4888,6.4888,6.4888,6.4888,6.4888,6.5257,6.5934,6.6611,6.7289,6.7966,6.8612,6.8889,6.8889,6.8889,6.8889,6.8889,6.8889,6.8889,6.8889,0.0,0.0,0.0,0.0,0.0,0.0,0.0,0.0,0.0,0.0,0.0,0.0,0.0,0.0,0.0,0.0,0.0,0.0,2.1094,2.071,2.2048,2.565,2.6465,2.7741,2.9726,3.1567,3.2826,3.3514,3.4861,3.5519,3.5489,3.4143,3.3514,3.3425,3.2138,3.115,3.0522,3.0522,2.9774,2.8607,2.8607,2.8188,2.761,0.0,0.0,0.0,0.0,0.0,0.0,0.0,2.9983,3.0851,3.2856,3.3637,3.4091,3.5579,3.633,3.7147,3.902,4.072,4.2589,4.5018,4.7127,4.9158,5.1251,5.1713,5.1898,5.2606,5.4884,5.6977,5.7654,5.8885,6.0024,6.0701,6.1933,6.3041,6.3718,6.4426,6.4888,6.4888,6.4888,6.4888,6.4888,6.4888,6.4888,6.4888,6.4888,6.4888,6.4888,6.4888,6.4888,6.4888,6.4888,6.4888,6.4888,6.4888,6.4888,6.4888,6.4888,6.4888,6.4888,6.4888,6.5257,6.5934,6.6611,6.7289,6.7966,6.8612,6.8889,6.8889,6.8889,6.8889,6.8889,6.8889,6.8889,6.8889,0.0,0.0,0.0,0.0,0.0,0.0,0.0,0.0,0.0,0.0,0.0,0.0,0.0,0.0,0.0,0.0,0.0,0.0,2.1654,2.1595,2.2832,2.5681,2.6519,2.7891,2.991,3.1853,3.3306,3.4173,3.507,3.5519,3.5489,3.4592,3.3933,3.3455,3.2587,3.1839,3.121,3.121,3.0492,2.9295,2.9295,2.8607,2.761,0.0,0.0,0.0,0.0,0.0,0.0,0.0,0.0,0.0,3.2736,3.3637,3.4091,3.5579,3.6858,3.8177,3.9794,4.2007,4.4205,4.5895,4.8204,5.0359,5.1467,5.2082,5.3006,5.513,5.6207,5.7254,5.8885,5.9532,6.0178,6.1317,6.224,6.3041,6.3718,6.4426,6.4888,6.4888,6.4888,6.4888,6.4888,6.4888,6.4888,6.4888,6.4888,6.4888,6.4888,6.4888,6.4888,6.4888,6.4888,6.4888,6.4888,6.4888,6.4888,6.4888,6.4888,6.4888,6.4888,6.4888,6.5011,6.5257,6.6396,6.7042,6.7289,6.8427,6.8889,6.8889,6.8889,6.8889,6.8889,6.8889,6.8889,6.8889,0.0,0.0,0.0,0.0,0.0,0.0,0.0,0.0,1.9139,1.895,1.9288,1.9398,0.0,0.0,0.0,1.9624,1.966,2.0339,2.1926,2.2017,2.3071,2.5455,2.6455,2.791,2.9856,3.1581,3.2734,3.3305,3.4358,3.4808,3.4681,3.4055,3.3546,3.3066,3.2407,3.1898,3.1482,3.1482,3.0791,2.9702,2.9648,2.8839,2.769,0.0,0.0,0.0,0.0,0.0,0.0,0.0,0.0,0.0,3.2048,3.3216,3.403,3.512,3.6797,3.8544,4.037,4.2579,4.4957,4.6942,4.9066,5.1067,5.2575,5.3652,5.4945,5.71,5.7777,5.8423,5.9901,6.0393,6.0948,6.2025,6.2764,6.3472,6.4149,6.4641,6.4888,6.4888,6.4888,6.4888,6.4888,6.4888,6.4888,6.4888,6.4888,6.4888,6.4888,6.4888,6.4888,6.4888,6.4888,6.4888,6.4888,6.4888,6.4888,6.4888,6.5165,6.5288,6.5288,6.5288,6.5288,6.5349,6.6457,6.7227,6.775,6.8551,6.8889,6.8889,6.8889,6.8889,6.8889,6.8889,6.8889,6.8889,0.0,0.0,0.0,0.0,0.0,0.0,0.0,1.9501,1.9501,1.9435,1.966,1.9732,0.0,0.0,0.0,1.9874,2.0015,2.0666,2.195,2.2026,2.294,2.5007,2.6412,2.791,2.9652,3.0895,3.1531,3.145,3.3094,3.3759,3.3484,3.2916,3.2616,3.2497,3.1839,3.1539,3.1539,3.1539,3.0934,2.99,2.9702,2.8922,2.7831,2.764,0.0,0.0,0.0,0.0,0.0,0.0,0.0,0.0,3.112,3.2556,3.3879,3.4512,3.6269,3.853,4.0751,4.2812,4.5017,4.7845,4.9805,5.1652,5.4299,5.5961,5.7285,5.8516,5.9316,5.9993,6.0671,6.1348,6.2025,6.2702,6.3379,6.4087,6.4795,6.4888,6.4888,6.4888,6.4888,6.4888,6.4888,6.4888,6.4888,6.4888,6.4888,6.4888,6.4888,6.4888,6.4888,6.4888,6.4888,6.4888,6.4888,6.4888,6.4918,6.5011,6.5626,6.5965,6.6088,6.6027,6.6027,6.6119,6.6735,6.772,6.8889,6.8889,6.8889,6.8889,6.8889,6.8889,6.8889,6.8889,6.8889,6.8889,0.0,0.0,0.0,0.0,0.0,0.0,2.0111,2.0111,2.001,1.9732,1.998,2.008,1.9732,2.008,0.0,2.0185,2.022,2.0558,2.1277,2.1903,2.2885,2.4376,2.6811,2.8235,2.8514,2.9959,3.0853,3.1097,3.2883,3.3668,3.3484,3.2916,3.2675,3.2645,3.2013,3.1769,3.1883,3.1883,3.1399,3.0503,2.9991,2.9245,2.8389,2.782,2.761,0.0,0.0,0.0,0.0,0.0,0.0,0.0,3.112,3.2556,3.394,3.4728,3.6462,3.8702,4.0962,4.299,4.5141,4.7927,5.0851,5.3652,5.5838,5.7377,5.8423,5.8731,5.9316,5.9993,6.0671,6.1348,6.2025,6.2702,6.3379,6.4087,6.4795,6.4888,6.4888,6.4888,6.4888,6.4888,6.4888,6.4888,6.4888,6.4888,6.4888,6.4888,6.4888,6.4888,6.4888,6.4888,6.4888,6.4888,6.4888,6.4888,6.5165,6.5688,6.5842,6.6457,6.7473,6.695,6.6981,6.7504,6.7658,6.815,6.8889,6.8889,6.8889,6.8889,6.8889,6.8889,6.8889,6.8889,6.8889,6.8889,0.0,0.0,0.0,0.0,0.0,0.0,0.0,0.0,2.022,2.008,2.0185,2.022,2.008,2.0185,0.0,0.0,2.022,2.0492,2.1136,2.1842,2.2977,2.4664,2.612,2.7042,2.7208,2.8602,2.9409,2.9568,3.1541,3.2579,3.2794,3.2549,3.2425,3.2367,3.2034,3.194,3.1996,3.1996,3.1602,3.0934,3.0546,2.9947,2.9342,2.8897,2.8776,2.8776,2.8776,0.0,0.0,0.0,0.0,0.0,0.0,0.0,3.394,3.4212,3.6219,3.8836,4.0791,4.2886,4.5403,4.8758,5.1682,5.4176,5.5869,5.7562,5.8885,5.9193,5.9809,6.0486,6.1163,6.184,6.2517,6.3195,6.3872,6.4457,6.4857,6.4888,6.4888,6.4888,6.4888,6.4888,6.4888,6.4888,6.4888,6.4888,6.4888,6.4888,6.4888,6.4888,6.4888,6.4888,6.4888,6.4888,6.4888,6.5226,6.5565,6.5903,6.655,6.7412,6.8366,6.7689,6.775,6.8366,6.8058,6.8304,6.8889,6.8889,6.8889,6.8889,6.8889,6.8889,6.8889,6.8889,6.8889,6.8889,0.0,0.0,0.0,0.0,0.0,0.0,0.0,0.0,0.0,2.032,2.032,2.032,2.032,2.032,2.032,0.0,0.0,0.0,2.1055,2.1818,2.3069,2.5056,2.5241,2.5536,2.603,2.7377,2.8064,2.8069,3.0112,3.1365,3.187,3.2074,3.2135,3.2053,3.2175,3.2205,3.2292,3.2414,3.2196,3.1702,3.15,3.1104,3.064,3.0464,3.035,3.0296,3.0175,2.9675,2.9117,2.8996,0.0,0.0,0.0,0.0,3.391,3.3607,3.5791,3.8719,4.0365,4.2965,4.6018,4.9812,5.2298,5.4114,5.5592,5.7408,5.8978,5.9655,6.0332,6.1009,6.1686,6.2364,6.3041,6.3718,6.4426,6.4888,6.4888,6.4888,6.4888,6.4888,6.4888,6.4888,6.4888,6.4888,6.4888,6.4888,6.4888,6.4888,6.4888,6.4888,6.4888,6.4888,6.4888,6.4888,6.4888,6.5565,6.5965,6.6088,6.7442,6.8366,6.8858,6.8335,6.8397,6.8858,6.8304,6.8397,6.8889,6.8889,6.8889,6.8889,6.8889,6.8889,6.8889,6.8889,6.8889,6.8889,0.0,0.0,0.0,0.0,0.0,0.0,0.0,0.0,0.0,0.0,2.032,2.032,2.032,2.032,2.032,2.032,2.0254,2.0316,2.0443,0.0,0.0,2.4379,2.4995,2.5364,2.5413,2.6765,2.7779,2.8363,2.9807,3.0821,3.1497,3.1971,3.2191,3.2221,3.2802,3.3104,3.3249,3.3863,3.402,3.375,3.3169,3.2779,3.257,3.1962,3.1693,3.1464,3.089,3.0618,3.0358,2.9678,2.9973,0.0,0.0,0.0,3.4,3.3819,3.5613,3.8012,3.9933,4.3714,4.7814,5.0529,5.2457,5.4237,5.6176,5.7746,5.8978,5.9655,6.0332,6.1009,6.1686,6.2364,6.3041,6.3718,6.4426,6.4888,6.4888,6.4888,6.4888,6.4888,6.4888,6.4888,6.4888,6.4888,6.4888,6.4888,6.4888,6.4888,6.4888,6.4888,6.4888,6.4888,6.4888,6.4888,6.4888,6.5565,6.6211,6.6796,6.812,6.8797,6.8889,6.8797,6.8797,6.8889,6.8797,6.8797,6.8889,6.8889,6.8889,6.8889,6.8889,6.8889,6.8889,6.8889,6.8889,6.8889,0.0,0.0,0.0,0.0,0.0,0.0,0.0,0.0,0.0,0.0,0.0,2.032,2.032,2.032,2.032,2.032,2.032,2.0474,2.0844,2.1732,2.2717,2.3702,2.4379,2.4748,2.4748,2.6103,2.6965,2.7242,2.8996,3.0197,3.0843,3.1467,3.1934,3.2333,3.3008,3.3341,3.346,3.4168,3.4475,3.4355,3.4079,3.3897,3.3808,3.3502,3.338,3.3291,3.3016,3.2536,3.1996,3.1218,3.1132,3.1227,3.0809,0.0,0.0,0.0,3.5278,3.7517,4.0607,4.3867,4.6954,4.912,5.1107,5.3129,5.5161,5.6977,5.8516,5.9562,6.0332,6.1132,6.2179,6.261,6.3164,6.4241,6.4703,6.4888,6.4888,6.4888,6.4888,6.4888,6.4888,6.4888,6.4888,6.4888,6.4888,6.4888,6.4888,6.4888,6.4888,6.4888,6.4888,6.4888,6.4888,6.5072,6.5472,6.615,6.6981,6.8027,6.8612,6.8889,6.8889,6.8889,6.8889,6.8889,6.8889,6.8889,6.8889,6.8889,6.8889,6.8889,6.8889,6.8889,6.8889,6.8889,6.8889,6.8889,0.0,0.0,0.0,0.0,0.0,0.0,0.0,0.0,0.0,0.0,0.0,2.032,2.032,0.0,0.0,0.0,2.032,2.0597,2.1275,2.18,2.2347,2.3025,2.3702,2.404,2.404,2.5395,2.6195,2.6273,2.8227,2.9581,3.0443,3.1089,3.1736,3.2413,3.309,3.349,3.3737,3.4445,3.4814,3.4999,3.4999,3.4999,3.4999,3.4999,3.5091,3.5123,3.4785,3.4388,3.3783,3.2844,3.2425,3.2246,3.1581,3.2186,0.0,0.0,0.0,3.7266,4.0812,4.3254,4.5325,4.7528,4.9604,5.1713,5.3745,5.5807,5.7654,5.9008,5.9963,6.0948,6.2302,6.2702,6.3287,6.4672,6.4888,6.4888,6.4888,6.4888,6.4888,6.4888,6.4888,6.4888,6.4888,6.4888,6.4888,6.4888,6.4888,6.4888,6.4888,6.4888,6.4888,6.4888,6.4888,6.5226,6.5903,6.6735,6.775,6.8889,6.8889,6.8889,6.8889,6.8889,6.8889,6.8889,6.8889,6.8889,6.8889,6.8889,6.8889,6.8889,6.8889,6.8889,6.8889,6.8889,6.8889,6.8889,0.0,0.0,0.0,0.0,0.0,0.0,0.0,0.0,0.0,0.0,0.0,2.032,2.032,2.032,2.032,2.032,2.032,2.0597,2.1275,2.1301,2.1639,2.2317,2.2994,0.0,2.3363,2.4687,2.5672,2.6273,2.7765,2.9119,3.0443,3.1089,3.1736,3.2413,3.309,3.3767,3.4475,3.5153,3.5799,3.6384,3.6384,3.6384,3.6384,3.6384,3.6628,3.6868,3.5615,3.5492,3.5672,3.4334,3.3879,3.3757,3.3089,3.348,3.4088,0.0,0.0,0.0,3.9703,4.1536,4.3482,4.6609,4.8561,5.0328,5.2359,5.4391,5.6238,5.7592,5.8916,6.024,6.1594,6.2394,6.3287,6.4672,6.4888,6.4888,6.4888,6.4888,6.4888,6.4888,6.4888,6.4888,6.4888,6.4888,6.4888,6.4888,6.4888,6.4888,6.4888,6.4888,6.4888,6.4888,6.4888,6.5226,6.5903,6.7227,6.8212,6.8889,6.8889,6.8889,6.8889,6.8889,6.8889,6.8889,6.8889,6.8889,6.8889,6.8889,6.8889,6.8889,6.8889,6.8889,6.8889,6.8889,6.8889,6.8889,0.0,0.0,0.0,0.0,0.0,0.0,0.0,0.0,0.0,0.0,0.0,0.0,0.0,2.1578,2.1578,2.1578,2.1214,2.106,2.127,2.1306,2.1393,2.1639,2.2286,2.284,2.3302,2.4194,2.521,2.6273,2.7303,2.8442,2.9797,3.0443,3.112,3.1797,3.2906,3.3798,3.4506,3.5183,3.5861,3.6507,3.6507,3.6753,3.7123,3.7123,3.7766,3.8591,3.81,3.81,3.8034,3.6624,3.5827,3.5278,3.4149,3.3907,3.4181,3.4607,3.6044,3.7609,3.8672,4.0431,4.2375,4.4282,4.6536,4.8881,5.0944,5.3314,5.5468,5.6854,5.8547,6.0086,6.0978,6.2086,6.3133,6.4057,6.4611,6.4888,6.4888,6.4888,6.4888,6.4888,6.4888,6.4888,6.4888,6.4888,6.4888,6.4888,6.4888,6.4888,6.4888,6.4888,6.4888,6.4888,6.4888,6.5442,6.655,6.7473,6.8243,6.8889,6.8889,6.8889,6.8889,6.8889,6.8889,6.8889,6.8889,6.8889,6.8889,6.8889,6.8889,6.8889,6.8889,6.8889,6.8889,6.8889,6.8889,6.8889,0.0,0.0,0.0,0.0,0.0,0.0,0.0,0.0,2.1793,2.2224,0.0,0.0,0.0,0.0,2.2286,2.2286,2.1886,2.1609,2.1609,2.1609,2.1553,2.1337,2.2163,2.2717,2.2963,2.3856,2.4872,2.5935,2.6718,2.7734,2.9089,2.9766,3.0535,3.1428,3.2321,3.3367,3.4506,3.4968,3.5799,3.6846,3.6846,3.7369,3.82,3.8446,3.937,4.057,4.057,4.057,4.0355,3.8867,3.7947,3.7118,3.5523,3.4728,3.4576,3.5156,3.6199,3.7307,3.7789,3.9388,4.1208,4.2702,4.5018,4.7465,4.9528,5.1929,5.4114,5.5468,5.7346,5.9039,5.9963,6.1225,6.2517,6.3656,6.4426,6.4888,6.4888,6.4888,6.4888,6.4888,6.4888,6.4888,6.4888,6.4888,6.4888,6.4888,6.4888,6.4888,6.4888,6.4888,6.4888,6.4888,6.5103,6.578,6.6919,6.7596,6.8243,6.8889,6.8889,6.8889,6.8889,6.8889,6.8889,6.8889,6.8889,6.8889,6.8889,6.8889,6.8889,6.8889,6.8889,6.8889,6.8889,6.8889,6.8889,6.8889,0.0,0.0,0.0,0.0,0.0,0.0,2.2347,2.2378,2.2378,2.2409,0.0,0.0,0.0,0.0,0.0,2.2378,2.2347,2.2347,2.2317,2.2286,2.2009,2.1368,2.2563,2.2963,2.2317,2.3609,2.4625,2.5302,2.6041,2.7057,2.8381,2.9089,3.0104,3.1366,3.1366,3.2536,3.4475,3.4475,3.5645,3.7492,3.7523,3.8354,3.9647,4.0324,4.1463,4.2694,4.2694,4.2694,4.2479,4.1124,4.0201,3.9247,3.7184,3.6076,3.5553,3.5522,3.5984,3.663,0.0,0.0,0.0,4.1986,4.4018,4.6049,4.8081,5.0174,5.2021,5.3375,5.5284,5.71,5.8423,5.9809,6.1379,6.341,6.4364,6.4857,6.4857,6.4888,6.4888,6.4888,6.4888,6.4888,6.4888,6.4888,6.4888,6.4888,6.4888,6.4888,6.4888,6.4888,6.4888,6.4888,6.5534,6.6211,6.6919,6.7566,6.8243,6.8889,6.8889,6.8889,6.8889,6.8889,6.8889,6.8889,6.8889,6.8889,6.8889,6.8889,6.8889,6.8889,6.8889,6.8889,6.8889,6.8889,6.8889,6.8889,0.0,0.0,0.0,0.0,0.0,2.3179,2.3671,2.4164,2.4656,0.0,0.0,0.0,2.5241,2.521,2.5025,2.4533,2.404,2.3548,2.3055,2.2563,2.2194,2.2009,2.2378,2.2717,2.3025,2.3394,2.4133,2.5302,2.6041,2.6842,2.7703,2.8873,2.9889,3.072,3.1182,3.2536,3.4475,3.4475,3.5645,3.7554,3.8046,3.9339,4.1093,4.1771,4.3156,4.4756,4.4756,4.4756,4.4633,4.3741,4.2694,4.1309,3.8754,3.7492,3.6846,3.6353,3.6353,3.6538,3.6722,0.0,0.0,0.0,0.0,0.0,4.6573,4.8758,5.0636,5.199,5.3868,5.5561,5.6392,5.8085,5.9839,6.1379,6.3041,6.4118,6.4118,6.458,6.4888,6.4888,6.4888,6.4888,6.4888,6.4888,6.4888,6.4888,6.4888,6.4888,6.4888,6.4888,6.4888,6.4888,6.5072,6.575,6.6919,6.7104,6.775,6.8889,6.8889,6.8889,6.8889,6.8889,6.8889,6.8889,6.8889,6.8889,6.8889,6.8889,6.8889,6.8889,6.8889,6.8889,6.8889,6.8889,6.8889,6.8889,0.0,0.0,2.2809,2.3086,2.3702,2.4379,2.5056,2.5764,2.6318,0.0,0.0,0.0,2.7242,2.7211,2.6934,2.6226,2.5826,2.5302,2.4625,2.3948,2.3425,2.3148,2.3117,2.3179,2.3302,2.3579,2.4102,2.4902,2.558,2.6287,2.6995,2.8073,2.9243,3.0443,3.1089,3.2536,3.4506,3.5091,3.6322,3.7984,3.8662,4.0324,4.254,4.3494,4.5095,4.688,4.7188,4.7096,4.6757,4.608,4.4387,4.2263,4.0385,3.8939,3.78,3.7123,3.6722,3.6507,3.6507,3.6999,3.7831,3.9185,0.0,0.0,4.5218,4.7342,4.9127,5.0205,5.2052,5.3745,5.4699,5.6084,5.7531,5.8885,6.0578,6.2117,6.3256,6.3995,6.4457,6.4457,6.4703,6.4888,6.4888,6.4888,6.4888,6.4888,6.4888,6.4888,6.4888,6.4888,6.4888,6.4888,6.4888,6.5411,6.6488,6.6765,6.7442,6.8489,6.8766,6.8889,6.8889,6.8889,6.8889,6.8889,6.8889,6.8889,6.8889,6.8889,6.8889,6.8889,6.8889,6.8889,6.8889,6.8889,6.8889,6.8889,0.0,2.3072,2.3702,2.4359,2.5118,2.5887,2.6503,2.7242,2.7734,0.0,2.8319,2.875,2.875,2.8812,2.8535,2.7796,2.7734,2.7426,2.6657,2.5949,2.5272,2.4687,2.4502,2.4133,2.3548,2.404,2.4317,2.4317,2.4995,2.5672,2.638,2.7088,2.8473,3.0443,3.1089,3.2536,3.4627,3.6044,3.7434,3.8824,3.9524,4.1503,4.4106,4.5449,4.7096,4.885,4.962,4.9435,4.8727,4.7958,4.568,4.3002,4.2109,4.0447,3.8692,3.7954,3.7246,3.6692,3.663,3.7061,3.78,3.9,4.0355,0.0,4.3802,4.5803,4.7465,4.8142,4.9928,5.1744,5.3037,5.3899,5.4853,5.6207,5.7438,5.9193,6.1994,6.3071,6.3595,6.3595,6.4241,6.4703,6.4764,6.4764,6.4826,6.4888,6.4888,6.4888,6.4888,6.4888,6.4888,6.4888,6.4888,6.5226,6.5903,6.6581,6.7258,6.7935,6.8581,6.8889,6.8889,6.8889,6.8889,6.8889,6.8889,6.8889,6.8889,6.8889,6.8889,6.8889,6.8889,6.8889,6.8889,6.8889,6.8889,6.8889,2.4007,2.4524,2.5049,2.5519,2.682,2.7857,2.798,2.9058,2.9827,2.9827,3.0412,3.0812,3.0812,3.1305,3.112,2.995,2.9827,2.9304,2.8104,2.7365,2.6934,2.6811,2.5703,2.5056,2.4933,2.4533,2.4317,2.4317,2.4995,2.5672,2.6349,2.7057,2.8473,3.0443,3.1089,3.2536,3.4627,3.6523,3.8462,4.0322,4.1527,4.3614,4.6253,4.7521,4.8635,4.9651,5.0882,5.0882,5.0112,4.885,4.7619,4.6234,4.3895,4.2171,4.0755,3.9493,3.8631,3.7984,3.7461,3.74,3.7554,3.7831,3.8908,0.0,4.1832,4.3741,4.5372,4.6049,4.7804,4.9466,5.0328,5.1467,5.2729,5.4083,5.4545,5.5838,5.9101,6.1101,6.221,6.221,6.2794,6.3441,6.3964,6.4026,6.4272,6.4857,6.4888,6.4888,6.4888,6.4888,6.4888,6.4888,6.4888,6.5226,6.5903,6.6581,6.7258,6.7935,6.8581,6.8889,6.8889,6.8889,6.8889,6.8889,6.8889,6.8889,6.8889,6.8889,6.8889,6.8889,6.8889,6.8889,6.8889,6.8889,6.8889,6.8889,2.5163,2.5512,2.5904,2.6548,2.7628,2.8504,2.8873,3.0043,3.1028,3.1366,3.229,3.2936,3.2936,3.3244,3.3029,3.2013,3.1921,3.149,3.0474,2.9458,2.875,2.8411,2.7088,2.6195,2.5857,2.5746,2.5404,2.481,2.5746,2.6373,2.6748,2.7779,2.9185,3.0853,3.251,3.4116,3.5649,3.8348,4.0913,4.3199,4.3163,4.4548,4.6811,4.8128,4.977,5.1528,5.2559,5.2941,5.2891,5.1815,5.0549,4.9015,4.6899,4.5059,4.3363,4.1604,4.0324,3.937,3.8692,3.8262,3.8077,3.8415,3.9,0.0,0.0,4.2633,4.3771,4.4449,4.5926,4.7311,4.8019,4.9251,5.0513,5.1528,5.2267,5.3314,5.5007,5.7592,5.9532,6.0209,6.0886,6.1717,6.2733,6.2825,6.3256,6.4272,6.4364,6.4518,6.4888,6.4888,6.4888,6.4888,6.4888,6.5072,6.5411,6.6088,6.6765,6.7442,6.8089,6.8581,6.8889,6.8889,6.8889,6.8889,6.8889,6.8889,6.8889,6.8889,6.8889,6.8889,6.8889,6.8889,6.8889,6.8889,6.8889,6.8889,2.6315,2.6398,2.6735,2.7807,2.8513,2.9193,2.9974,3.1166,3.2261,3.3042,3.4249,3.5084,3.5089,3.5183,3.4968,3.426,3.4075,3.3706,3.3029,3.1736,3.0689,3.0012,2.8786,2.7721,2.678,2.7217,2.6862,2.5648,2.6735,2.7296,2.7455,2.8729,3.0084,3.1593,3.4078,3.5819,3.7068,4.0448,4.3465,4.5844,4.5301,4.6127,4.7935,4.9202,5.1328,5.37,5.4444,5.5397,5.6075,5.515,5.3591,5.175,5.0269,4.8349,4.6262,4.4413,4.2856,4.1579,4.0769,4.0053,3.9586,3.98,3.9827,4.0003,0.0,0.0,0.0,4.3094,4.4264,4.5434,4.6265,4.7281,4.8235,4.8789,4.9928,5.0667,5.0543,5.3221,5.5899,5.7777,5.8608,5.9593,6.1071,6.1563,6.2271,6.3349,6.3687,6.4087,6.4672,6.4826,6.4888,6.4888,6.4888,6.4888,6.4888,6.5565,6.6242,6.6919,6.7596,6.8274,6.8889,6.8889,6.8889,6.8889,6.8889,6.8889,6.8889,6.8889,6.8889,6.8889,6.8889,6.8889,6.8889,6.8889,6.8889,6.8889,2.7803,2.7569,2.8053,2.9863,3.0491,3.1209,3.2401,3.338,3.4455,3.578,3.6573,3.7058,3.7155,3.7677,3.7769,3.7092,3.6476,3.5861,3.5183,3.3829,3.2752,3.2074,3.1217,2.9922,2.8196,2.8519,2.8072,2.6893,2.7419,2.8012,2.8628,2.9448,3.0862,3.2854,3.4507,3.6324,3.8432,4.188,4.4351,4.6138,4.9092,5.0801,5.1783,5.3156,5.4277,5.5295,5.6621,5.8,5.8864,5.6969,5.5621,5.468,5.335,5.1361,4.9451,4.8602,4.7373,4.595,4.469,4.3751,4.2911,4.1652,4.0864,4.0417,4.0574,0.0,4.174,4.1801,0.0,4.4172,4.5464,0.0,0.0,4.6049,4.6696,4.6973,4.6357,4.8173,5.0944,5.473,5.5776,5.6946,5.8947,6.0763,6.1871,6.2025,6.3133,6.3872,6.3933,6.4549,6.4888,6.4888,6.4888,6.4888,6.4888,6.5565,6.6242,6.6919,6.7596,6.8274,6.8889,6.8889,6.8889,6.8889,6.8889,6.8889,6.8889,6.8889,6.8889,6.8889,6.8889,6.8889,6.8889,6.8889,6.8889,6.8889,2.8482,2.8982,2.9758,3.0652,3.1575,3.253,3.3502,3.5388,3.703,3.8059,3.9151,3.9994,4.045,4.0801,4.0833,4.0546,4.0259,3.9782,3.9113,3.8125,3.6883,3.5354,3.4631,3.3251,3.115,3.1531,3.0947,2.9327,3.0228,3.0606,3.0507,3.2055,3.3228,3.4167,3.6854,3.8877,4.039,4.3948,4.6562,4.8606,5.1396,5.3442,5.4946,5.4927,5.6499,5.9004,6.0953,6.17,6.1733,6.0917,5.9518,5.793,5.6909,5.504,5.309,5.1922,5.0245,4.8556,4.7619,4.622,4.4788,4.3714,4.2868,4.2153,4.1304,4.1365,4.1494,4.1063,0.0,0.0,0.0,0.0,0.0,0.0,4.4972,4.5464,4.5557,4.6665,4.8666,5.199,5.2975,5.4176,5.6238,5.827,5.9778,6.0578,6.1902,6.301,6.3779,6.4518,6.4888,6.4888,6.4888,6.4888,6.4888,6.5165,6.5657,6.6334,6.7012,6.7689,6.8335,6.8705,6.8889,6.8889,6.8889,6.8889,6.8889,6.8889,6.8889,6.8889,6.8889,6.8889,6.8889,6.8889,6.8889,6.8889,2.9369,3.0205,3.1146,3.1626,3.2623,3.3728,3.5069,3.7498,3.9499,4.0467,4.1814,4.2929,4.352,4.3781,4.3878,4.3878,4.3716,4.339,4.2808,4.1992,4.0626,3.8641,3.7861,3.6359,3.4023,3.4405,3.3669,3.1765,3.2741,3.2827,3.2235,3.4163,3.5185,3.5518,3.8672,4.0927,4.2568,4.5732,4.8511,5.0913,5.3416,5.5987,5.8241,5.7608,5.9414,6.2598,6.4079,6.4377,6.4072,6.3869,6.2584,6.0917,6.0102,5.8508,5.6587,5.5325,5.3527,5.175,5.0829,4.9151,4.7406,4.6507,4.552,4.4605,4.3579,4.305,4.2591,4.1852,4.1814,0.0,0.0,0.0,4.3033,4.3033,0.0,4.4079,4.4202,4.5095,4.6788,4.9528,5.079,5.2082,5.3745,5.5745,5.75,5.8854,6.0393,6.184,6.3195,6.4118,6.4703,6.4888,6.4888,6.4888,6.4888,6.4888,6.5226,6.5903,6.6581,6.7258,6.7935,6.8581,6.8889,6.8889,6.8889,6.8889,6.8889,6.8889,6.8889,6.8889,6.8889,6.8889,6.8889,6.8889,6.8889,6.8889,3.0938,3.1102,3.1905,3.3284,3.3792,3.5044,3.7853,3.99,4.1648,4.319,4.4721,4.5725,4.5765,4.6448,4.6871,4.6871,4.6253,4.5896,4.5896,4.4561,4.3127,4.1629,4.0687,3.8962,3.6352,3.6567,3.5698,3.3736,3.4219,3.41,3.3347,3.4868,3.5982,3.684,3.9106,4.1745,4.4654,4.6921,4.956,5.2503,5.548,5.8896,6.2212,6.2167,6.3552,6.5493,6.485,6.5019,6.5493,6.4816,6.4038,6.326,6.255,6.1231,5.9768,5.9025,5.7775,5.6254,5.4801,5.3281,5.1761,5.0308,4.8919,4.7835,4.7802,4.6716,4.5527,4.4802,4.3585,4.2805,4.3395,4.2509,4.1648,4.1648,4.2232,0.0,0.0,4.2417,4.4664,4.7373,4.9497,5.1005,5.1744,5.3652,5.5376,5.6761,5.8731,6.0455,6.1809,6.3133,6.418,6.4888,6.4888,6.4888,6.4888,6.4888,6.5226,6.5903,6.6581,6.7258,6.7935,6.8581,6.8889,6.8889,6.8889,6.8889,6.8889,6.8889,6.8889,6.8889,6.8889,6.8889,6.8889,6.8889,6.8889,6.8889,3.3041,3.3485,3.3922,3.3836,3.4661,3.6197,3.8696,4.1308,4.3464,4.4913,4.681,4.8231,4.862,4.9324,4.9758,4.9758,4.9525,4.9256,4.8754,4.8253,4.7316,4.5878,4.5052,4.3474,4.1063,4.0171,3.8922,3.7259,3.6882,3.6637,3.64,3.7381,3.8261,3.9073,4.1305,4.3707,4.621,4.8951,5.1522,5.416,5.8186,6.1434,6.3802,6.3328,6.4208,6.573,6.5967,6.6237,6.6406,6.6136,6.5561,6.4918,6.4647,6.3565,6.2212,6.1467,6.0182,5.8761,5.778,5.6055,5.4158,5.2702,5.1225,4.9722,4.8357,4.759,4.7091,4.6431,4.5491,4.4908,4.5117,4.3926,4.2868,4.2428,4.2071,4.1554,0.0,4.1524,4.294,0.0,0.0,0.0,0.0,0.0,5.396,5.5315,5.7315,5.9255,6.104,6.2425,6.3472,6.418,6.4641,6.4888,6.4888,6.4888,6.5011,6.5257,6.5934,6.6611,6.7289,6.7935,6.8489,6.8889,6.8889,6.8889,6.8889,6.8889,6.8889,6.8889,6.8889,6.8889,6.8889,6.8889,6.8889,6.8889,3.4145,3.4663,3.5001,3.4404,3.5925,3.8003,4.0309,4.2911,4.5192,4.685,4.8727,5.0294,5.1183,5.1961,5.2536,5.2807,5.2807,5.2604,5.2131,5.186,5.1014,4.956,4.8511,4.6921,4.4654,4.3166,4.1542,3.9783,3.9039,3.843,3.7922,3.8633,3.9377,4.0223,4.2422,4.4823,4.7361,5.0067,5.2841,5.575,5.9979,6.3159,6.5324,6.485,6.5425,6.6576,6.7354,6.7624,6.7624,6.7624,6.7286,6.6846,6.6576,6.5662,6.4546,6.3768,6.2482,6.1095,6.0114,5.8592,5.6892,5.5453,5.4138,5.2827,5.1442,5.0707,5.0043,4.9112,4.8125,4.7272,4.6741,4.5471,4.4464,4.4257,4.3131,4.1942,0.0,4.1264,0.0,0.0,0.0,0.0,0.0,0.0,0.0,0.0,0.0,0.0,0.0,6.1594,6.2887,6.381,6.4518,6.4888,6.4888,6.4888,6.4888,6.4918,6.5596,6.6273,6.695,6.7627,6.8274,6.8889,6.8889,6.8889,6.8889,6.8889,6.8889,6.8889,6.8889,6.8889,6.8889,6.8889,6.8889,6.8889,3.4456,3.4904,3.538,3.5366,3.7672,4.0343,4.2636,4.4667,4.6816,4.8991,5.0435,5.1928,5.345,5.4262,5.5006,5.575,5.5818,5.5818,5.5818,5.5141,5.4093,5.2604,5.1116,4.9289,4.7124,4.5534,4.3639,4.1441,4.0629,3.9478,3.8091,3.8734,3.9478,4.0324,4.2523,4.5162,4.8105,5.0371,5.3551,5.7408,6.1061,6.4275,6.688,6.6948,6.7421,6.8098,6.8842,6.9113,6.9113,6.9113,6.9113,6.8977,6.8199,6.7489,6.6779,6.6034,6.4816,6.3396,6.1941,6.0926,5.9979,5.849,5.7543,5.6968,5.6934,5.5784,5.4395,5.289,5.1453,4.9986,4.8507,4.7134,4.6385,4.7036,4.5244,4.3364,4.191,0.0,0.0,0.0,0.0,0.0,0.0,0.0,0.0,0.0,0.0,0.0,0.0,6.0578,6.2302,6.3718,6.4457,6.4857,6.4888,6.4888,6.4888,6.4918,6.5565,6.6242,6.695,6.7596,6.8243,6.8889,6.8889,6.8889,6.8889,6.8889,6.8889,6.8889,6.8889,6.8889,6.8889,6.8889,6.8889,6.8889,3.7456,3.8043,3.8905,3.9996,4.0858,4.1926,4.3648,4.6206,4.847,5.0059,5.1881,5.3584,5.4972,5.5784,5.6528,5.7273,5.734,5.734,5.734,5.7137,5.663,5.5683,5.4228,5.2672,5.098,4.8376,4.6244,4.4553,4.2658,4.1271,4.0358,3.9986,4.0493,4.1813,4.3504,4.594,4.8917,5.1725,5.6021,6.1197,6.3802,6.5967,6.776,6.8876,6.9451,6.9553,6.9214,6.9113,6.9113,6.9113,6.9113,6.9079,6.8876,6.8673,6.8368,6.7557,6.7083,6.644,6.4952,6.4005,6.3091,6.1603,6.025,5.9099,5.8558,5.7712,5.6761,5.5875,5.4895,5.3852,5.2369,5.0894,4.9525,4.8696,4.6782,4.5276,0.0,0.0,0.0,4.4984,0.0,0.0,0.0,0.0,0.0,0.0,0.0,0.0,5.7869,5.9008,6.064,6.301,6.3749,6.4364,6.4888,6.4888,6.4888,6.4888,6.5072,6.578,6.6919,6.7104,6.7812,6.8889,6.8889,6.8889,6.8889,6.8889,6.8889,6.8889,6.8889,6.8889,6.8889,6.8889,6.8889,6.8889,3.9595,4.0457,4.1595,4.2768,4.4078,4.5285,4.6113,4.8174,5.0198,5.1987,5.3645,5.5281,5.6636,5.7412,5.822,5.9268,5.937,5.937,5.937,5.937,5.8896,5.7814,5.6664,5.5175,5.3382,5.1048,4.8781,4.6684,4.4722,4.3064,4.1677,4.1238,4.1474,4.2388,4.4587,4.6819,4.9323,5.3957,5.8592,6.3057,6.529,6.7286,0.0,6.9857,7.0398,7.0635,7.0229,7.006,7.006,7.006,7.006,7.006,7.006,6.9857,6.9485,6.9045,6.8673,6.8166,6.6981,6.6339,6.5764,6.4613,6.3429,6.2347,6.1637,6.0892,5.9945,5.8524,5.7915,5.707,5.5277,5.3721,5.1965,4.9888,4.8564,0.0,0.0,0.0,0.0,0.0,4.5629,0.0,0.0,0.0,0.0,0.0,0.0,0.0,0.0,5.7931,5.987,6.2302,6.3318,6.418,6.4888,6.4888,6.4888,6.4888,6.4888,6.5596,6.6919,6.6919,6.7627,6.8889,6.8889,6.8889,6.8889,6.8889,6.8889,6.8889,6.8889,6.8889,6.8889,6.8889,6.8889,6.8889,4.1492,4.2699,4.4009,4.4734,4.732,4.9321,4.9528,5.0582,5.2111,5.4377,5.5654,5.6983,5.8613,5.9214,6.008,6.1603,6.1738,6.1738,6.1738,6.1738,6.1095,5.9674,5.8795,5.734,5.5209,5.3484,5.1251,4.8511,4.6819,4.4925,4.2895,4.2692,4.2625,4.2861,4.5669,4.8037,5.0304,5.6528,6.0892,6.3869,6.6068,6.8267,7.0195,7.0297,7.0737,7.1312,7.1312,7.1312,7.1312,7.1312,7.1312,7.1312,7.1312,7.0872,7.0331,7.0331,6.9891,6.9214,6.8402,6.8199,6.803,6.7286,6.6542,6.5797,6.5189,6.4478,6.3328,6.1129,6.0689,5.9979,5.7679,5.5953,5.3957,5.115,5.0726,0.0,0.0,0.0,0.0,0.0,0.0,0.0,0.0,0.0,0.0,0.0,0.0,0.0,0.0,0.0,5.9255,6.1471,6.2856,6.3933,6.4764,6.4857,6.4888,6.4888,6.4888,6.5596,6.6919,6.6919,6.7627,6.8889,6.8889,6.8889,6.8889,6.8889,6.8889,6.8889,6.8889,6.8889,6.8889,6.8889,6.8889,6.8889,4.463,4.5872,4.7148,4.7907,5.0011,5.2046,5.3322,5.3547,5.4445,5.6711,5.7603,5.9068,6.1605,6.197,6.2571,6.3903,6.4038,6.4038,6.4038,6.4038,6.3632,6.2753,6.1434,5.9945,5.8287,5.5581,5.3315,5.1522,4.8849,4.7022,4.5974,4.4756,4.4519,4.5196,4.6955,5.027,5.4769,5.8389,6.1637,6.4613,6.6812,6.8707,7.0263,7.0872,7.121,7.1312,7.1312,7.1312,7.1312,7.1312,7.1312,7.1312,7.1312,7.121,7.1109,7.1109,7.1041,7.077,6.9992,6.9789,6.962,6.8876,6.8098,6.7489,6.7354,6.6745,6.5764,6.414,6.3802,6.2922,6.0047,5.7814,5.5852,5.4093,5.3822,0.0,0.0,0.0,0.0,0.0,0.0,0.0,0.0,0.0,0.0,0.0,0.0,0.0,0.0,0.0,5.6884,6.0055,6.144,6.2764,6.3995,6.4611,6.4888,6.4888,6.4888,6.5596,6.6919,6.6919,6.7627,6.8889,6.8889,6.8889,6.8889,6.8889,6.8889,6.8889,6.8889,6.8889,6.8889,6.8889,6.8889,6.8889,4.7182,4.8734,5.0183,5.0528,5.2804,5.4977,5.6081,5.7187,5.8152,5.8841,6.0144,6.1679,6.3376,6.3845,6.4483,6.5413,6.5433,6.5318,6.5318,6.5237,6.485,6.4106,6.3024,6.1738,6.025,5.8017,5.5784,5.3484,5.1285,4.9424,4.7936,4.7192,4.6853,4.6955,4.9187,5.2469,5.6461,5.9471,6.2448,6.5358,6.7624,6.9417,7.0804,7.1176,7.1312,7.1312,7.1312,7.1312,7.1312,7.1312,7.1312,7.1312,7.1312,7.1312,7.1312,7.1312,7.1312,7.1244,7.0872,7.077,7.0703,7.0331,6.9958,6.9553,6.918,6.8808,6.8132,6.6609,6.6305,6.5392,6.2415,6.0047,5.8152,5.707,0.0,0.0,0.0,0.0,0.0,0.0,0.0,0.0,0.0,0.0,0.0,0.0,0.0,0.0,0.0,0.0,5.6559,0.0,6.0917,6.2456,6.381,6.4549,6.4888,6.4888,6.4888,6.5596,6.6919,6.6919,6.7627,6.8889,6.8889,6.8889,6.8889,6.8889,6.8889,6.8889,6.8889,6.8889,6.8889,6.8889,6.8889,6.8889,4.9804,5.1632,5.3184,5.3184,5.5736,5.7943,5.853,6.0565,6.1772,6.1013,6.2488,6.3961,6.4778,6.5275,6.5949,6.6711,6.6582,6.6568,6.6656,6.649,6.6136,6.5595,6.4715,6.3599,6.2245,6.0452,5.8186,5.5547,5.3924,5.179,4.9255,4.9622,4.9492,4.9221,5.186,5.4702,5.7712,6.0723,6.3599,6.6339,6.847,7.0128,7.1312,7.1312,7.1312,7.1312,7.1312,7.1312,7.1312,7.1312,7.1312,7.1312,7.1312,7.1312,7.1312,7.1312,7.1312,7.1312,7.1312,7.1312,7.1312,7.1312,7.1312,7.1142,7.0567,7.0432,7.0026,6.8673,6.8132,6.7184,6.4884,6.2584,6.0825,6.008,5.8592,0.0,0.0,0.0,0.0,0.0,0.0,0.0,0.0,0.0,0.0,0.0,0.0,0.0,5.1754,0.0,0.0,0.0,6.0455,6.224,6.3595,6.4457,6.4888,6.4888,6.4888,6.5596,6.6919,6.6919,6.7627,6.8889,6.8889,6.8889,6.8889,6.8889,6.8889,6.8889,6.8889,6.8889,6.8889,6.8889,6.8889,6.8889,5.2977,5.4805,5.6357,5.6357,5.8875,6.0909,6.0978,6.291,6.4117,6.3358,6.4048,6.5076,6.6323,6.6563,6.7021,6.8046,6.8064,6.8286,6.8827,6.8774,6.8741,6.8673,6.7286,6.6102,6.529,6.2516,6.0283,5.8592,5.6639,5.3719,4.9999,5.1545,5.2564,5.3044,5.4668,5.7036,5.9979,6.3024,6.5595,6.7827,6.9451,7.0567,7.1312,7.1312,7.1312,7.1312,7.1312,7.1312,7.1312,7.1312,7.1312,7.1312,7.1312,7.1312,7.1312,7.1312,7.1312,7.1312,7.1312,7.1312,7.1312,7.1312,7.1312,7.1312,7.121,7.121,7.0973,7.0128,6.8876,6.7827,6.7523,6.5662,6.3937,6.3226,6.1231,0.0,0.0,0.0,5.7273,5.6494,0.0,0.0,0.0,5.3198,0.0,0.0,0.0,0.0,0.0,0.0,0.0,5.6884,5.9501,6.1532,6.2887,6.4241,6.4888,6.4888,6.4888,6.5596,6.6919,6.6919,6.7627,6.8889,6.8889,6.8889,6.8889,6.8889,6.8889,6.8889,6.8889,6.8889,6.8889,6.8889,6.8889,6.8889,5.5426,5.7633,5.9495,5.9495,6.1634,6.3324,6.3324,6.491,6.6117,6.629,6.6566,6.7152,6.8176,6.8693,6.9129,6.955,6.9453,6.9507,6.9646,6.9595,6.951,6.951,6.8931,6.7962,6.6656,6.5026,6.2944,6.0385,5.9253,5.7219,5.433,5.5009,5.5382,5.5581,5.7509,5.9505,6.1637,6.4174,6.6542,6.8707,6.9755,7.0635,7.1312,7.1312,7.1312,7.1312,7.1312,7.1312,7.1312,7.1312,7.1312,7.1312,7.1312,7.1312,7.1312,7.1312,7.1312,7.1312,7.1312,7.1312,7.1312,7.1312,7.1312,7.1312,7.1312,7.1312,7.1244,7.0939,7.0026,6.9282,6.9282,6.7793,6.6474,6.6203,6.4613,6.3193,0.0,0.0,0.0,5.8998,0.0,0.0,0.0,0.0,0.0,0.0,0.0,0.0,0.0,0.0,0.0,5.6796,5.9378,6.144,6.2794,6.421,6.4888,6.4888,6.4888,6.5596,6.6919,6.6919,6.7627,6.8889,6.8889,6.8889,6.8889,6.8889,6.8889,6.8889,6.8889,6.8889,6.8889,6.8889,6.8889,6.8889,5.8426,6.053,6.2289,6.2289,6.4014,6.5462,6.5669,6.6807,6.7945,6.867,6.898,6.9222,6.9566,7.0084,7.0463,7.0622,7.0491,7.0511,7.0633,7.0499,7.0414,7.0414,7.0209,6.9425,6.82,6.6894,6.5081,6.2584,6.1868,6.0075,5.7352,5.7114,5.7416,5.822,6.0216,6.1941,6.3497,6.573,6.776,6.9485,7.0229,7.0838,7.1312,7.1312,7.1312,7.1312,7.1312,7.1312,7.1312,7.1312,7.1312,7.1312,7.1312,7.1312,7.1312,7.1312,7.1312,7.1312,7.1312,7.1312,7.1312,7.1312,7.1312,7.1312,7.1312,7.1312,7.1312,7.1312,7.0906,7.0534,7.0534,6.9451,6.8571,6.8571,6.732,6.617,6.5628,6.4952,0.0,6.167,6.1434,6.0452,5.8017,5.778,0.0,0.0,0.0,0.0,0.0,0.0,0.0,0.0,5.9778,6.1748,6.3102,6.4303,6.4888,6.4888,6.4888,6.5596,6.6919,6.7319,6.7997,6.8889,6.8889,6.8889,6.8889,6.8889,6.8889,6.8889,6.8889,6.8889,6.8889,6.8889,6.8889,6.8889,6.2255,6.3634,6.4669,6.4669,6.5945,6.7221,6.7945,6.8739,6.9532,7.0256,7.1015,7.1187,7.0463,7.0394,7.0622,7.1129,7.1198,7.1422,7.1917,7.1951,7.1951,7.1951,7.0974,7.0478,7.0478,6.8014,6.6406,6.5628,6.4415,6.1766,5.7848,5.7137,5.8389,6.1332,6.2821,6.4275,6.5797,6.8098,6.9485,7.0229,7.1007,7.1312,7.1312,7.1312,7.1312,7.1312,7.1312,7.1312,7.1312,7.1312,7.1312,7.1312,7.1312,7.1312,7.1312,7.1312,7.1312,7.1312,7.1312,7.1312,7.1312,7.1312,7.1312,7.1312,7.1312,7.1312,7.1312,7.1312,7.1312,7.1312,7.1312,7.0669,7.0161,7.0161,6.8876,6.7861,6.7861,6.7252,0.0,6.4715,6.4546,6.3362,6.0351,6.0047,0.0,0.0,0.0,0.0,0.0,0.0,0.0,5.88,6.0732,6.2456,6.381,6.4549,6.4888,6.4888,6.4888,6.5596,6.695,6.8274,6.8858,6.8889,6.8889,6.8889,6.8889,6.8889,6.8889,6.8889,6.8889,6.8889,6.8889,6.8889,6.8889,6.8889,6.3945,6.5221,6.6428,6.6911,6.7876,6.8808,6.9532,6.9877,7.0291,7.105,7.1325,7.1601,7.1912,7.1946,7.205,7.2207,7.2242,7.2345,7.2501,7.2501,7.2501,7.2501,7.2176,7.1713,7.1028,7.0225,6.9149,6.7721,6.7373,6.604,6.3699,6.346,6.3679,6.4343,6.5831,6.7049,6.8098,6.9316,7.0263,7.0973,7.121,7.1312,7.1312,7.1312,7.1312,7.1312,7.1312,7.1312,7.1312,7.1312,7.1312,7.1312,7.1312,7.1312,7.1312,7.1312,7.1312,7.1312,7.1312,7.1312,7.1312,7.1312,7.1312,7.1312,7.1312,7.1312,7.1312,7.1312,7.1312,7.1312,7.1312,7.1109,7.0973,7.0973,7.0534,7.006,6.9519,6.9248,6.8538,6.7015,6.6406,6.5324,6.3362,6.2719,0.0,0.0,0.0,0.0,0.0,0.0,0.0,0.0,6.179,6.3131,6.381,6.4549,6.4888,6.4888,6.4888,6.5596,6.695,6.8274,6.8889,6.8889,6.8889,6.8889,6.8889,6.8889,6.8889,6.8889,6.8889,6.8889,6.8889,6.8889,6.8889,6.8889,6.6773,6.7601,6.8428,6.8877,6.936,6.9946,7.067,7.0808,7.1084,7.1843,7.1946,7.2119,7.2636,7.2671,7.2671,7.2671,7.2671,7.2671,7.2671,7.2671,7.2671,7.2671,7.2586,7.226,7.161,7.125,7.0549,6.9457,6.9316,6.8617,6.7564,6.7448,6.7282,6.7015,6.8233,6.9045,6.9553,7.0297,7.0872,7.1312,7.1312,7.1312,7.1312,7.1312,7.1312,7.1312,7.1312,7.1312,7.1312,7.1312,7.1312,7.1312,7.1312,7.1312,7.1312,7.1312,7.1312,7.1312,7.1312,7.1312,7.1312,7.1312,7.1312,7.1312,7.1312,7.1312,7.1312,7.1312,7.1312,7.1312,7.1312,7.1312,7.1312,7.1312,7.1312,7.1142,7.0669,7.0601,7.0161,6.891,6.8368,6.7489,0.0,6.5425,6.485,0.0,0.0,0.0,0.0,0.0,6.2231,6.1371,6.3173,6.4204,6.421,6.4672,6.4888,6.4918,6.5411,6.6088,6.695,6.8274,6.8889,6.8889,6.8889,6.8889,6.8889,6.8889,6.8889,6.8889,6.8889,6.8889,6.8889,6.8889,6.8889,6.8889,7.0256,7.0394,7.0394,7.0463,7.0463,7.0705,7.1463,7.1567,7.1843,7.2567,7.2671,7.2671,7.2671,7.2671,7.2671,7.2671,7.2671,7.2671,7.2671,7.2671,7.2671,7.2671,7.2501,7.2331,7.2331,7.1474,7.1046,7.1046,7.0362,6.9901,6.9612,6.9612,6.9474,6.9282,6.9958,7.0263,7.0297,7.1007,7.1312,7.1312,7.1312,7.1312,7.1312,7.1312,7.1312,7.1312,7.1312,7.1312,7.1312,7.1312,7.1312,7.1312,7.1312,7.1312,7.1312,7.1312,7.1312,7.1312,7.1312,7.1312,7.1312,7.1312,7.1312,7.1312,7.1312,7.1312,7.1312,7.1312,7.1312,7.1312,7.1312,7.1312,7.1312,7.1312,7.1312,7.1312,7.1312,7.1312,7.1075,7.0364,7.0229,6.962,6.8199,6.7996,6.7692,0.0,0.0,0.0,0.0,6.6176,6.497,6.3594,6.4957,6.5407,6.4998,6.4888,6.4888,6.4918,6.6273,6.6919,6.695,6.8274,6.8889,6.8889,6.8889,6.8889,6.8889,6.8889,6.8889,6.8889,6.8889,6.8889,6.8889,6.8889,6.8889,6.8889,7.036,7.0394,7.0567,7.1118,7.1222,7.1498,7.2291,7.2395,7.2464,7.2671,7.2671,7.2671,7.2671,7.2671,7.2671,7.2671,7.2671,7.2671,7.2671,7.2671,7.2671,7.2671,7.2671,7.2586,7.2586,7.2414,7.226,7.226,7.2054,7.1866,7.1611,7.1438,7.1265,7.1002,7.1029,7.1041,7.1075,7.1244,7.1312,7.1312,7.1312,7.1312,7.1312,7.1312,7.1312,7.1312,7.1312,7.1312,7.1312,7.1312,7.1312,7.1312,7.1312,7.1312,7.1312,7.1312,7.1312,7.1312,7.1312,7.1312,7.1312,7.1312,7.1312,7.1312,7.1312,7.1312,7.1312,7.1312,7.1312,7.1312,7.1312,7.1312,7.1312,7.1312,7.1312,7.1312,7.1312,7.1312,7.1244,7.1075,7.0534,7.006,6.9688,6.9147,6.8741,6.8571,6.8571,6.8571,6.8571,6.887,6.8226,6.6598,6.6582,6.6486,6.6098,6.5297,6.4888,6.4918,6.6273,6.6919,6.695,6.8274,6.8889,6.8889,6.8889,6.8889,6.8889,6.8889,6.8889,6.8889,6.8889,6.8889,6.8889,6.8889,6.8889,6.8889,7.1429,7.1429,7.1567,7.1981,7.205,7.2188,7.2602,7.2671,7.2671,7.2671,7.2671,7.2671,7.2671,7.2671,7.2671,7.2671,7.2671,7.2671,7.2671,7.2671,7.2671,7.2671,7.2671,7.2671,7.2671,7.2671,7.2671,7.2671,7.2671,7.2586,7.2331,7.2159,7.1985,7.181,7.1634,7.1546,7.1457,7.1457,7.1367,7.1312,7.1312,7.1312,7.1312,7.1312,7.1312,7.1312,7.1312,7.1312,7.1312,7.1312,7.1312,7.1312,7.1312,7.1312,7.1312,7.1312,7.1312,7.1312,7.1312,7.1312,7.1312,7.1312,7.1312,7.1312,7.1312,7.1582,7.1819,7.1819,7.1819,7.1819,7.1819,7.1548,7.1312,7.1312,7.1312,7.1312,7.1312,7.1312,7.1312,7.1312,7.0973,7.0703,7.0703,7.0331,7.0128,7.0128,7.0128,7.0128,7.0128,7.05,6.985,6.8042,6.7655,6.7213,6.6491,6.5406,6.4888,6.4918,6.6273,6.6919,6.695,6.8274,6.8889,6.8889,6.8889,6.8889,6.8889,6.8889,6.8889,6.8889,6.8889,6.8889,6.8889,6.8889,6.8889,6.8889,7.2887,7.2755,7.2671,7.2671,7.2671,7.2671,7.2671,7.2671,7.2671,7.2671,7.2671,7.2671,7.2671,7.2671,7.2671,7.2671,7.2671,7.2671,7.2671,7.2671,7.2671,7.2671,7.2671,7.2671,7.2671,7.2671,7.2671,7.2671,7.2671,7.2586,7.2331,7.2331,7.2245,7.2072,7.1985,7.1898,7.16,7.16,7.1457,7.1312,7.1312,7.1312,7.1312,7.1312,7.1312,7.1312,7.1312,7.1312,7.1312,7.1312,7.1312,7.1312,7.1312,7.1312,7.1312,7.1312,7.1312,7.1312,7.1312,7.1312,7.1312,7.1312,7.1312,7.1345,7.1447,7.1954,7.2428,7.2529,7.2462,7.2394,7.2394,7.1819,7.1312,7.1312,7.1312,7.1312,7.1312,7.1312,7.1312,7.1312,7.1312,7.1312,7.1312,7.1312,7.1312,7.1312,7.1312,7.1312,7.1312,7.1312,7.0613,6.9084,6.8568,6.7802,6.6806,6.57,6.5108,6.5108,6.6386,6.6919,6.695,6.8274,6.8889,6.8889,6.8889,6.8889,6.8889,6.8889,6.8889,6.8889,6.8889,6.8889,6.8889,6.8889,6.8889,6.8889,7.3677,7.3101,7.2671,7.2671,7.2671,7.2671,7.2671,7.2671,7.2671,7.2671,7.2671,7.2671,7.2671,7.2671,7.2671,7.2671,7.2671,7.2671,7.2671,7.2671,7.2671,7.2671,7.2671,7.2671,7.2671,7.2671,7.2671,7.2671,7.2671,7.2671,7.2586,7.2416,7.2331,7.2245,7.2072,7.1898,7.16,7.16,7.1457,7.1312,7.1312,7.1312,7.1312,7.1312,7.1312,7.1312,7.1312,7.1312,7.1312,7.1312,7.1312,7.1312,7.1312,7.1312,7.1312,7.1312,7.1312,7.1312,7.1312,7.1312,7.1312,7.1312,7.1312,7.1481,7.209,7.2326,7.2563,7.3206,7.2834,7.2394,7.2394,7.1819,7.1312,7.1312,7.1312,7.1312,7.1312,7.1312,7.1312,7.1312,7.1312,7.1312,7.1312,7.1312,7.1312,7.1312,7.1312,7.1312,7.1312,7.1312,7.1154,7.0838,6.9916,6.8993,6.7871,6.6806,6.628,6.6205,6.666,6.6919,6.695,6.8274,6.8889,6.8889,6.8889,6.8889,6.8889,6.8889,6.8889,6.8889,6.8889,6.8889,6.8889,6.8889,6.8889,6.8889,7.3878,7.3517,7.3183,7.2755,7.2671,7.2671,7.2671,7.2671,7.2671,7.2671,7.2671,7.2671,7.2671,7.2671,7.2671,7.2671,7.2671,7.2671,7.2671,7.2671,7.2671,7.2671,7.2671,7.2671,7.2671,7.2671,7.2877,7.3257,7.3257,7.3498,7.3878,7.3792,7.3706,7.3706,7.3619,7.3239,7.26,7.26,7.2185,7.1457,7.1457,7.1367,7.1312,7.1312,7.1312,7.1312,7.1312,7.1312,7.1312,7.1312,7.1312,7.1379,7.1785,7.1616,7.1379,7.1785,7.1616,7.1312,7.1312,7.1312,7.1312,7.1312,7.1616,7.1988,7.2326,7.3003,7.368,7.4018,7.3815,7.3578,7.3578,7.2969,7.236,7.1954,7.1887,7.1751,7.1379,7.1312,7.1312,7.1312,7.1312,7.1312,7.1312,7.1312,7.1312,7.1312,7.1312,7.1312,7.1312,7.1312,7.1312,7.1312,7.0296,6.9187,6.8072,6.7599,6.7395,6.7395,6.8203,6.8685,6.8717,6.944,7.018,7.0711,7.0067,7.018,7.0711,7.0711,7.0375,6.987,6.987,6.941,6.8889,6.8889,6.8889,6.8889,7.4264,7.3956,7.3597,7.2838,7.2671,7.2671,7.2671,7.2671,7.2671,7.2671,7.2671,7.2671,7.2671,7.2671,7.2671,7.2671,7.2671,7.2671,7.2671,7.2671,7.2671,7.2671,7.2843,7.2946,7.2946,7.3119,7.3464,7.405,7.405,7.4361,7.4947,7.4947,7.4947,7.4947,7.4947,7.4428,7.3772,7.3772,7.3132,7.2233,7.2144,7.2055,7.1909,7.1819,7.1819,7.1819,7.1819,7.1819,7.1819,7.1819,7.1819,7.1921,7.2462,7.2259,7.1921,7.2496,7.2259,7.1751,7.1413,7.1312,7.1345,7.1515,7.1988,7.2496,7.2834,7.3781,7.4661,7.483,7.4728,7.4627,7.4627,7.3984,7.3308,7.2732,7.2665,7.2394,7.1684,7.1582,7.1582,7.1582,7.1413,7.1379,7.1548,7.1413,7.1312,7.1312,7.1312,7.1312,7.1312,7.1312,7.1312,7.1312,7.0482,6.9699,6.8895,6.8601,6.847,6.8502,6.9469,6.9982,6.9911,7.032,7.0972,7.1722,7.0863,7.1068,7.2055,7.2055,7.1617,7.1044,7.1044,7.0293,6.9325,6.9325,6.9093,6.8889,7.5083,7.434,7.3597,7.2838,7.2671,7.2671,7.2671,7.2671,7.2671,7.2671,7.2671,7.2671,7.2671,7.2671,7.2671,7.2671,7.2671,7.2671,7.2671,7.2671,7.2671,7.2671,7.3326,7.3705,7.3705,7.4395,7.4774,7.4843,7.4843,7.4878,7.4947,7.4947,7.4947,7.4947,7.4947,7.4738,7.4528,7.4528,7.4316,7.4103,7.3833,7.3708,7.3651,7.3434,7.3341,7.3341,7.3341,7.3341,7.3341,7.3341,7.3341,7.3341,7.3375,7.3375,7.3341,7.3375,7.3375,7.3037,7.1684,7.1312,7.1481,7.2157,7.236,7.2766,7.4153,7.4525,7.4796,7.5473,7.51,7.4627,7.4627,7.3984,7.3477,7.3409,7.3409,7.3138,7.2428,7.2326,7.2326,7.2326,7.1718,7.1582,7.2259,7.1718,7.1312,7.1312,7.1312,7.1312,7.1312,7.1312,7.1312,7.1312,7.1222,7.1131,7.1007,7.0076,6.9571,6.9571,6.9251,6.9205,6.9237,6.9808,7.0131,7.0267,7.0163,7.0623,7.131,7.131,7.1593,7.2207,7.2207,7.1452,7.0487,7.0487,6.987,6.8889,7.5895,7.5512,7.501,7.4264,7.3677,7.3392,7.3392,7.297,7.2671,7.2671,7.2671,7.2671,7.2671,7.2671,7.2671,7.2671,7.2671,7.2671,7.2671,7.2671,7.2877,7.3326,7.3636,7.4016,7.4499,7.4774,7.5154,7.5671,7.5671,7.5913,7.6361,7.6361,7.6361,7.6361,7.6361,7.5997,7.5495,7.5495,7.5131,7.4419,7.4206,7.406,7.3878,7.3603,7.3477,7.3477,7.3477,7.3477,7.3477,7.3477,7.3477,7.3578,7.4052,7.3849,7.3477,7.3477,7.3477,7.3375,7.28,7.2665,7.2732,7.3003,7.3443,7.3916,7.4492,7.4965,7.5371,7.5642,7.5473,7.527,7.527,7.5067,7.4695,7.4255,7.4187,7.3916,7.3172,7.2699,7.2563,7.3003,7.2428,7.2259,7.3003,7.2428,7.1988,7.1988,7.1582,7.1312,7.1312,7.1312,7.1312,7.1312,7.1312,7.1312,7.1312,7.0916,7.0699,7.0699,7.1031,7.1175,7.1113,7.1128,7.1557,7.2144,7.1425,7.1689,7.2674,7.2674,7.2415,7.2011,7.2539,7.1561,6.9919,7.0441,6.9839,6.8889,7.6336,7.6203,7.5963,7.5155,7.434,7.3799,7.3799,7.3183,7.2671,7.2671,7.2671,7.2671,7.2671,7.2671,7.2671,7.2671,7.2671,7.2671,7.2671,7.2912,7.3257,7.3774,7.4257,7.4774,7.5292,7.5533,7.5913,7.6464,7.6464,7.6706,7.7223,7.7223,7.7223,7.7223,7.7223,7.6947,7.6464,7.6464,7.6066,7.5406,7.5014,7.4833,7.4684,7.428,7.4187,7.4187,7.4187,7.4187,7.4187,7.4187,7.4187,7.4255,7.4796,7.4593,7.4187,7.4187,7.4187,7.4187,7.4187,7.4187,7.4119,7.3883,7.4221,7.4661,7.4897,7.5337,7.5709,7.5709,7.5709,7.5709,7.5709,7.5709,7.554,7.5033,7.4965,7.4695,7.395,7.3409,7.3274,7.3781,7.3172,7.3037,7.3781,7.3172,7.2732,7.2732,7.2293,7.1887,7.1684,7.1447,7.1312,7.1312,7.1312,7.1312,7.1312,7.1312,7.1312,7.1312,7.1819,7.2056,7.209,7.1788,7.2083,7.28,7.1988,7.2217,7.3138,7.3138,7.2868,7.2404,7.2904,7.1948,7.0279,7.1092,7.0584,6.9558,7.6336,7.6203,7.6,7.5155,7.434,7.3834,7.3834,7.3183,7.2705,7.2671,7.2671,7.2671,7.2671,7.2671,7.2671,7.2671,7.2671,7.2671,7.2671,7.3395,7.3809,7.3809,7.5292,7.612,7.612,7.6844,7.7223,7.7223,7.7223,7.7223,7.7223,7.7223,7.7223,7.7223,7.7223,7.7223,7.7223,7.7223,7.7223,7.7133,7.6679,7.6495,7.6402,7.5899,7.5709,7.5709,7.5709,7.5709,7.5709,7.5709,7.5709,7.5709,7.5709,7.5709,7.5709,7.5709,7.5709,7.5709,7.5709,7.5709,7.5506,7.4796,7.4627,7.4796,7.554,7.5709,7.5709,7.5709,7.5709,7.5709,7.5709,7.5709,7.5709,7.5709,7.5709,7.5439,7.4728,7.4627,7.4627,7.4627,7.395,7.3781,7.4559,7.395,7.351,7.351,7.3477,7.3172,7.2428,7.1718,7.1312,7.1312,7.1312,7.1312,7.1312,7.1312,7.1312,7.1312,7.1312,7.1312,7.1312,7.1312,7.1312,7.1312,7.1312,7.1718,7.2394,7.2394,7.28,7.3477,7.3477,7.2753,7.1853,7.2647,7.2175,7.1132,7.7056,7.7468,7.7806,7.7575,7.7333,7.6947,7.6427,7.5266,7.4147,7.3514,7.3015,7.2671,7.2671,7.2671,7.2671,7.2671,7.2671,7.2912,7.3429,7.4154,7.4843,7.5395,7.5878,7.6361,7.6878,7.712,7.7223,7.7223,7.7223,7.7223,7.7223,7.7223,7.7223,7.7223,7.7223,7.7223,7.7223,7.7223,7.7223,7.7133,7.6828,7.6645,7.6495,7.6122,7.5899,7.5709,7.5709,7.5709,7.5709,7.5709,7.5709,7.5709,7.5709,7.5709,7.5709,7.5709,7.5709,7.5709,7.5709,7.5709,7.5642,7.5439,7.5371,7.5439,7.5642,7.5709,7.5709,7.5709,7.5709,7.5709,7.5709,7.5709,7.5709,7.5709,7.5709,7.5608,7.5405,7.4931,7.4796,7.5303,7.4728,7.4559,7.5303,7.4695,7.4289,7.4289,7.3308,7.2631,7.2428,7.1718,7.1312,7.1312,7.1312,7.1312,7.1312,7.1312,7.1312,7.1312,7.1312,7.1312,7.1312,7.1312,7.1312,7.1312,7.1312,7.1447,7.165,7.165,7.1751,7.2022,7.2529,7.2016,7.1092,7.1918,7.1453,7.0494,7.7781,7.8259,7.8699,7.9029,7.8777,7.8418,7.7991,7.627,7.4903,7.4413,7.3372,7.2671,7.2671,7.2671,7.2671,7.2671,7.2946,7.3429,7.4188,7.4981,7.574,7.6533,7.6568,7.6775,7.7223,7.7223,7.7223,7.7223,7.7223,7.7223,7.7223,7.7223,7.7223,7.7223,7.7223,7.7223,7.7223,7.7223,7.7223,7.7223,7.6918,7.6736,7.6553,7.6402,7.6216,7.5994,7.5899,7.5899,7.5805,7.5709,7.5709,7.5709,7.5709,7.5709,7.5709,7.5709,7.5709,7.5709,7.5709,7.5709,7.5709,7.5709,7.5709,7.5709,7.5709,7.5709,7.5709,7.5709,7.5709,7.5709,7.5709,7.5709,7.5709,7.5709,7.5709,7.5709,7.5709,7.5337,7.5202,7.5642,7.5303,7.5202,7.5676,7.5303,7.5033,7.5033,7.368,7.2834,7.2834,7.1853,7.1312,7.1312,7.1312,7.1312,7.1312,7.1312,7.1312,7.1312,7.1312,7.1312,7.1312,7.1312,7.1312,7.1312,7.1312,7.1312,7.1312,7.1312,7.1312,7.1345,7.1785,7.1555,7.1031,7.1766,7.1649,7.1029,7.8552,7.8772,7.9029,7.9764,7.9354,7.8843,7.8702,7.683,7.5336,7.5187,7.3833,7.2887,7.2887,7.2887,7.2887,7.2804,7.3445,7.4119,7.4878,7.5671,7.643,7.7189,7.7223,7.7223,7.7223,7.7223,7.7223,7.7223,7.7223,7.7223,7.7223,7.7223,7.7223,7.7223,7.7223,7.7223,7.7223,7.7223,7.7223,7.7223,7.6918,7.6793,7.6793,7.6553,7.6495,7.6495,7.6216,7.6122,7.6028,7.5805,7.5709,7.5709,7.5709,7.5709,7.5709,7.5709,7.5709,7.5709,7.5709,7.5709,7.5709,7.5709,7.5709,7.5709,7.5709,7.5709,7.5709,7.5709,7.5709,7.5709,7.5709,7.5709,7.5709,7.5709,7.5709,7.5709,7.5709,7.5709,7.5709,7.5709,7.5709,7.5709,7.5709,7.5709,7.5709,7.5709,7.4322,7.3477,7.3477,7.209,7.1312,7.1312,7.1312,7.1312,7.1312,7.1312,7.1312,7.1312,7.1312,7.1312,7.1312,7.1312,7.1312,7.1312,7.1312,7.1312,7.1312,7.1312,7.1312,7.1312,7.1312,7.1312,7.1379,7.2056,7.2293,7.2303,7.936,8.0057,8.0534,8.0718,8.1102,8.0984,7.9641,7.853,7.7343,7.6036,7.5064,7.4492,7.4492,7.4492,7.4264,7.3597,7.3712,7.4119,7.4878,7.5671,7.643,7.7189,7.7223,7.7223,7.7223,7.7223,7.7223,7.7223,7.7223,7.7223,7.7223,7.7223,7.7223,7.7223,7.7223,7.7223,7.7223,7.7223,7.7223,7.7223,7.7133,7.7009,7.6793,7.6702,7.6645,7.6495,7.6402,7.6309,7.6028,7.5805,7.5709,7.5709,7.5709,7.5709,7.5709,7.5709,7.5709,7.5709,7.5709,7.5709,7.5709,7.5709,7.5709,7.5709,7.5709,7.5709,7.5709,7.5709,7.5709,7.5709,7.5709,7.5709,7.5709,7.5709,7.5709,7.5709,7.5709,7.5709,7.5709,7.5709,7.5709,7.5709,7.5709,7.5709,7.5709,7.5709,7.4322,7.3477,7.3477,7.209,7.1312,7.1312,7.1312,7.1312,7.1312,7.1312,7.1312,7.1312,7.1312,7.1312,7.1312,7.1312,7.1312,7.1312,7.1312,7.1312,7.1312,7.1312,7.1312,7.1312,7.1312,7.1312,7.1345,7.1481,7.1548,7.165,8.0204,8.0718,8.1122,8.1525,8.1599,8.1322,8.0448,7.8981,7.7695,7.6804,7.5693,7.501,7.501,7.501,7.4716,7.3878,7.4485,7.4857,7.4912,7.6016,7.6809,7.7189,7.7223,7.7223,7.7223,7.7223,7.7223,7.7223,7.7223,7.7223,7.7223,7.7223,7.7223,7.7223,7.7223,7.7223,7.7223,7.7223,7.7223,7.7223,7.7223,7.7133,7.7009,7.7009,7.6953,7.6862,7.6645,7.6461,7.6216,7.5994,7.5899,7.5899,7.5709,7.5709,7.5709,7.5709,7.5709,7.5709,7.5709,7.5709,7.5709,7.5709,7.5709,7.5709,7.5709,7.5709,7.5709,7.5709,7.5709,7.5709,7.5709,7.5709,7.5709,7.5709,7.5709,7.5709,7.5709,7.5709,7.5709,7.5709,7.5709,7.5709,7.5709,7.5709,7.5709,7.5709,7.4322,7.3477,7.3477,7.209,7.1312,7.1312,7.1312,7.1312,7.1312,7.1312,7.1312,7.1312,7.1312,7.1312,7.1312,7.1312,7.1312,7.1312,7.1312,7.1312,7.1312,7.1312,7.1312,7.1312,7.1312,7.1312,7.1312,7.1312,7.1312,7.1379,8.1048,8.1085,8.1232,8.1893,8.1342,8.0755,8.0608,7.8909,7.7565,7.7419,7.6223,7.537,7.537,7.5299,7.4937,7.4264,7.5521,7.5989,7.5137,7.6503,7.7367,7.7223,7.7223,7.7223,7.7223,7.7223,7.7223,7.7223,7.7223,7.7223,7.7223,7.7223,7.7223,7.7223,7.7223,7.7223,7.7223,7.7223,7.7223,7.7223,7.7223,7.7223,7.7223,7.7223,7.7223,7.7223,7.6918,7.6736,7.6495,7.6216,7.6216,7.6122,7.5899,7.5805,7.5805,7.5805,7.5805,7.5805,7.5709,7.5709,7.5709,7.5709,7.5709,7.5709,7.5709,7.5709,7.5709,7.5709,7.5709,7.5709,7.5709,7.5709,7.5709,7.5709,7.5709,7.5709,7.5709,7.5709,7.5709,7.5709,7.5709,7.5709,7.5709,7.5709,7.5642,7.5506,7.4255,7.3443,7.3308,7.2022,7.1312,7.1312,7.1312,7.1312,7.1312,7.1312,7.1312,7.1312,7.1312,7.1312,7.1312,7.1312,7.1312,7.1312,7.1312,7.1312,7.1312,7.1312,7.1312,7.1312,7.1312,7.1312,7.1312,7.1312,7.1312,7.1312,8.1893,8.1489,8.1048,8.1158,8.0498,7.9727,7.9029,7.8673,7.817,7.7437,7.7092,7.6956,7.6956,7.6403,7.5963,7.5895,7.6695,7.6831,7.5989,7.746,7.8031,7.7223,7.7223,7.7223,7.7223,7.7223,7.7223,7.7223,7.7223,7.7223,7.7223,7.7223,7.7223,7.7223,7.7223,7.7223,7.7223,7.7223,7.7223,7.7223,7.7223,7.7223,7.7223,7.7223,7.7223,7.7223,7.7133,7.7009,7.6736,7.6495,7.6402,7.6402,7.6402,7.6402,7.6309,7.6122,7.6028,7.6028,7.5805,7.5709,7.5709,7.5709,7.5709,7.5709,7.5709,7.5709,7.5709,7.5709,7.5709,7.5709,7.5709,7.5709,7.5709,7.5709,7.5709,7.5709,7.5709,7.5709,7.5709,7.5709,7.5709,7.5709,7.5709,7.5709,7.5439,7.4796,7.395,7.3206,7.2563,7.1751,7.1312,7.1312,7.1312,7.1312,7.1312,7.1312,7.1312,7.1312,7.1312,7.1312,7.1312,7.1312,7.1312,7.1312,7.1312,7.1312,7.1312,7.1312,7.1312,7.1312,7.1312,7.1312,7.1312,7.1312,7.1312,7.1312,8.1452,8.0865,8.0314,8.0314,7.9653,7.8993,7.8662,7.8185,7.7745,7.7378,7.7304,7.7304,7.7304,7.6993,7.6818,7.6886,7.7591,7.7842,7.7547,7.8119,7.8336,7.7945,7.7456,7.7223,7.7223,7.7719,7.7719,7.7223,7.7223,7.7223,7.7223,7.7223,7.7223,7.7223,7.7223,7.7223,7.7223,7.7223,7.7223,7.7223,7.7223,7.7223,7.7223,7.7223,7.7223,7.7223,7.7223,7.7099,7.7009,7.6736,7.6645,7.6645,7.6495,7.6495,7.6402,7.6216,7.6122,7.6028,7.5805,7.5709,7.5709,7.5709,7.5709,7.5709,7.5709,7.5709,7.5709,7.5709,7.5709,7.5709,7.5709,7.5709,7.5709,7.5709,7.5709,7.5709,7.5709,7.5709,7.5709,7.5709,7.5709,7.5709,7.5709,7.5709,7.5405,7.4661,7.3916,7.3172,7.2428,7.1718,7.1312,7.1312,7.1312,7.1312,7.1312,7.1312,7.1312,7.1312,7.1312,7.1312,7.1312,7.1312,7.1312,7.1312,7.1312,7.1312,7.1312,7.1312,7.1312,7.1312,7.1312,7.1312,7.1312,7.1312,7.1312,7.1312]},{"header":{"parameterUnit":"m.s-1","parameterCategory":1,"la1":30.6,"la2":28.766,"lo1":-90.7593,"lo2":-88.6598,"dx":0.0162,"dy":0.0183,"nx":116,"ny":114,"refTime":"2022-12-11T18:00:00:Z","depth":0,"parameterNumber":3,"parameterNumberName":"V-component_of_WINDS"},"data":[0.0,0.0,0.0,0.0,0.0,0.0,0.0,0.0,0.0,0.0,0.0,0.0,0.0,0.0,0.0,0.0,0.0,0.0,0.0,0.0,0.0,0.0,0.0,0.0,0.0,0.0,0.0,0.0,0.0,0.0,0.0,0.0,0.0,0.0,0.0,0.0,0.0,0.0,0.0,0.0,0.0,0.0,0.0,0.0,0.0,0.0,0.0,0.0,0.0,0.0,0.0,0.0,0.0,0.0,0.0,0.0,0.0,0.0,0.0,0.0,0.0,0.0,0.0,0.0,0.0,0.0,0.0,0.0,0.0,0.0,0.0,0.0,0.0,0.0,0.0,0.0,0.0,0.0,0.0,0.0,0.0,0.0,0.0,0.0,0.0,0.0,0.0,0.0,0.0,0.0,0.0,0.0,0.0,0.0,0.0,0.0,0.0,0.0,0.0,0.0,0.0,0.0,0.0,0.0,0.0,0.0,0.0,0.0,0.0,0.0,0.0,0.0,0.0,0.0,0.0,0.0,0.0,0.0,0.0,0.0,0.0,0.0,0.0,0.0,0.0,0.0,0.0,0.0,0.0,0.0,0.0,0.0,0.0,0.0,0.0,0.0,0.0,0.0,0.0,0.0,0.0,0.0,0.0,0.0,0.0,0.0,0.0,0.0,0.0,0.0,0.0,0.0,0.0,0.0,0.0,0.0,0.0,0.0,0.0,0.0,0.0,0.0,0.0,0.0,0.0,0.0,0.0,0.0,0.0,0.0,0.0,0.0,0.0,0.0,0.0,0.0,0.0,0.0,0.0,0.0,0.0,0.0,0.0,0.0,0.0,0.0,0.0,0.0,0.0,0.0,0.0,0.0,0.0,0.0,0.0,0.0,0.0,0.0,0.0,0.0,0.0,0.0,0.0,0.0,0.0,0.0,0.0,0.0,0.0,0.0,0.0,0.0,0.0,0.0,0.0,0.0,0.0,0.0,0.0,0.0,0.0,0.0,0.0,0.0,0.0,0.0,0.0,0.0,0.0,0.0,0.0,0.0,0.0,0.0,0.0,0.0,0.0,0.0,0.0,0.0,0.0,0.0,0.0,0.0,0.0,0.0,0.0,0.0,0.0,0.0,0.0,0.0,0.0,0.0,0.0,0.0,0.0,0.0,0.0,0.0,0.0,0.0,0.0,0.0,0.0,0.0,0.0,0.0,0.0,0.0,0.0,0.0,0.0,0.0,0.0,0.0,0.0,0.0,0.0,0.0,0.0,0.0,0.0,0.0,0.0,0.0,0.0,0.0,0.0,0.0,0.0,0.0,0.0,0.0,0.0,0.0,0.0,0.0,0.0,0.0,0.0,0.0,0.0,0.0,0.0,0.0,0.0,0.0,0.0,0.0,0.0,0.0,0.0,0.0,0.0,0.0,0.0,0.0,0.0,0.0,0.0,0.0,0.0,0.0,0.0,0.0,0.0,0.0,0.0,0.0,0.0,0.0,0.0,0.0,0.0,0.0,0.0,0.0,0.0,0.0,0.0,0.0,0.0,0.0,0.0,0.0,0.0,0.0,0.0,0.0,0.0,0.0,0.0,0.0,0.0,0.0,0.0,0.0,0.0,0.0,0.0,0.0,0.0,0.0,0.0,0.0,0.0,0.0,0.0,0.0,0.0,0.0,0.0,0.0,0.0,0.0,0.0,0.0,0.0,0.0,0.0,0.0,0.0,0.0,0.0,0.0,0.0,0.0,0.0,0.0,0.0,0.0,0.0,0.0,0.0,0.0,0.0,0.0,0.0,0.0,0.0,0.0,0.0,0.0,0.0,0.0,0.0,0.0,0.0,0.0,0.0,0.0,0.0,0.0,0.0,0.0,0.0,0.0,0.0,0.0,0.0,0.0,0.0,0.0,0.0,0.0,0.0,0.0,0.0,0.0,0.0,0.0,0.0,0.0,0.0,0.0,0.0,0.0,0.0,0.0,0.0,0.0,0.0,0.0,0.0,0.0,0.0,0.0,0.0,0.0,0.0,0.0,0.0,0.0,0.0,0.0,0.0,0.0,0.0,0.0,0.0,0.0,0.0,0.0,0.0,0.0,0.0,0.0,0.0,0.0,0.0,0.0,0.0,0.0,0.0,0.0,0.0,0.0,0.0,0.0,0.0,0.0,0.0,0.0,0.0,0.0,0.0,0.0,0.0,0.0,0.0,0.0,0.0,0.0,0.0,0.0,0.0,0.0,0.0,0.0,0.0,0.0,0.0,0.0,0.0,0.0,0.0,0.0,0.0,0.0,0.0,0.0,0.0,0.0,0.0,0.0,0.0,0.0,0.0,0.0,0.0,0.0,0.0,0.0,0.0,0.0,0.0,0.0,0.0,0.0,0.0,0.0,0.0,0.0,0.0,0.0,0.0,0.0,0.0,0.0,0.0,0.0,0.0,0.0,0.0,0.0,0.0,0.0,0.0,0.0,0.0,0.0,0.0,0.0,0.0,0.0,0.0,0.0,0.0,0.0,0.0,0.0,0.0,0.0,0.0,0.0,0.0,0.0,0.0,0.0,0.0,0.0,0.0,0.0,0.0,0.0,0.0,0.0,0.0,0.0,0.0,0.0,0.0,0.0,0.0,0.0,0.0,0.0,0.0,0.0,0.0,0.0,0.0,0.0,0.0,0.0,0.0,0.0,0.0,0.0,0.0,0.0,0.0,0.0,0.0,0.0,0.0,0.0,0.0,0.0,0.0,0.0,0.0,0.0,0.0,0.0,0.0,0.0,0.0,0.0,0.0,0.0,0.0,0.0,0.0,0.0,0.0,0.0,0.0,0.0,0.0,0.0,0.0,0.0,0.0,0.0,0.0,0.0,0.0,0.0,0.0,0.0,0.0,0.0,0.0,0.0,0.0,0.0,0.0,0.0,0.0,0.0,0.0,0.0,0.0,0.0,0.0,0.0,0.0,0.0,0.0,0.0,0.0,0.0,0.0,0.0,0.0,0.0,0.0,0.0,0.0,0.0,0.0,0.0,0.0,0.0,0.0,0.0,0.0,0.0,0.0,0.0,0.0,0.0,0.0,0.0,0.0,0.0,0.0,0.0,0.0,0.0,0.0,0.0,0.0,0.0,0.0,0.0,0.0,0.0,0.0,0.0,0.0,0.0,0.0,0.0,0.0,0.0,0.0,0.0,0.0,0.0,0.0,0.0,0.0,0.0,0.0,0.0,0.0,0.0,0.0,0.0,0.0,0.0,0.0,0.0,0.0,0.0,0.0,0.0,0.0,0.0,0.0,0.0,0.0,0.0,0.0,0.0,0.0,0.0,0.0,0.0,0.0,0.0,0.0,0.0,0.0,0.0,0.0,0.0,0.0,0.0,0.0,0.0,0.0,0.0,0.0,0.0,0.0,0.0,0.0,0.0,0.0,0.0,0.0,0.0,0.0,0.0,0.0,0.0,0.0,0.0,0.0,0.0,0.0,0.0,0.0,0.0,0.0,0.0,0.0,0.0,0.0,0.0,0.0,0.0,0.0,0.0,0.0,0.0,0.0,0.0,0.0,0.0,0.0,0.0,0.0,0.0,0.0,0.0,0.0,0.0,0.0,0.0,0.0,0.0,0.0,0.0,0.0,0.0,0.0,0.0,0.0,0.0,0.0,0.0,0.0,0.0,0.0,0.0,0.0,0.0,0.0,0.0,0.0,0.0,0.0,0.0,0.0,0.0,0.0,0.0,0.0,0.0,0.0,0.0,0.0,0.0,0.0,0.0,0.0,0.0,0.0,0.0,0.0,0.0,0.0,0.0,0.0,0.0,0.0,0.0,0.0,0.0,0.0,0.0,0.0,0.0,0.0,0.0,0.0,0.0,0.0,0.0,0.0,0.0,0.0,0.0,0.0,0.0,0.0,0.0,0.0,0.0,0.0,0.0,0.0,0.0,0.0,0.0,0.0,0.0,0.0,0.0,0.0,0.0,0.0,0.0,0.0,0.0,0.0,0.0,0.0,0.0,0.0,0.0,0.0,0.0,0.0,0.0,0.0,0.0,0.0,0.0,0.0,0.0,0.0,0.0,0.0,0.0,0.0,0.0,0.0,0.0,0.0,0.0,0.0,0.0,0.0,0.0,0.0,0.0,0.0,0.0,0.0,0.0,0.0,0.0,0.0,0.0,0.0,0.0,0.0,0.0,0.0,0.0,0.0,0.0,0.0,0.0,0.0,0.0,0.0,0.0,0.0,0.0,0.0,0.0,0.0,0.0,0.0,0.0,0.0,0.0,0.0,0.0,0.0,0.0,0.0,0.0,0.0,0.0,0.0,0.0,0.0,0.0,0.0,0.0,0.0,0.0,0.0,0.0,0.0,0.0,0.0,0.0,0.0,0.0,0.0,0.0,0.0,0.0,0.0,0.0,0.0,0.0,0.0,0.0,0.0,0.0,0.0,0.0,0.0,0.0,0.0,0.0,0.0,0.0,0.0,0.0,0.0,0.0,0.0,0.0,0.0,0.0,0.0,0.0,0.0,0.0,0.0,0.0,0.0,0.0,0.0,0.0,0.0,0.0,0.0,0.0,0.0,0.0,0.0,0.0,0.0,0.0,0.0,0.0,0.0,0.0,0.0,0.0,0.0,0.0,0.0,0.0,0.0,0.0,0.0,0.0,0.0,0.0,0.0,0.0,0.0,0.0,0.0,0.0,0.0,0.0,0.0,0.0,0.0,0.0,0.0,0.0,0.0,0.0,0.0,0.0,0.0,0.0,0.0,0.0,0.0,0.0,0.0,0.0,0.0,0.0,0.0,0.0,0.0,0.0,0.0,0.0,0.0,0.0,0.0,0.0,0.0,0.0,0.0,0.0,0.0,0.0,0.0,0.0,0.0,0.0,0.0,0.0,0.0,0.0,0.0,0.0,0.0,0.0,0.0,0.0,0.0,0.0,0.0,0.0,0.0,0.0,0.0,0.0,0.0,0.0,0.0,0.0,0.0,0.0,0.0,0.0,0.0,0.0,0.0,0.0,0.0,0.0,0.0,0.0,0.0,0.0,0.0,0.0,0.0,0.0,0.0,0.0,0.0,0.0,0.0,0.0,0.0,0.0,0.0,0.0,0.0,0.0,0.0,0.0,0.0,0.0,0.0,0.0,0.0,0.0,0.0,0.0,0.0,0.0,0.0,0.0,0.0,0.0,0.0,0.0,0.0,0.0,0.0,0.0,0.0,0.0,0.0,0.0,0.0,0.0,0.0,0.0,0.0,0.0,0.0,0.0,0.0,0.0,0.0,0.0,0.0,0.0,0.0,0.0,0.0,0.0,0.0,0.0,0.0,0.0,0.0,0.0,0.0,0.0,0.0,0.0,0.0,0.0,0.0,0.0,0.0,0.0,0.0,0.0,0.0,0.0,0.0,0.0,0.0,0.0,0.0,0.0,0.0,0.0,0.0,0.0,0.0,0.0,0.0,0.0,0.0,0.0,0.0,0.0,0.0,0.0,0.0,0.0,0.0,0.0,0.0,0.0,0.0,0.0,0.0,0.0,0.0,0.0,0.0,0.0,0.0,0.0,0.0,0.0,0.0,0.0,0.0,0.0,0.0,0.0,0.0,0.0,0.0,0.0,0.0,0.0,0.0,0.0,0.0,0.0,0.0,0.0,0.0,0.0,0.0,0.0,0.0,0.0,0.0,0.0,0.0,0.0,0.0,0.0,0.0,0.0,0.0,0.0,0.0,0.0,0.0,0.0,0.0,0.0,0.0,0.0,0.0,0.0,0.0,0.0,0.0,0.0,0.0,0.0,0.0,0.0,0.0,0.0,0.0,0.0,0.0,0.0,0.0,0.0,0.0,0.0,0.0,0.0,0.0,0.0,0.0,0.0,0.0,0.0,0.0,0.0,0.0,0.0,0.0,0.0,0.0,0.0,0.0,0.0,0.0,0.0,0.0,0.0,0.0,0.0,0.0,0.0,0.0,0.0,0.0,0.0,0.0,0.0,0.0,0.0,0.0,0.0,0.0,0.0,0.0,0.0,0.0,0.0,0.0,0.0,0.0,0.0,0.0,0.0,0.0,0.0,0.0,0.0,0.0,0.0,0.0,0.0,0.0,0.0,0.0,0.0,0.0,0.0,0.0,0.0,0.0,0.0,0.0,0.0,0.0,0.0,0.0,0.0,0.0,0.0,-2.457,-2.3301,0.0,0.0,0.0,0.0,0.0,0.0,0.0,0.0,0.0,0.0,0.0,0.0,0.0,0.0,0.0,0.0,0.0,0.0,0.0,0.0,0.0,0.0,0.0,-1.3641,-1.3963,-1.4282,-1.4311,0.0,0.0,0.0,0.0,0.0,0.0,0.0,0.0,0.0,-1.4921,-1.5211,-1.6338,-1.733,-1.8166,-1.7812,-1.7222,-1.6375,0.0,0.0,0.0,0.0,0.0,0.0,0.0,0.0,0.0,0.0,0.0,0.0,0.0,0.0,0.0,0.0,0.0,0.0,0.0,0.0,0.0,0.0,0.0,0.0,0.0,0.0,0.0,0.0,0.0,0.0,0.0,0.0,0.0,0.0,0.0,0.0,0.0,0.0,0.0,0.0,0.0,0.0,0.0,0.0,0.0,0.0,0.0,0.0,0.0,0.0,0.0,0.0,0.0,0.0,0.0,0.0,0.0,0.0,0.0,0.0,0.0,0.0,0.0,0.0,0.0,0.0,0.0,0.0,0.0,0.0,-2.7369,-2.5586,0.0,0.0,0.0,0.0,0.0,0.0,0.0,0.0,0.0,0.0,0.0,0.0,0.0,0.0,0.0,0.0,0.0,0.0,0.0,0.0,0.0,-1.3932,-1.4427,-1.4689,-1.5037,-1.5589,-1.5647,-1.5414,-1.4863,-1.4805,0.0,0.0,0.0,0.0,0.0,-1.5531,-1.6192,-1.6733,-1.8177,-1.9445,-2.0518,-2.0552,-2.0074,-1.9135,-1.8302,0.0,0.0,0.0,0.0,0.0,0.0,0.0,0.0,0.0,0.0,0.0,0.0,0.0,0.0,0.0,0.0,0.0,0.0,0.0,0.0,0.0,0.0,0.0,0.0,0.0,0.0,0.0,0.0,0.0,0.0,0.0,0.0,0.0,0.0,0.0,0.0,0.0,0.0,0.0,0.0,0.0,0.0,0.0,0.0,0.0,0.0,0.0,0.0,0.0,0.0,0.0,0.0,0.0,0.0,0.0,0.0,0.0,0.0,0.0,0.0,0.0,0.0,0.0,-3.0683,-3.1662,-3.2516,-3.2993,-3.3771,-3.45,-3.0256,-2.8323,-2.8097,-2.7444,0.0,0.0,0.0,0.0,0.0,0.0,0.0,0.0,0.0,0.0,0.0,0.0,0.0,0.0,0.0,0.0,0.0,0.0,0.0,-1.5095,-1.5182,-1.6169,-1.6866,-1.6953,-1.6953,-1.6924,-1.6837,-1.6837,0.0,0.0,0.0,0.0,-1.5966,-1.7708,-1.8674,-1.8803,-2.0448,-2.1353,-2.1553,-2.1949,-2.2331,-2.2603,-2.0238,-1.8834,-1.8362,0.0,0.0,0.0,0.0,0.0,0.0,0.0,0.0,0.0,0.0,0.0,0.0,0.0,0.0,0.0,0.0,0.0,0.0,0.0,0.0,0.0,0.0,0.0,0.0,0.0,0.0,0.0,0.0,0.0,0.0,0.0,0.0,0.0,0.0,0.0,0.0,0.0,0.0,0.0,0.0,0.0,-2.2218,-2.1903,0.0,0.0,0.0,0.0,0.0,0.0,0.0,0.0,0.0,0.0,0.0,0.0,0.0,-2.8699,-3.0608,-3.1311,-3.1964,-3.2541,-3.3169,-3.3545,-3.3671,-3.3746,-3.4123,-3.465,-3.352,0.0,-3.1486,-3.0482,0.0,0.0,0.0,0.0,0.0,0.0,0.0,0.0,0.0,0.0,0.0,0.0,0.0,0.0,0.0,0.0,0.0,0.0,0.0,0.0,0.0,-1.7737,-1.8288,-1.8288,-1.8608,-1.8521,-1.7824,-1.7766,0.0,0.0,0.0,-1.7795,-1.7824,-1.9238,-2.0344,-2.1075,-2.2481,-2.316,-2.329,-2.3889,-2.4344,-2.4607,-2.3286,-2.1837,-2.0373,-2.0109,0.0,0.0,0.0,0.0,0.0,0.0,0.0,0.0,0.0,0.0,0.0,0.0,0.0,0.0,0.0,0.0,0.0,0.0,0.0,0.0,0.0,0.0,0.0,0.0,0.0,0.0,0.0,0.0,0.0,0.0,0.0,0.0,0.0,0.0,0.0,0.0,0.0,0.0,0.0,-2.2541,-2.3867,-2.3653,-2.4869,-2.5499,0.0,0.0,0.0,0.0,0.0,0.0,0.0,0.0,0.0,-2.993,-3.0557,-3.1512,-3.2792,-3.3345,-3.3897,-3.4474,-3.5328,-3.5906,-3.6232,-3.6533,-3.6985,-3.7487,-3.6935,-3.6232,-3.5278,-3.2968,-3.1863,-3.1612,0.0,0.0,0.0,0.0,-3.0909,-3.0633,0.0,0.0,0.0,0.0,0.0,0.0,0.0,0.0,0.0,0.0,0.0,0.0,-1.8375,-1.8985,-1.942,-1.9566,-2.003,-1.9914,-1.8985,-1.8927,-1.8695,-1.8201,-1.8811,-1.9391,-1.9827,-2.1053,-2.2254,-2.349,-2.4448,-2.4943,-2.4902,-2.5581,-2.5948,-2.5948,-2.5804,-2.4478,-2.2482,-2.1981,-2.1125,-2.0074,0.0,0.0,0.0,0.0,0.0,0.0,0.0,0.0,0.0,0.0,0.0,0.0,0.0,0.0,0.0,0.0,0.0,0.0,0.0,0.0,0.0,0.0,0.0,0.0,0.0,0.0,0.0,0.0,0.0,0.0,0.0,0.0,0.0,0.0,0.0,0.0,0.0,-2.4004,-2.5335,-2.5636,-2.6515,-2.7143,0.0,0.0,0.0,0.0,0.0,0.0,-2.9955,-3.1286,-3.2089,-3.224,-3.3194,-3.4048,-3.4726,-3.5429,-3.5981,-3.6408,-3.7513,-3.8241,-3.8668,-3.9094,-3.9597,-4.0074,-3.9521,-3.9044,-3.8417,-3.5378,-3.4048,-3.3947,-3.4223,-3.4324,-3.4349,-3.4625,-3.4449,-3.4123,0.0,0.0,0.0,0.0,0.0,0.0,0.0,0.0,0.0,0.0,0.0,-1.8375,-1.8985,-1.9653,-2.0291,-2.0843,-2.093,-2.093,-2.0872,-2.0843,-2.0843,-2.0814,-2.1452,-2.183,-2.1859,-2.3565,-2.4945,-2.5845,-2.6332,-2.6406,-2.607,-2.6574,-2.6839,-2.6839,-2.6839,-2.5925,-2.4338,-2.4008,-2.3223,-2.2068,-2.1223,0.0,0.0,0.0,0.0,0.0,0.0,0.0,0.0,0.0,0.0,0.0,0.0,0.0,0.0,0.0,0.0,0.0,0.0,0.0,0.0,0.0,0.0,0.0,0.0,0.0,0.0,0.0,0.0,0.0,0.0,0.0,0.0,0.0,0.0,0.0,0.0,0.0,0.0,-2.7821,-2.8448,0.0,0.0,0.0,0.0,-3.111,-3.121,-3.1712,-3.2817,-3.3445,-3.4022,-3.455,-3.5127,-3.5931,-3.701,-3.8115,-3.8668,-3.8718,-3.9823,-4.0375,-4.04,-4.0425,-4.0727,-4.1229,-4.0676,-4.0425,-4.0224,-3.7914,-3.6659,-3.6157,-3.5655,-3.5454,-3.5403,-3.4901,-3.47,-3.4675,0.0,0.0,0.0,-1.2018,-1.2599,-1.3382,-1.4456,-1.5705,-1.675,-1.7417,-1.8637,-1.9653,-2.0262,-2.1278,-2.1961,-2.2193,-2.2614,-2.2672,-2.2221,-2.2193,-2.2193,-2.2193,-2.3252,-2.4393,-2.5643,-2.6031,-2.6622,-2.7285,-2.7454,-2.7429,-2.7378,-2.812,-2.845,-2.8474,-2.8811,-2.845,-2.7488,-2.5997,-2.4912,-2.414,-2.3296,-2.2287,0.0,0.0,0.0,0.0,0.0,0.0,0.0,0.0,0.0,0.0,0.0,0.0,0.0,0.0,0.0,0.0,0.0,0.0,0.0,0.0,0.0,0.0,0.0,0.0,0.0,0.0,0.0,0.0,0.0,0.0,0.0,0.0,0.0,0.0,0.0,0.0,0.0,-2.9628,-3.0507,0.0,-3.1838,-3.1913,-3.2215,-3.2943,-3.3345,-3.3872,-3.4625,-3.5529,-3.6257,-3.681,-3.7387,-3.8216,-3.932,-3.9722,-4.0099,-4.0475,-4.0852,-4.1053,-4.1053,-4.1053,-4.1354,-4.1856,-4.1656,-4.1781,-4.2032,-4.1229,-3.9973,-3.8517,-3.8693,-3.8743,-3.8768,-3.8919,-3.8768,-3.8442,0.0,0.0,0.0,-1.2657,-1.3266,-1.405,-1.5153,-1.6401,-1.7505,-1.8404,-1.9624,-2.0727,-2.1569,-2.2772,-2.3612,-2.3891,-2.45,-2.4704,-2.4268,-2.4239,-2.4239,-2.4239,-2.5458,-2.6874,-2.8443,-2.8175,-2.8278,-2.8627,-2.8599,-2.8548,-2.8494,-2.9229,-2.9556,-2.9581,-2.9941,-2.9893,-2.9484,-2.8041,-2.6935,-2.6021,-2.5102,-2.4135,-2.3216,0.0,0.0,0.0,0.0,0.0,0.0,0.0,0.0,0.0,0.0,0.0,0.0,0.0,0.0,0.0,0.0,0.0,0.0,0.0,0.0,0.0,0.0,0.0,0.0,0.0,0.0,0.0,0.0,0.0,0.0,0.0,0.0,0.0,0.0,-2.9252,-3.0407,-3.1336,-3.239,-3.3294,-3.3847,-3.4073,-3.4424,-3.4977,-3.5529,-3.6081,-3.6634,-3.7713,-3.8467,-3.8843,-3.9396,-4.0149,-4.1053,-4.1254,-4.163,-4.2183,-4.2359,-4.2559,-4.2735,-4.2534,-4.276,-4.3263,-4.3062,-4.3187,-4.3539,-4.3539,-4.2685,-4.1354,-4.1354,-4.1354,-4.1379,-4.1756,-4.1656,-4.1379,0.0,0.0,-1.3409,-1.3409,-1.3934,-1.4544,-1.5269,-1.643,-1.7708,-1.8956,-2.0233,-2.154,-2.2772,-2.4076,-2.5139,-2.5778,-2.6445,-2.6852,-2.6852,-2.6852,-2.6852,-2.691,-2.81,-2.9175,-3.005,-3.0008,-2.9936,-2.9965,-2.9692,-2.9537,-2.934,-2.9869,-3.011,-3.011,-3.0134,-3.0134,-3.011,-3.011,-2.922,-2.7705,-2.6598,-2.5853,-2.5276,0.0,0.0,0.0,0.0,0.0,0.0,0.0,0.0,0.0,0.0,0.0,0.0,0.0,0.0,0.0,0.0,0.0,0.0,0.0,0.0,0.0,0.0,0.0,0.0,0.0,0.0,0.0,0.0,0.0,0.0,0.0,0.0,0.0,-2.9955,-3.0382,-3.1336,-3.2968,-3.4123,-3.5027,-3.5579,-3.6107,-3.6659,-3.7211,-3.7764,-3.8341,-3.8919,-3.9973,-4.0576,-4.0601,-4.1128,-4.1681,-4.2258,-4.276,-4.3313,-4.3865,-4.4367,-4.492,-4.5447,-4.4895,-4.4945,-4.5447,-4.4895,-4.4669,-4.4694,-4.4694,-4.4719,-4.4618,-4.3463,-4.3037,-4.3037,-4.3037,-4.3037,-4.3112,-1.3496,-1.338,-1.3554,-1.3963,-1.4602,-1.5414,-1.6518,-1.7388,-1.8375,-1.9653,-2.093,-2.2207,-2.3484,-2.5197,-2.6504,-2.7142,-2.7781,-2.8158,-2.8158,-2.8158,-2.8565,-2.9493,-3.0067,-3.0917,-3.2111,-3.1103,-3.0831,-3.1211,-3.0461,-2.9951,-2.9893,-3.0422,-3.0663,-3.0687,-3.1048,-3.1023,-3.0663,-3.0663,-3.0182,-2.934,-2.8282,-2.7536,-2.6935,0.0,0.0,0.0,0.0,0.0,0.0,0.0,0.0,0.0,0.0,0.0,0.0,0.0,0.0,0.0,0.0,0.0,0.0,0.0,0.0,0.0,0.0,0.0,0.0,0.0,0.0,0.0,0.0,0.0,0.0,0.0,-3.0733,-3.126,-3.1512,-3.2717,-3.3922,-3.4776,-3.583,-3.6734,-3.7287,-3.7839,-3.8417,-3.8969,-3.9521,-4.0074,-4.0626,-4.1329,-4.1882,-4.2283,-4.2836,-4.3589,-4.4568,-4.4317,-4.4468,-4.502,-4.4744,-4.4719,-4.4844,-4.4694,-4.4945,-4.5472,-4.5321,-4.5698,-4.6451,-4.6451,-4.6652,-4.6803,-4.492,-4.4166,-4.4166,-4.4166,-4.4166,-4.4192,-1.4253,-1.4223,-1.4311,-1.466,-1.5269,-1.6024,-1.704,-1.7766,-1.8753,-2.0291,-2.1365,-2.2585,-2.4123,-2.601,-2.7432,-2.8071,-2.8942,-2.9464,-2.9464,-2.9726,-3.0335,-3.1351,-3.1801,-3.2233,-3.2613,-3.2148,-3.1803,-3.1448,-3.1065,-3.0753,-3.0422,-3.0951,-3.1216,-3.1216,-3.1529,-3.1504,-3.1216,-3.1216,-3.0903,-3.0374,-2.9749,-2.9196,-2.8595,-2.7613,-2.6986,-2.6478,-2.5344,-2.4599,-2.4261,-2.3862,0.0,0.0,0.0,0.0,0.0,0.0,0.0,0.0,0.0,0.0,0.0,0.0,0.0,0.0,0.0,0.0,0.0,0.0,0.0,0.0,0.0,0.0,0.0,0.0,-3.2641,-3.3395,-3.4173,-3.4751,-3.5353,-3.6132,-3.7412,-3.8366,-3.8693,-3.9446,-4.0049,-4.035,-4.1103,-4.1681,-4.2007,-4.2986,-4.3589,-4.3664,-4.4217,-4.4945,-4.5824,-4.5497,-4.5723,-4.6502,-4.615,-4.6125,-4.6351,-4.61,-4.6326,-4.6853,-4.6602,-4.6878,-4.7456,-4.7456,-4.7631,-4.7782,0.0,0.0,0.0,0.0,-4.6652,-4.7054,-1.5298,-1.5298,-1.5298,-1.5298,-1.5879,-1.6518,-1.7127,-1.7824,-1.8927,-2.0669,-2.154,-2.2701,-2.4481,-2.6393,-2.7897,-2.8507,-2.9726,-3.0539,-3.0655,-3.1264,-3.1932,-3.26,-3.3173,-3.3188,-3.2567,-3.3063,-3.2675,-3.1342,-3.177,-3.1649,-3.0975,-3.1456,-3.1697,-3.1745,-3.1745,-3.1793,-3.1841,-3.1841,-3.1577,-3.1144,-3.1144,-3.0711,-2.9989,-2.9051,-2.8691,-2.8498,-2.6983,-2.6454,-2.6382,-2.5996,0.0,0.0,0.0,0.0,0.0,0.0,0.0,0.0,0.0,0.0,0.0,0.0,0.0,0.0,0.0,0.0,0.0,0.0,0.0,0.0,0.0,0.0,0.0,0.0,-3.5002,-3.6132,-3.7312,-3.6634,-3.6383,-3.7337,-3.8843,-3.9798,-3.9873,-4.0877,-4.153,-4.153,-4.261,-4.3237,-4.3162,-4.4769,0.0,0.0,0.0,-4.6024,-4.6577,-4.6527,-4.7004,-4.8008,-4.7933,-4.8184,-4.8661,-4.8134,-4.8184,-4.8636,-4.8134,-4.7933,-4.8008,-4.8008,-4.8033,-4.8083,-4.7958,-4.7908,-4.7958,-4.8485,-4.9289,-5.0142,-1.5298,-1.5298,-1.5298,-1.5298,-1.6256,-1.7069,-1.7185,-1.8172,-1.9246,-2.0146,-2.1278,-2.2527,-2.392,-2.5807,-2.7229,-2.7868,-2.9087,-3.0248,-3.1264,-3.1961,-3.26,-3.3267,-3.3339,-3.3605,-3.4256,-3.3505,-3.3055,-3.2927,-3.2726,-3.2247,-3.1504,-3.1625,-3.1913,-3.2346,-3.2346,-3.2587,-3.2971,-3.2971,-3.2923,-3.2827,-3.2827,-3.1721,-3.0062,-2.9869,-2.9773,-2.9677,-2.8955,-2.8691,-2.8546,-2.7584,-2.72,-2.701,-2.6238,-2.5873,0.0,0.0,0.0,0.0,0.0,0.0,0.0,0.0,0.0,0.0,0.0,0.0,0.0,0.0,0.0,0.0,0.0,0.0,0.0,-3.5102,-3.6157,-3.7412,-3.8994,-3.9019,-3.8969,-3.9195,-3.9898,-4.0526,-4.0978,-4.2007,-4.266,-4.266,-4.4116,-4.4794,-4.4342,-4.5899,-4.6552,-4.5999,-4.6928,-4.7707,-4.8284,-4.7832,-4.7933,-4.8611,-4.8134,0.0,-4.8083,-4.7958,-4.7958,-4.8083,-4.7958,-4.8184,-4.8611,-4.8611,-4.8862,-4.9188,-4.8259,-4.7908,-4.7933,-4.8033,-4.8209,-4.8385,-1.5298,-1.5298,-1.5298,-1.5298,-1.6372,-1.7214,-1.7214,-1.8288,-1.9333,-2.0001,-2.064,-2.1656,-2.3252,-2.4849,-2.6213,-2.7171,-2.871,-3.0306,-3.1932,-3.2338,-3.2948,-3.3906,-3.3887,-3.407,-3.4412,-3.4242,-3.3738,-3.3075,-3.3219,-3.2742,-3.1673,-3.1961,-3.2226,-3.2515,-3.2779,-3.3044,-3.3284,-3.3284,-3.3284,-3.3284,-3.3284,-3.2659,-3.1625,-3.1096,-3.0879,-3.0783,-2.9989,-2.9701,-2.9605,-2.9076,-2.8907,-2.8715,-2.7734,-2.7472,-2.7303,0.0,0.0,0.0,0.0,0.0,0.0,0.0,0.0,0.0,0.0,0.0,0.0,0.0,0.0,-3.2842,-3.337,0.0,-3.6132,-3.6684,-3.7713,-3.8843,-3.9948,-4.035,-4.0526,-4.0526,-4.1003,-4.1555,-4.2108,-4.3162,-4.379,-4.379,-4.5347,-4.6075,-4.5497,-4.7054,-4.7682,-4.7129,-4.7908,-4.8485,-4.8761,-4.8485,-4.8636,-4.9188,-4.8887,-4.8761,-4.8761,-4.8761,-4.8761,-4.8761,-4.9038,-4.9314,-4.9615,-4.9916,-5.0193,-5.0368,-4.9816,-4.9414,-4.9163,-4.9163,-4.9339,-4.959,-1.5298,-1.5298,-1.5298,-1.5298,-1.6372,-1.7214,-1.7214,-1.8288,-1.9304,-1.9827,-2.003,-2.0727,-2.2337,-2.367,-2.5081,-2.6649,-2.8419,-3.0248,-3.2193,-3.2454,-3.3093,-3.4341,-3.4332,-3.4266,-3.4393,-3.4752,-3.4399,-3.3173,-3.3579,-3.3129,-3.1937,-3.234,-3.2563,-3.2683,-3.3212,-3.3501,-3.3597,-3.3597,-3.3597,-3.3597,-3.3597,-3.3597,-3.3477,-3.2394,-3.1913,-3.1697,-3.0735,-3.0398,-3.0374,-3.0278,-3.023,-3.0086,-2.9124,-2.8739,-2.8522,-2.7985,-2.7597,0.0,0.0,0.0,0.0,0.0,0.0,0.0,0.0,-3.1185,-3.2039,-3.2591,-3.3947,-3.5077,-3.5177,-3.6458,-3.7688,-3.8241,-3.9195,-4.0074,-4.0752,-4.1304,-4.1706,-4.1806,-4.2208,-4.2685,-4.3237,-4.4292,-4.4945,-4.4945,-4.6401,-4.7104,-4.6652,-4.8083,-4.8661,-4.8083,-4.8636,-4.8937,-4.8937,-4.8937,-4.9213,-4.9766,-4.9766,-4.9816,-4.9916,-4.9916,-4.9916,-4.9941,-5.0393,-5.0569,-5.0619,-5.1096,-5.1272,-5.1272,-5.1272,-5.0996,-5.0569,-5.0569,-5.087,-5.1272,-1.5298,-1.5298,-1.5298,-1.5298,-1.6372,-1.7214,-1.7214,-1.8288,-1.913,-1.9188,-1.974,-2.0378,-2.1133,-2.2337,-2.4076,-2.6562,-2.8013,-2.9581,-3.1496,-3.2193,-3.3093,-3.4341,-3.4059,-3.4186,-3.4938,-3.4752,-3.4566,-3.4459,-3.3927,-3.33,-3.255,-3.2495,-3.2755,-3.3212,-3.3741,-3.4222,-3.4655,-3.4655,-3.4655,-3.4655,-3.4655,-3.4655,-3.4535,-3.3501,-3.2827,-3.2322,-3.1721,-3.148,-3.1408,-3.0951,-3.0783,-3.0687,-3.0086,-2.9581,-2.9268,-2.9629,-2.9076,-2.8505,-2.9173,-2.9671,-3.001,-3.0399,-3.119,-3.1989,0.0,-3.3169,-3.3771,-3.4324,-3.5353,-3.6332,-3.681,-3.7889,-3.8868,-3.9421,-4.0023,-4.0777,-4.1831,-4.2434,-4.2986,-4.3463,-4.3589,-4.384,-4.4392,-4.5472,-4.6125,-4.6125,-4.7179,-4.7782,-4.7732,-4.8862,-4.9238,-4.8686,-4.9213,-4.9515,-4.9515,-4.9515,-4.9766,-5.0318,-5.0318,-5.0594,-5.1096,-5.1096,-5.1096,-5.1096,-5.1147,-5.1197,-5.1197,-5.1247,-5.1272,-5.1272,-5.1272,-5.1247,-5.1197,-5.1197,-5.1222,-5.1272,-1.5298,-1.5298,-1.5298,-1.5298,-1.6372,-1.7214,-1.7214,-1.8288,-1.9101,-1.9101,-1.9333,-1.9769,-2.0407,-2.1903,-2.3786,-2.601,-2.7055,-2.8536,-3.0829,-3.1584,-3.2513,-3.3819,-3.4062,-3.4282,-3.459,-3.4762,-3.4662,-3.4228,-3.3882,-3.3386,-3.2723,-3.2585,-3.2779,-3.3308,-3.3813,-3.4342,-3.4823,-3.4823,-3.4823,-3.4823,-3.4823,-3.4655,-3.4294,-3.3573,-3.2971,-3.2418,-3.1865,-3.1673,0.0,-3.1408,-3.1336,-3.124,-3.0711,-3.0398,-3.0206,-3.0277,-2.9856,-2.9639,-3.0504,-3.1122,-3.166,-3.2204,-3.3009,-3.3734,-3.4195,-3.5086,-3.5881,-3.6107,-3.7036,-3.799,-3.8542,-3.9295,-3.9998,-4.0551,-4.1103,-4.1856,-4.2961,-4.3313,-4.3915,-4.5121,-4.5547,-4.5698,-4.5623,-4.6326,-4.6928,-4.723,-4.8259,-4.8736,-4.8435,-4.9163,-4.949,-4.9264,-4.9464,-4.9741,-5.0067,-5.0067,-5.0368,-5.0921,-5.0921,-5.1046,-5.1272,-5.1272,-5.1448,-5.1749,-5.1749,-5.195,-5.2226,-5.2226,-5.2226,-5.2226,-5.2226,-5.2226,-5.2176,-5.1523,-5.1272,-5.1272,-1.5298,-1.5298,-1.5298,-1.5298,-1.6372,-1.7214,-1.7214,-1.8288,-1.9101,-1.9101,-1.9101,-1.9362,-2.003,-2.1481,-2.3062,-2.4849,-2.5923,-2.7432,-2.9639,-3.0713,-3.1845,-3.3151,-3.3819,-3.4174,-3.434,-3.4747,-3.4657,-3.4019,-3.3766,-3.3301,-3.2732,-3.2601,-3.2707,-3.3092,-3.3597,-3.4054,-3.4414,-3.4414,-3.4414,-3.4414,-3.4414,-3.4174,-3.3765,-3.3092,-3.2611,-3.2226,-3.1817,-3.1673,-3.1673,-3.1673,-3.1673,-3.1601,-3.1216,-3.1096,-3.1134,-3.0979,-3.1003,-3.1182,-3.2064,-3.2592,-3.3122,-3.3991,-3.4736,-3.5369,-3.573,-3.6768,-3.7638,-3.7638,-3.8542,-3.9343,-3.9848,-4.027,-4.0821,-4.148,-4.2158,-4.2886,-4.3689,-4.4342,-4.5121,-4.6175,-4.6928,-4.7255,-4.7004,-4.7355,-4.7732,-4.8109,-4.8912,-4.9264,-4.9012,-4.9389,-4.9665,-4.9816,-4.9816,-5.0092,-5.0645,-5.067,-5.0946,-5.1498,-5.1498,-5.1599,-5.1724,-5.1724,-5.195,-5.2327,-5.2327,-5.2553,-5.2929,-5.2929,-5.2929,-5.2929,-5.2929,-5.2929,-5.2829,-5.2026,-5.1724,-5.1724,-1.5298,-1.5298,-1.5298,-1.5298,-1.6372,-1.7214,-1.7214,-1.8288,-1.9101,-1.9101,-1.9101,-1.9362,-2.003,-2.0669,-2.1598,-2.2859,-2.4733,-2.6387,-2.7723,-2.9552,-3.1177,-3.2483,-3.3151,-3.3879,-3.4668,-3.4725,-3.4607,-3.4506,-3.3728,-3.3209,-3.2797,-3.2582,-3.2515,-3.2539,-3.3068,-3.3308,-3.3332,-3.3332,-3.3332,-3.3332,-3.3332,-3.3332,-3.3188,-3.213,-3.1697,-3.1697,-3.1673,-3.1673,-3.1673,-3.1673,-3.1673,-3.1673,-3.1649,-3.1649,-3.1745,-3.2274,-3.2779,-3.3308,-3.3813,-3.4147,-3.4603,-3.5649,-3.6333,-3.6897,-3.7444,-3.8216,-3.8818,-3.8818,-3.949,-4.0134,-4.037,-4.0714,-4.1155,-4.2032,-4.3037,-4.3765,-4.379,-4.5673,-4.6853,-4.6376,-4.723,-4.8109,-4.8636,-4.8711,-4.8736,-4.8736,-4.8786,-4.9012,-4.954,-4.959,-4.9841,-5.0368,-5.0393,-5.067,-5.1247,-5.1247,-5.1523,-5.2076,-5.2076,-5.2352,-5.2879,-5.2879,-5.2879,-5.2904,-5.2904,-5.2904,-5.2929,-5.2929,-5.2929,-5.2929,-5.2929,-5.2929,-5.2929,-5.2879,-5.2879,-5.2879,-1.6576,-1.6576,-1.6576,-1.6576,-1.7301,-1.7882,-1.7882,-1.8579,-1.9101,-1.9101,-1.9101,0.0,0.0,0.0,0.0,0.0,-2.302,-2.4617,-2.6329,-2.7839,-2.9435,-3.1148,-3.1845,-3.258,-3.3511,-3.387,-3.403,-3.3919,-3.3584,-3.3093,-3.229,-3.1704,-3.1699,-3.1961,-3.213,-3.2611,-3.3284,-3.3284,-3.3284,-3.326,-3.2899,-3.2539,-3.213,-3.1408,-3.0927,-3.0615,0.0,-3.07,-3.0858,-3.111,-3.1231,-3.139,-3.1641,-3.1913,-3.2322,-3.2875,-3.3739,-3.4653,-3.4703,-3.5381,-3.6184,-3.6889,-3.7286,-3.7636,-3.8074,-3.8551,-3.8778,-3.8778,-3.9074,-3.9544,-4.0285,-4.0666,-4.132,-4.2725,-4.345,-4.4317,-4.5799,-4.6652,-4.733,-4.7883,-4.8586,-4.8962,-4.8786,-4.8761,-4.8912,-4.9289,-4.9314,-4.9565,-5.0117,-5.0142,-5.0393,-5.0971,-5.0996,-5.1272,-5.1825,-5.1825,-5.2101,-5.2653,-5.2653,-5.2754,-5.2929,-5.2929,-5.2929,-5.2929,-5.2929,-5.2929,-5.2929,-5.2929,-5.2929,-5.2929,-5.2929,-5.2929,-5.2929,-5.2929,-5.2929,-5.2929,0.0,-1.7214,-1.7214,-1.7214,-1.7766,0.0,0.0,0.0,0.0,0.0,0.0,0.0,0.0,0.0,0.0,0.0,0.0,-2.3223,-2.4675,-2.6416,-2.8042,-2.9493,-3.0597,-3.1546,-3.2392,-3.2987,-3.3346,-3.331,-3.2942,-3.2511,-3.215,-3.1179,-3.0929,-3.1442,-3.1182,-3.148,-3.2154,-3.2154,-3.2587,-3.3188,-3.2082,-3.1889,-3.2106,-3.0807,-3.011,0.0,-2.9581,-2.9697,-2.9958,-3.0435,-3.0906,-3.1234,-3.168,-3.2478,-3.3281,-3.3909,-3.4679,-3.5404,-3.5767,-3.6372,-3.7025,-3.7661,-3.7886,-3.8191,-3.8323,-3.8631,-3.8841,-3.8841,-3.8883,-3.93,-4.0316,-4.0745,-4.1558,-4.302,-4.3796,-4.4811,-4.6634,-4.7208,-4.7933,-4.8962,-4.9389,-4.9464,-4.9113,-4.9238,-4.9414,-4.959,-4.9766,-5.0042,-5.0393,-5.0619,-5.0996,-5.1548,-5.1574,-5.185,-5.2402,-5.2402,-5.2578,-5.2929,-5.2929,-5.2929,-5.2929,-5.2929,-5.2929,-5.2929,-5.2929,-5.2929,-5.2929,-5.2929,-5.2929,-5.2929,-5.2929,-5.2929,-5.2929,-5.2929,-5.2929,-5.2929,0.0,0.0,-1.7301,0.0,0.0,0.0,0.0,0.0,0.0,0.0,0.0,0.0,0.0,0.0,0.0,0.0,0.0,0.0,-2.2801,-2.5226,-2.691,-2.7636,-2.9406,-3.0713,-3.1467,-3.2106,-3.2551,-3.2854,-3.1837,-3.175,-3.2386,-3.0798,-3.0382,-3.0877,-3.0348,-3.0145,-3.0086,-3.0086,-3.1264,-3.2947,-3.0879,-3.124,-3.2755,-3.0182,-2.9196,-2.9124,-2.8643,-2.8712,-2.9175,-2.9866,-3.0616,-3.1369,-3.1928,-3.3193,-3.4581,-3.5403,-3.5665,-3.5905,-3.6916,-3.7204,-3.7348,-3.7853,-3.821,-3.8421,-3.8421,-3.8631,-3.8736,-3.8736,-3.8916,-3.9453,-4.0232,-4.0881,-4.1619,-4.27,-4.4017,-4.5345,-4.6488,-4.7582,-4.8579,-4.954,-4.9615,-4.964,-4.964,-5.0117,-5.0218,-4.9715,-5.0167,-5.0469,-5.0494,-5.1021,-5.1574,-5.2126,-5.2151,-5.2402,-5.2929,-5.2929,-5.2929,-5.2929,-5.2929,-5.2929,-5.2929,-5.2929,-5.2929,-5.2929,-5.2929,-5.2929,-5.2929,-5.2929,-5.2929,-5.2929,-5.2929,-5.2929,-5.2929,-5.2929,-5.2929,-5.2929,0.0,0.0,0.0,0.0,0.0,0.0,0.0,0.0,0.0,0.0,0.0,0.0,0.0,0.0,0.0,0.0,0.0,0.0,-2.2149,-2.3281,-2.4849,-2.6939,-2.749,-2.871,-3.0771,-3.0974,-3.1426,-3.2168,-3.1914,-3.1241,-3.0209,-3.0229,-2.9985,-2.9628,-2.9805,-3.0196,-3.0504,-3.042,-3.0676,-3.1003,-2.9977,-2.9605,-2.9605,-2.8681,-2.8028,-2.756,-2.798,-2.8208,-2.8378,-2.9229,-3.0459,-3.1713,-3.2678,-3.3787,-3.4848,-3.5425,-3.617,-3.6843,-3.7132,-3.7469,-3.7805,-3.795,-3.808,-3.808,-3.808,-3.8185,-3.8185,-3.8185,-3.8306,-3.8466,-3.9129,-4.0098,-4.1029,-4.2086,-4.3656,-4.5254,-4.6781,-4.7958,-4.886,-4.954,-4.9967,-5.0218,-5.0218,-5.0343,-5.0544,-5.082,-5.0971,-5.1247,-5.1649,-5.1825,-5.2151,-5.2703,-5.2729,-5.2779,-5.2929,-5.2929,-5.2929,-5.2929,-5.2929,-5.2929,-5.2929,-5.2929,-5.2929,-5.2929,-5.2929,-5.2929,-5.2929,-5.2929,-5.2929,-5.2929,-5.2929,-5.2929,-5.2929,-5.2929,-5.2929,-5.2929,0.0,0.0,0.0,0.0,0.0,0.0,0.0,0.0,0.0,0.0,0.0,0.0,0.0,0.0,0.0,0.0,0.0,0.0,0.0,-2.2221,-2.3525,-2.5023,-2.5894,-2.7142,-2.8855,-2.9174,-2.9956,-3.13,-3.0892,-3.0629,-3.0487,-3.0147,-2.9704,-2.9226,-2.9149,-2.9241,-2.9248,-2.909,-2.9569,0.0,0.0,-2.8882,-2.9238,-2.8212,-2.7403,-2.7007,-2.7742,-2.8227,-2.8681,-2.9609,-3.0882,-3.2131,-3.3039,-3.4245,-3.5379,-3.5809,-3.6555,-3.73,-3.7781,-3.8118,-3.8359,-3.8359,-3.8359,-3.8286,-3.8046,-3.7974,-3.7974,-3.7974,-3.7974,-3.8142,-3.8719,-3.9491,-4.0428,-4.1614,-4.3004,-4.4668,-4.6934,-4.7783,-4.866,-4.9841,-5.0218,-5.0287,-5.0181,-5.0738,-5.1164,-5.122,-5.1514,-5.1774,-5.1804,-5.2191,-5.2466,-5.2629,-5.2792,-5.2929,-5.2929,-5.2929,-5.2929,-5.2929,-5.2929,-5.2929,-5.2929,-5.2929,-5.2929,-5.2929,-5.2929,-5.2929,-5.2929,-5.2929,-5.2929,-5.2929,-5.2929,-5.2929,-5.2929,-5.2929,-5.2929,-5.2929,0.0,0.0,0.0,0.0,0.0,0.0,0.0,0.0,0.0,0.0,-1.9101,-1.9101,-1.9101,-1.9101,0.0,0.0,0.0,0.0,0.0,0.0,-2.2598,-2.2772,-2.4471,-2.5749,-2.6504,-2.7142,-2.8361,-3.019,-2.9351,-2.9757,-3.1297,-3.0065,-2.9326,-2.9101,-2.8595,-2.8047,-2.7582,-2.736,-2.8358,-3.0082,-2.8194,-2.846,-2.9691,0.0,-2.7163,-2.6866,-2.7597,-2.844,-2.9374,-3.0284,-3.1455,-3.2519,-3.3136,-3.4655,-3.6133,-3.6464,-3.6892,-3.7517,-3.8551,-3.8815,-3.8815,-3.8815,-3.8815,-3.8671,-3.8118,-3.7974,-3.795,-3.7902,-3.7926,-3.8118,-3.8527,-3.8935,-3.971,-4.1257,-4.2389,-4.3998,-4.6861,-4.7533,-4.8357,-4.9987,-5.0368,-5.0337,-5.0174,-5.123,-5.1718,-5.1245,-5.1793,-5.1929,-5.1632,-5.2379,-5.2654,-5.2377,-5.2792,-5.2929,-5.2792,-5.2929,-5.2929,-5.2792,-5.2929,-5.2929,-5.2792,-5.2929,-5.2929,-5.2929,-5.2929,-5.2929,-5.2929,-5.3005,-5.303,-5.303,-5.3105,-5.3155,-5.3155,-5.3155,-5.3155,-5.313,0.0,0.0,0.0,0.0,0.0,0.0,0.0,0.0,0.0,0.0,-1.9101,-1.9101,0.0,0.0,0.0,0.0,0.0,0.0,0.0,0.0,0.0,-2.212,-2.2991,-2.3931,-2.509,-2.5807,-2.6823,-2.8216,-2.8049,-2.8111,-2.8352,-2.9053,-2.8845,-2.7795,-2.8568,-2.8554,-2.795,-2.7582,-2.7729,-2.8225,-2.7506,-2.7311,-2.7311,-2.7162,0.0,0.0,-2.6992,-2.8037,-2.9003,-2.9915,-3.1182,-3.2629,-3.3573,-3.4992,-3.6464,-3.6892,-3.7421,-3.7998,-3.8647,-3.8815,-3.8815,-3.8815,-3.8815,-3.8671,-3.8118,-3.7974,-3.7853,-3.7421,-3.7685,-3.7878,-3.7541,-3.8534,-3.9575,-4.0501,-4.2535,-4.4501,-4.5892,-4.7508,-4.8785,-4.9252,-5.0012,-5.0594,-5.0964,-5.143,-5.1706,-5.2178,-5.2228,-5.2366,-5.2228,-5.2441,-5.2515,-5.2377,-5.2792,-5.2792,-5.2515,-5.2792,-5.2792,-5.2515,-5.2792,-5.2792,-5.2515,-5.2792,-5.2929,-5.2929,-5.2929,-5.2929,-5.2955,-5.3381,-5.3557,-5.3607,-5.4084,-5.4285,-5.4285,-5.4285,-5.4285,-5.421,0.0,0.0,0.0,0.0,0.0,0.0,0.0,-1.9391,-1.9624,-1.9624,-1.9885,-1.9827,-1.9159,-1.9101,-1.9101,0.0,0.0,0.0,0.0,0.0,0.0,0.0,0.0,0.0,-2.3786,-2.4471,-2.5429,-2.6707,0.0,-2.7386,-2.7655,-2.8302,-2.8057,-2.7057,-2.7249,-2.6976,-2.6346,-2.6342,-2.6466,-2.6702,-2.6763,-2.6667,-2.6445,0.0,0.0,0.0,-2.7091,-2.8044,-2.9041,-2.9973,-3.1342,-3.2841,-3.3717,-3.5136,-3.6507,-3.7036,-3.7565,-3.8166,-3.9008,-3.9032,-3.8888,-3.9152,-3.9032,-3.8671,-3.8118,-3.7757,-3.7493,-3.7252,-3.718,-3.7156,-3.718,-3.7718,-3.8558,-3.9682,-4.1484,-4.3128,-4.4512,-4.6609,-4.8109,-4.8679,-4.975,-5.0547,-5.0687,-5.1482,-5.1916,-5.1771,-5.2213,-5.2377,-5.2099,-5.2099,-5.2238,-5.2377,-5.2515,-5.2515,-5.2377,-5.2792,-5.2792,-5.2377,-5.2792,-5.2792,-5.2377,-5.2792,-5.2654,-5.2377,-5.3067,-5.3192,-5.3103,-5.3934,-5.416,-5.4185,-5.4461,-5.4561,-5.4561,-5.4561,-5.4561,-5.4536,0.0,0.0,0.0,0.0,0.0,0.0,0.0,-1.9682,-2.0088,-2.0088,-2.064,-2.0611,-1.9624,-1.9391,-1.9304,0.0,0.0,0.0,0.0,0.0,0.0,0.0,0.0,0.0,0.0,0.0,0.0,-2.5371,-2.6039,0.0,0.0,0.0,0.0,0.0,-2.603,-2.5484,-2.4793,-2.4996,-2.5236,0.0,0.0,-2.6152,0.0,0.0,0.0,0.0,0.0,-2.8071,-2.9052,-2.991,-3.1258,-3.2762,-3.3642,-3.504,-3.6507,-3.7036,-3.7565,-3.819,-3.9176,-3.9128,-3.8912,-3.932,-3.9128,-3.8647,-3.7974,-3.7493,-3.7132,-3.6892,-3.6627,-3.6507,-3.6795,-3.7036,-3.7621,-3.8907,-4.0367,-4.185,-4.3345,-4.5693,-4.7408,-4.8001,-4.9562,-5.0578,-5.0173,-5.1432,-5.1935,-5.1376,-5.1935,-5.2238,-5.182,-5.182,-5.196,-5.2074,-5.2238,-5.2213,-5.2074,-5.2654,-5.2654,-5.2238,-5.2654,-5.2654,-5.2238,-5.2515,-5.2377,-5.1845,-5.3064,-5.3453,-5.3222,-5.4319,-5.4737,-5.4762,-5.4863,-5.4913,-5.4913,-5.4913,-5.4913,-5.4913,0.0,0.0,0.0,0.0,0.0,0.0,0.0,-1.9682,-2.0088,-2.0088,-2.064,-2.0959,-2.0843,-2.0349,-2.0001,0.0,0.0,0.0,0.0,0.0,0.0,0.0,0.0,0.0,0.0,0.0,0.0,-2.4065,-2.4704,0.0,0.0,0.0,0.0,0.0,0.0,-2.5959,-2.4768,-2.4663,0.0,0.0,0.0,0.0,0.0,0.0,0.0,0.0,0.0,-2.7726,-2.8488,-2.9165,-3.0592,-3.2293,-3.3271,-3.4945,-3.6507,-3.7036,-3.7565,-3.8118,-3.8719,-3.8864,-3.8815,-3.8888,-3.8864,-3.8551,-3.7517,-3.7228,-3.6916,-3.5954,-3.6098,-3.6266,-3.5833,-3.6555,-3.7501,-3.8421,-4.0355,-4.2062,-4.309,-4.565,-4.7455,-4.728,-4.9298,-5.0578,-5.0198,-5.1181,-5.182,-5.182,-5.2099,-5.2238,-5.182,-5.182,-5.1656,-5.1352,-5.1656,-5.1656,-5.1352,-5.2074,-5.2238,-5.182,-5.2238,-5.2238,-5.182,-5.196,-5.182,-5.1845,-5.2808,-5.3172,-5.3271,-5.4745,-5.5315,-5.5365,-5.5867,-5.6068,-5.6068,-5.6068,-5.6068,-5.5993,0.0,0.0,0.0,0.0,0.0,0.0,-1.9101,-1.9972,-2.064,-2.064,-2.154,-2.2106,-2.2106,-2.1249,-2.0494,-2.0146,0.0,0.0,0.0,0.0,0.0,0.0,0.0,0.0,0.0,0.0,-2.2991,-2.3891,-2.453,0.0,0.0,0.0,0.0,0.0,0.0,-2.4512,-2.4381,-2.4217,0.0,0.0,0.0,0.0,0.0,0.0,0.0,0.0,0.0,0.0,-2.8275,-2.9076,-3.0385,-3.1834,-3.2439,-3.3953,-3.5689,-3.7049,-3.7453,-3.7709,-3.8575,-3.8575,-3.8407,-3.8743,-3.831,-3.7733,-3.73,-3.6699,-3.6026,-3.5304,-3.5064,-3.5016,-3.5112,-3.5737,-3.6531,-3.7605,-3.9358,-4.1047,-4.1885,-4.4352,-4.6289,-4.664,-4.8705,-5.0038,-4.9903,-5.0742,-5.1516,-5.182,-5.1656,-5.1656,-5.1516,-5.1681,-5.1656,-5.1211,-5.1376,-5.1376,-5.1211,-5.1935,-5.2074,-5.1516,-5.2074,-5.2074,-5.1516,-5.1656,-5.1541,-5.1168,-5.2872,-5.3384,-5.3173,-5.5151,-5.5747,-5.5626,-5.5972,-5.6219,-5.6219,-5.6219,-5.6219,-5.6168,0.0,0.0,0.0,0.0,0.0,-1.9101,-1.9101,-2.0175,-2.0988,-2.0988,-2.212,-2.2888,-2.2888,-2.1772,-2.0814,-2.0407,-1.9595,0.0,0.0,0.0,0.0,0.0,0.0,0.0,0.0,0.0,-2.3252,-2.3891,-2.4733,-2.5371,0.0,0.0,-2.5772,-2.5605,0.0,0.0,0.0,0.0,0.0,0.0,0.0,0.0,0.0,0.0,0.0,0.0,0.0,0.0,0.0,0.0,0.0,-3.1111,-3.1674,-3.2859,-3.4342,-3.6303,-3.6928,-3.7156,-3.8094,-3.795,-3.7637,-3.819,-3.7637,-3.6916,-3.6771,-3.6026,-3.5232,-3.4703,-3.4174,-3.3982,-3.4511,-3.516,-3.5905,-3.6819,-3.8524,-3.9951,-4.0812,-4.3114,-4.5061,-4.593,-4.7943,-4.9436,-4.947,-5.044,-5.1352,-5.1656,-5.1516,-5.1236,-5.1095,-5.1376,-5.1376,-5.1095,-5.1095,-5.1095,-5.1095,-5.1656,-5.1796,-5.1211,-5.1796,-5.1796,-5.1211,-5.1376,-5.1119,-5.0768,-5.2951,-5.3562,-5.3203,-5.5306,-5.6072,-5.5779,-5.6072,-5.6219,-5.6219,-5.6219,-5.6219,-5.6219,0.0,0.0,0.0,0.0,0.0,0.0,-1.9101,-2.0175,-2.0988,-2.0988,-2.212,-2.2888,-2.2888,-2.1772,-2.0988,-2.0988,-1.9827,0.0,0.0,0.0,0.0,0.0,0.0,0.0,0.0,0.0,-2.3252,-2.3891,-2.5168,-2.5778,-2.5807,-2.706,-2.6747,-2.5048,0.0,0.0,0.0,0.0,0.0,0.0,0.0,0.0,-2.5661,0.0,0.0,0.0,0.0,0.0,0.0,0.0,0.0,0.0,0.0,-3.181,-3.2487,-3.4627,-3.5791,-3.6531,-3.706,-3.6819,-3.6555,-3.7084,-3.6819,-3.6266,-3.5761,-3.5232,-3.4679,-3.415,-3.3645,-3.3452,-3.3958,-3.4895,-3.5785,-3.6314,-3.7781,-3.92,-4.0258,-4.2123,-4.3723,-4.4948,-4.7278,-4.8913,-4.9036,-5.0325,-5.1211,-5.1211,-5.1516,-5.1541,-5.0696,-5.0954,-5.1095,-5.0696,-5.0696,-5.0696,-5.0696,-5.1095,-5.1211,-5.1211,-5.1211,-5.1211,-5.1211,-5.0837,-5.0696,-5.0768,-5.2641,-5.3369,-5.3611,-5.5451,-5.6219,-5.6219,-5.6219,-5.6219,-5.6219,-5.6219,-5.6219,-5.6219,0.0,0.0,0.0,0.0,0.0,0.0,0.0,-1.9827,-2.0378,-2.0378,-2.1104,-2.1598,-2.1598,-2.0872,-2.0378,-2.0378,-1.9595,0.0,0.0,0.0,0.0,0.0,0.0,0.0,0.0,-2.2701,-2.3891,-2.453,-2.5836,-2.6467,-2.6465,-2.7343,-2.7427,-2.6743,-2.5706,-2.5163,0.0,0.0,0.0,0.0,0.0,-2.5134,-2.5661,0.0,0.0,0.0,0.0,0.0,0.0,0.0,0.0,0.0,0.0,0.0,0.0,-3.2731,-3.4123,-3.5521,-3.6411,-3.6531,-3.6435,-3.6603,-3.6266,-3.5737,-3.5208,-3.4679,-3.4054,-3.3164,-3.2851,-3.2899,-3.3428,-3.4366,-3.5376,-3.6266,-3.807,-3.9729,-4.0787,-4.2396,-4.3988,-4.5477,-4.7678,-4.9318,-5.0095,-5.062,-5.0837,-5.0837,-5.0978,-5.0978,-5.0696,-5.0837,-5.0837,-5.0696,-5.0696,-5.0696,-5.0696,-5.1095,-5.1095,-5.0837,-5.1095,-5.1095,-5.0837,-5.0696,-5.0696,-5.0768,-5.2379,-5.313,-5.3203,-5.5014,-5.5779,-5.5779,-5.6072,-5.6219,-5.6219,-5.6219,-5.6219,-5.6219,0.0,0.0,0.0,0.0,0.0,0.0,0.0,-1.9682,-2.0088,-2.0088,-2.064,-2.0988,-2.0988,-2.0465,-2.0088,-2.0088,-1.9478,0.0,0.0,0.0,0.0,0.0,0.0,0.0,-2.1365,-2.3281,-2.4704,-2.5575,-2.662,-2.7245,-2.7456,-2.7907,-2.7931,-2.7619,-2.623,-2.5606,0.0,0.0,0.0,0.0,-2.4054,-2.4632,-2.536,0.0,0.0,0.0,0.0,0.0,0.0,0.0,0.0,0.0,0.0,0.0,0.0,0.0,-3.2623,-3.3909,-3.5184,-3.5376,-3.528,-3.5473,-3.5112,-3.4655,-3.4318,-3.3837,-3.3284,-3.2635,-3.2491,-3.2659,-3.3188,-3.4294,-3.54,-3.6266,-3.8046,-3.9681,-4.0739,-4.223,-4.413,-4.6535,-4.8147,-4.9493,-5.06,-5.0696,-5.0696,-5.0696,-5.0696,-5.0696,-5.0696,-5.0696,-5.0696,-5.0696,-5.0696,-5.0696,-5.0696,-5.0954,-5.0954,-5.0696,-5.0954,-5.0954,-5.0696,-5.0696,-5.0696,-5.0768,-5.2235,-5.2841,0.0,-5.4892,-5.5485,-5.5485,-5.5779,-5.5926,-5.5779,-5.5779,-5.5779,-5.5779,0.0,0.0,0.0,0.0,0.0,0.0,0.0,-1.9624,-2.003,-2.003,-2.0524,-2.0872,-2.0872,-2.0349,-2.003,-2.003,0.0,0.0,0.0,0.0,0.0,0.0,0.0,0.0,-2.2062,-2.3978,-2.5546,-2.6794,-2.752,-2.8103,-2.8711,-2.8734,-2.8408,-2.7816,-2.7095,-2.6107,0.0,0.0,0.0,0.0,-2.3175,-2.3828,0.0,0.0,0.0,0.0,0.0,0.0,0.0,0.0,0.0,0.0,0.0,0.0,0.0,0.0,0.0,0.0,0.0,-3.3525,-3.3404,-3.3861,-3.3645,-3.3284,-3.3236,-3.2875,0.0,-3.2515,-3.2539,-3.2731,-3.3284,-3.4607,-3.5809,-3.6411,-3.7853,-3.9248,-4.0355,-4.1966,-4.4347,-4.7858,-4.8796,-4.9541,-5.06,-5.0696,-5.0696,-5.0696,-5.0696,-5.0696,-5.0696,-5.0696,-5.0696,-5.0696,-5.0696,-5.0696,-5.0696,-5.0696,-5.0696,-5.0696,-5.0696,-5.0696,-5.0696,-5.0696,-5.072,-5.0816,-5.2259,-5.2865,-5.3132,-5.4745,-5.5337,-5.5041,-5.5485,-5.5337,-5.5041,-5.5041,-5.5041,-5.5041,0.0,0.0,0.0,0.0,0.0,0.0,0.0,0.0,0.0,0.0,-1.9449,-1.9537,-1.9537,-1.942,-1.9333,0.0,0.0,0.0,0.0,0.0,0.0,0.0,0.0,0.0,-2.2656,-2.4588,-2.5981,-2.6794,-2.839,-2.8943,-2.8615,-2.9688,-2.9497,-2.8337,-2.7759,-2.6232,0.0,0.0,0.0,0.0,-2.3627,-2.3954,0.0,0.0,0.0,0.0,-2.6289,-2.654,0.0,0.0,0.0,0.0,0.0,0.0,0.0,0.0,-2.9915,-3.0264,-3.0893,0.0,-3.3308,-3.3428,-3.338,-3.3188,0.0,-3.2899,-3.2996,-3.2587,-3.2827,-3.338,-3.4294,-3.5088,-3.605,-3.7397,-3.8623,-3.9922,-4.1389,-4.401,-4.6415,-4.8098,-4.9109,-4.995,-5.0648,-5.0696,-5.0696,-5.0696,-5.0696,-5.0696,-5.0696,-5.0696,-5.0696,-5.0696,-5.0696,-5.0696,-5.0696,-5.0696,-5.0696,-5.0696,-5.0696,-5.0696,-5.0696,-5.0696,-5.0912,-5.1345,-5.2139,-5.2792,-5.3473,-5.4302,-5.4868,-5.5041,-5.5041,-5.5041,-5.5041,-5.5041,-5.5041,-5.4892,0.0,0.0,0.0,0.0,0.0,0.0,0.0,0.0,0.0,0.0,0.0,-1.9101,-1.9101,-1.9101,0.0,0.0,0.0,0.0,0.0,0.0,0.0,0.0,0.0,-2.2453,-2.3728,-2.54,-2.6997,-2.8536,-2.9172,-2.9793,-3.0392,-3.0453,-3.0107,-2.9325,-2.7606,-2.5903,0.0,0.0,0.0,-2.315,-2.3201,0.0,0.0,0.0,0.0,0.0,-2.5963,-2.6239,0.0,-2.6746,-2.7157,-2.7656,0.0,0.0,0.0,0.0,-2.9343,-2.9504,-2.9653,-3.0927,-3.2178,-3.2178,-3.2563,-3.2851,-3.2563,-3.2899,-3.3212,-3.2923,-3.3477,-3.4174,-3.4727,-3.5665,-3.6699,-3.7805,-3.9104,-4.0787,-4.3096,-4.5525,-4.7473,-4.8531,-4.9373,-5.0095,-5.0648,-5.0696,-5.0696,-5.0696,-5.0696,-5.0696,-5.0696,-5.0696,-5.0696,-5.0696,-5.0696,-5.0696,-5.0696,-5.0696,-5.0696,-5.0696,-5.0696,-5.0696,-5.072,-5.096,-5.1225,-5.1537,-5.2307,-5.2935,-5.3373,-5.4202,-5.4421,-5.4421,-5.4719,-5.457,-5.4421,-5.4421,-5.4421,-5.4421,0.0,0.0,0.0,0.0,0.0,0.0,0.0,0.0,0.0,0.0,0.0,0.0,0.0,0.0,0.0,0.0,0.0,0.0,0.0,0.0,0.0,0.0,-2.199,-2.3537,-2.4883,-2.6335,-2.8105,-3.0266,-2.9882,-3.0503,-3.2098,-3.0853,-3.0254,-3.0053,-2.6977,-2.5358,-2.4707,-2.3125,-2.2698,-2.304,-2.2623,0.0,0.0,0.0,0.0,0.0,0.0,0.0,0.0,-2.6233,-2.6884,-2.7656,-2.7779,0.0,0.0,0.0,0.0,0.0,-2.9172,-2.9941,-3.0783,-3.0855,-3.1697,-3.2491,-3.2491,-3.3044,-3.3525,-3.3525,-3.4342,-3.5088,-3.5184,-3.6362,-3.7541,-3.8238,-3.985,-4.1966,-4.4756,-4.6583,-4.7978,-4.8964,-4.9614,-5.0191,-5.0648,-5.0696,-5.0696,-5.0696,-5.0696,-5.0696,-5.0696,-5.0696,-5.0696,-5.0696,-5.0696,-5.0696,-5.0696,-5.0696,-5.0696,-5.0696,-5.0696,-5.0696,-5.072,-5.1177,-5.1465,-5.1658,-5.2548,-5.3029,-5.3221,-5.3929,-5.4122,-5.3822,-5.4122,-5.4122,-5.3822,-5.3822,-5.3822,-5.3822,0.0,0.0,0.0,0.0,0.0,0.0,0.0,0.0,0.0,0.0,0.0,0.0,0.0,0.0,0.0,0.0,0.0,0.0,0.0,0.0,0.0,-2.1685,-2.2453,-2.3751,-2.5514,-2.742,-2.8509,-2.8739,-3.0276,-3.086,-3.0515,-3.031,-2.9644,-2.8528,-2.6063,-2.4872,-2.4732,-2.3527,-2.299,-2.3065,-2.299,0.0,0.0,0.0,0.0,0.0,0.0,0.0,0.0,-2.6289,-2.6611,-2.6991,-2.7606,0.0,0.0,0.0,0.0,0.0,-2.8698,-2.9412,-3.0326,-3.0759,-3.1697,-3.2491,-3.2491,-3.3597,-3.4583,-3.4583,-3.5425,-3.629,-3.6747,-3.7397,-3.8334,-3.9777,-4.211,-4.4058,-4.4996,-4.6896,-4.8387,-4.9012,-4.995,-5.06,-5.0696,-5.0696,-5.0696,-5.0696,-5.0696,-5.0696,-5.0696,-5.0696,-5.0696,-5.0696,-5.0696,-5.0696,-5.0696,-5.0696,-5.0696,-5.0696,-5.0696,-5.0696,-5.0696,-5.0792,-5.1321,-5.2163,-5.2331,-5.2908,-5.3702,-5.3774,-5.3822,-5.3822,-5.3822,-5.3822,-5.3822,-5.3822,-5.3822,-5.3822,0.0,0.0,0.0,0.0,0.0,0.0,0.0,0.0,0.0,0.0,0.0,0.0,0.0,0.0,0.0,0.0,0.0,0.0,0.0,0.0,-2.1255,-2.2523,-2.3473,-2.4657,-2.6218,-2.8078,-2.9184,-2.9429,-3.0637,-3.1212,-3.1189,-3.0191,-2.9416,-2.8752,-2.6298,-2.5084,-2.4782,-2.3954,-2.3427,-2.3065,0.0,0.0,0.0,0.0,0.0,0.0,0.0,0.0,0.0,0.0,-2.6702,-2.6964,-2.7728,0.0,0.0,0.0,0.0,0.0,-2.894,-2.9701,-3.0639,-3.1168,-3.213,-3.3068,-3.3645,-3.4535,-3.5328,-3.5617,-3.629,-3.6988,-3.7517,-3.8286,-3.9561,-4.1725,-4.3601,-4.5164,-4.6247,-4.7738,-4.8916,-4.9445,-5.0215,-5.0696,-5.0696,-5.0696,-5.0696,-5.0696,-5.0696,-5.0696,-5.0696,-5.0696,-5.0696,-5.0696,-5.0696,-5.0696,-5.0696,-5.0696,-5.0696,-5.0696,-5.0696,-5.0696,-5.072,-5.1008,-5.1537,-5.2307,-5.2572,-5.3125,-5.3822,-5.3822,-5.3822,-5.3822,-5.3822,-5.3822,-5.3822,-5.3822,-5.3822,-5.3822,0.0,0.0,0.0,0.0,0.0,0.0,0.0,0.0,0.0,0.0,0.0,0.0,0.0,0.0,0.0,0.0,0.0,0.0,0.0,-2.0271,-2.1468,-2.2818,-2.4159,-2.5384,-2.6632,-2.8435,-2.9515,-2.9757,-3.0619,-3.1208,-3.1563,-2.9843,-2.9009,-2.8931,-2.6612,-2.531,-2.4782,-2.423,-2.3653,-2.3065,0.0,0.0,0.0,0.0,0.0,0.0,0.0,0.0,0.0,0.0,0.0,0.0,0.0,0.0,0.0,-2.8934,-2.8973,-2.8913,-2.9229,-3.017,-3.1158,-3.1841,-3.2851,-3.3861,-3.4655,-3.5425,-3.6146,-3.6675,-3.7204,-3.7781,-3.8431,-3.9633,-4.122,-4.3361,-4.4828,-4.6102,-4.7329,-4.8507,-4.9421,-4.983,-5.0359,-5.0696,-5.0696,-5.0696,-5.0696,-5.0696,-5.0696,-5.0696,-5.0696,-5.0696,-5.0696,-5.0696,-5.0696,-5.0696,-5.0696,-5.0696,-5.0696,-5.0696,-5.0696,-5.0696,-5.072,-5.1129,-5.1658,-5.2307,-5.2716,-5.3245,-5.3822,-5.3822,-5.3822,-5.3822,-5.3822,-5.3822,-5.3822,-5.3822,-5.3822,-5.3822,0.0,0.0,0.0,0.0,0.0,0.0,0.0,0.0,0.0,0.0,0.0,0.0,0.0,0.0,0.0,0.0,0.0,0.0,0.0,-1.9936,-2.0935,-2.2219,-2.4014,-2.551,-2.6586,-2.841,-2.8982,-2.8243,-3.0025,-3.0594,-2.9908,-2.8773,-2.817,-2.8094,-2.6339,-2.531,-2.4782,-2.423,-2.3653,-2.3065,-2.3065,0.0,0.0,0.0,0.0,0.0,0.0,0.0,0.0,0.0,0.0,0.0,0.0,0.0,-2.7779,-2.8836,-2.9052,-2.9096,-2.9229,-3.0253,-3.1525,-3.2871,-3.3958,-3.4727,-3.4799,-3.6002,-3.7228,-3.7757,-3.831,-3.9008,-4.0042,-4.187,-4.3457,-4.4178,-4.6006,-4.7377,-4.7473,-4.8844,-4.983,-4.9854,-5.0359,-5.0696,-5.0696,-5.0696,-5.0696,-5.0696,-5.0696,-5.0696,-5.0696,-5.0696,-5.0696,-5.0696,-5.0696,-5.0696,-5.0696,-5.0696,-5.0696,-5.0696,-5.0696,-5.0696,-5.0696,-5.0744,-5.1321,-5.2283,-5.2331,-5.2908,-5.3822,-5.3822,-5.3822,-5.3822,-5.3822,-5.3822,-5.3822,-5.3822,-5.3822,-5.3822,0.0,0.0,0.0,0.0,0.0,0.0,0.0,0.0,0.0,0.0,0.0,0.0,0.0,0.0,0.0,0.0,0.0,0.0,0.0,-1.9527,-2.0615,-2.2246,-2.357,-2.4866,-2.6056,-2.8119,-2.8846,-2.8097,-2.9504,-3.0266,-3.0469,-2.9176,-2.8423,-2.8072,-2.7092,-2.6138,-2.5285,-2.5084,-2.4481,-2.3678,-2.3678,-2.3452,0.0,0.0,0.0,0.0,0.0,0.0,0.0,0.0,-2.567,-2.612,-2.7645,-2.7902,-2.7903,-2.8811,-2.9273,-2.9577,-3.0121,-3.1399,-3.2774,-3.3933,-3.5521,-3.6795,-3.6795,-3.7252,-3.7926,-3.8815,-3.9417,-4.0306,-4.2014,-4.3265,-4.4419,-4.5621,-4.6776,-4.7738,-4.8387,-4.9277,-4.9998,-5.0335,-5.0576,-5.0696,-5.0696,-5.0696,-5.0696,-5.0696,-5.0696,-5.0696,-5.0696,-5.0696,-5.0696,-5.0696,-5.0696,-5.0696,-5.0696,-5.0696,-5.0696,-5.0696,-5.0696,-5.0696,-5.0696,-5.0696,-5.1105,-5.1802,-5.2139,-5.2692,-5.3365,-5.3702,-5.3822,-5.3822,-5.3822,-5.3822,-5.3822,-5.3822,-5.3822,-5.3822,0.0,0.0,0.0,0.0,0.0,0.0,0.0,0.0,0.0,0.0,0.0,0.0,0.0,0.0,0.0,0.0,0.0,0.0,-1.8708,-1.9234,-2.0273,-2.1947,-2.3249,-2.4356,-2.5332,-2.7456,-2.84,-2.8097,-2.9227,-3.0062,-3.0519,-2.9226,-2.8473,-2.8072,-2.7344,-2.649,-2.5586,-2.5586,-2.4983,-2.4004,-2.4004,-2.3653,0.0,0.0,0.0,0.0,0.0,0.0,0.0,0.0,-2.546,-2.5887,-2.757,-2.7975,-2.7978,-2.8811,-2.942,-3.0,-3.0676,-3.2147,-3.3736,-3.4775,-3.6531,-3.8118,-3.8623,-3.8743,-3.9008,-3.9922,-4.0932,-4.2134,-4.3721,-4.4611,-4.5501,-4.6752,-4.7545,-4.8315,-4.9205,-4.9782,-5.0263,-5.0648,-5.0696,-5.0696,-5.0696,-5.0696,-5.0696,-5.0696,-5.0696,-5.0696,-5.0696,-5.0696,-5.0696,-5.0696,-5.0696,-5.0696,-5.0696,-5.0696,-5.0696,-5.0696,-5.0696,-5.0696,-5.0696,-5.0696,-5.0984,-5.1513,-5.2043,-5.2572,-5.3101,-5.3606,-5.3822,-5.3822,-5.3822,-5.3822,-5.3822,-5.3822,-5.3822,-5.3822,0.0,0.0,0.0,0.0,0.0,0.0,0.0,0.0,0.0,0.0,0.0,0.0,0.0,0.0,0.0,0.0,0.0,0.0,-1.8662,-1.9144,-1.9939,-2.1145,-2.2904,-2.4115,-2.4613,-2.6371,-2.7544,-2.8122,-2.9252,-2.9804,-2.9779,-2.8649,-2.8122,-2.8047,-2.6967,-2.6138,-2.5611,-2.5611,-2.4983,-2.4004,-2.4004,-2.3653,-2.3065,0.0,0.0,0.0,0.0,0.0,0.0,0.0,-2.5159,-2.5887,-2.757,-2.7975,-2.7978,-2.8811,-2.9683,-3.035,-3.0761,-3.239,-3.4181,-3.533,-3.6819,-3.8407,-4.0042,-4.0403,-4.0547,-4.11,-4.288,-4.4515,-4.5044,-4.6006,-4.6896,-4.7425,-4.8387,-4.9253,-4.9782,-5.0335,-5.0696,-5.0696,-5.0696,-5.0696,-5.0696,-5.0696,-5.0696,-5.0696,-5.0696,-5.0696,-5.0696,-5.0696,-5.0696,-5.0696,-5.0696,-5.0696,-5.0696,-5.0696,-5.0696,-5.0696,-5.0696,-5.0696,-5.0696,-5.0696,-5.0984,-5.1513,-5.2043,-5.2572,-5.3101,-5.3606,-5.3822,-5.3822,-5.3822,-5.3822,-5.3822,-5.3822,-5.3822,-5.3822,0.0,0.0,0.0,0.0,0.0,0.0,0.0,0.0,0.0,0.0,0.0,0.0,0.0,0.0,0.0,0.0,0.0,0.0,-1.8009,-1.8201,-1.9158,-2.1169,-2.2056,-2.3094,-2.4329,-2.6025,-2.7456,-2.8674,-2.9428,-2.9804,-2.9779,-2.9026,-2.8473,-2.8072,-2.7344,-2.6716,-2.6189,-2.6189,-2.5586,-2.4582,-2.4582,-2.4004,-2.3065,0.0,0.0,0.0,0.0,0.0,0.0,0.0,0.0,0.0,-2.7469,-2.7975,-2.7978,-2.8811,-2.9714,-3.0504,-3.1231,-3.2967,-3.4848,-3.5857,-3.7661,-3.9345,-4.021,-4.0691,-4.1413,-4.3072,-4.3914,-4.4732,-4.6006,-4.6511,-4.7016,-4.7906,-4.8628,-4.9253,-4.9782,-5.0335,-5.0696,-5.0696,-5.0696,-5.0696,-5.0696,-5.0696,-5.0696,-5.0696,-5.0696,-5.0696,-5.0696,-5.0696,-5.0696,-5.0696,-5.0696,-5.0696,-5.0696,-5.0696,-5.0696,-5.0696,-5.0696,-5.0696,-5.0696,-5.0696,-5.0792,-5.0984,-5.1874,-5.2379,-5.2572,-5.3461,-5.3822,-5.3822,-5.3822,-5.3822,-5.3822,-5.3822,-5.3822,-5.3822,0.0,0.0,0.0,0.0,0.0,0.0,0.0,0.0,-1.7157,-1.7365,-1.6989,-1.6863,0.0,0.0,0.0,-1.6539,-1.6497,-1.6841,-1.7676,-1.775,-1.8683,-2.0705,-2.1519,-2.2702,-2.4394,-2.5802,-2.6984,-2.7946,-2.8575,-2.895,-2.9101,-2.8449,-2.8024,-2.7745,-2.7193,-2.6766,-2.6533,-2.6533,-2.5837,-2.4703,-2.4768,-2.4092,-2.303,0.0,0.0,0.0,0.0,0.0,0.0,0.0,0.0,0.0,-2.6892,-2.7626,-2.7928,-2.8694,-2.9665,-3.0796,-3.1825,-3.3566,-3.5282,-3.6675,-3.8334,-3.9898,-4.1076,-4.1918,-4.2928,-4.4611,-4.514,-4.5645,-4.68,-4.7185,-4.7617,-4.8459,-4.9036,-4.9589,-5.0119,-5.0503,-5.0696,-5.0696,-5.0696,-5.0696,-5.0696,-5.0696,-5.0696,-5.0696,-5.0696,-5.0696,-5.0696,-5.0696,-5.0696,-5.0696,-5.0696,-5.0696,-5.0696,-5.0696,-5.0696,-5.0696,-5.0912,-5.1008,-5.1008,-5.1008,-5.1008,-5.1056,-5.1922,-5.2524,-5.2932,-5.3558,-5.3822,-5.3822,-5.3822,-5.3822,-5.3822,-5.3822,-5.3822,-5.3822,0.0,0.0,0.0,0.0,0.0,0.0,0.0,-1.6803,-1.6803,-1.682,-1.6497,-1.6411,0.0,0.0,0.0,-1.6238,-1.6064,-1.6438,-1.746,-1.7677,-1.8411,-1.9891,-2.1198,-2.2702,-2.4335,-2.5468,-2.6108,-2.6389,-2.716,-2.7705,-2.8097,-2.7376,-2.7126,-2.7268,-2.6716,-2.6465,-2.6465,-2.6465,-2.5727,-2.4648,-2.4703,-2.4054,-2.3044,-2.309,0.0,0.0,0.0,0.0,0.0,0.0,0.0,0.0,-2.6113,-2.7076,-2.7928,-2.845,-2.9633,-3.1062,-3.2414,-3.3902,-3.5648,-3.7549,-3.8912,-4.0355,-4.2423,-4.3721,-4.4756,-4.5718,-4.6343,-4.6872,-4.7401,-4.793,-4.8459,-4.8988,-4.9517,-5.007,-5.0624,-5.0696,-5.0696,-5.0696,-5.0696,-5.0696,-5.0696,-5.0696,-5.0696,-5.0696,-5.0696,-5.0696,-5.0696,-5.0696,-5.0696,-5.0696,-5.0696,-5.0696,-5.0696,-5.0696,-5.072,-5.0792,-5.1273,-5.1537,-5.1634,-5.1586,-5.1586,-5.1658,-5.2139,-5.2908,-5.3822,-5.3822,-5.3822,-5.3822,-5.3822,-5.3822,-5.3822,-5.3822,-5.3822,-5.3822,0.0,0.0,0.0,0.0,0.0,0.0,-1.6069,-1.6069,-1.6132,-1.6411,-1.6107,-1.6044,-1.6411,-1.6044,0.0,-1.5913,-1.5869,-1.6134,-1.6925,-1.7267,-1.8041,-1.9303,-2.1136,-2.2359,-2.2885,-2.3831,-2.4652,-2.5407,-2.6986,-2.7877,-2.8097,-2.7376,-2.7055,-2.703,-2.6507,-2.6188,-2.605,-2.605,-2.5654,-2.5145,-2.4723,-2.4215,-2.3716,-2.324,-2.3065,0.0,0.0,0.0,0.0,0.0,0.0,0.0,-2.6113,-2.7076,-2.7854,-2.8248,-2.9395,-3.0785,-3.2147,-3.3739,-3.5427,-3.7445,-3.9729,-4.1918,-4.3625,-4.4828,-4.5645,-4.5886,-4.6343,-4.6872,-4.7401,-4.793,-4.8459,-4.8988,-4.9517,-5.007,-5.0624,-5.0696,-5.0696,-5.0696,-5.0696,-5.0696,-5.0696,-5.0696,-5.0696,-5.0696,-5.0696,-5.0696,-5.0696,-5.0696,-5.0696,-5.0696,-5.0696,-5.0696,-5.0696,-5.0696,-5.0912,-5.1321,-5.1441,-5.1922,-5.2716,-5.2307,-5.2331,-5.274,-5.286,-5.3245,-5.3822,-5.3822,-5.3822,-5.3822,-5.3822,-5.3822,-5.3822,-5.3822,-5.3822,-5.3822,0.0,0.0,0.0,0.0,0.0,0.0,0.0,0.0,-1.5869,-1.6044,-1.5913,-1.5869,-1.6044,-1.5913,0.0,0.0,-1.5869,-1.6154,-1.6662,-1.7219,-1.8113,-1.9443,-2.0499,-2.1222,-2.1642,-2.265,-2.3393,-2.3944,-2.5541,-2.6618,-2.7033,-2.6593,-2.6374,-2.6445,-2.6173,-2.598,-2.591,-2.591,-2.5591,-2.505,-2.4846,-2.4468,-2.3974,-2.3715,-2.3616,-2.3616,-2.3616,0.0,0.0,0.0,0.0,0.0,0.0,0.0,-2.773,-2.8077,-2.9199,-3.0616,-3.2301,-3.3808,-3.5473,-3.8094,-4.0379,-4.2327,-4.3649,-4.4972,-4.6006,-4.6247,-4.6728,-4.7257,-4.7786,-4.8315,-4.8844,-4.9373,-4.9902,-5.0359,-5.0672,-5.0696,-5.0696,-5.0696,-5.0696,-5.0696,-5.0696,-5.0696,-5.0696,-5.0696,-5.0696,-5.0696,-5.0696,-5.0696,-5.0696,-5.0696,-5.0696,-5.0696,-5.0696,-5.096,-5.1225,-5.1489,-5.1994,-5.2668,-5.3413,-5.2884,-5.2932,-5.3413,-5.3173,-5.3365,-5.3822,-5.3822,-5.3822,-5.3822,-5.3822,-5.3822,-5.3822,-5.3822,-5.3822,-5.3822,0.0,0.0,0.0,0.0,0.0,0.0,0.0,0.0,0.0,-1.5804,-1.5804,-1.5804,-1.5804,-1.5804,-1.5804,0.0,0.0,0.0,-1.645,-1.7123,-1.8186,-1.9576,-1.972,-2.0041,-2.0613,-2.168,-2.2323,-2.2629,-2.3952,-2.4949,-2.5693,-2.5627,-2.5676,-2.584,-2.5938,-2.5963,-2.5917,-2.6015,-2.5725,-2.5217,-2.5281,-2.4964,-2.4481,-2.445,-2.4467,-2.4534,-2.4435,-2.4245,-2.4002,-2.3903,0.0,0.0,0.0,0.0,-2.7582,-2.795,-2.8983,-3.0387,-3.2396,-3.4023,-3.5954,-3.9093,-4.086,-4.2279,-4.3433,-4.4852,-4.6078,-4.6607,-4.7136,-4.7666,-4.8195,-4.8724,-4.9253,-4.9782,-5.0335,-5.0696,-5.0696,-5.0696,-5.0696,-5.0696,-5.0696,-5.0696,-5.0696,-5.0696,-5.0696,-5.0696,-5.0696,-5.0696,-5.0696,-5.0696,-5.0696,-5.0696,-5.0696,-5.0696,-5.0696,-5.1225,-5.1537,-5.1634,-5.2692,-5.3413,-5.3798,-5.3389,-5.3437,-5.3798,-5.3365,-5.3437,-5.3822,-5.3822,-5.3822,-5.3822,-5.3822,-5.3822,-5.3822,-5.3822,-5.3822,-5.3822,0.0,0.0,0.0,0.0,0.0,0.0,0.0,0.0,0.0,0.0,-1.5804,-1.5804,-1.5804,-1.5804,-1.5804,-1.5804,-1.5824,-1.5872,-1.59,0.0,0.0,-1.9047,-1.9528,-1.9817,-1.9944,-2.1005,-2.1801,-2.2259,-2.3393,-2.4189,-2.4719,-2.5317,-2.5606,-2.563,-2.6092,-2.6214,-2.6094,-2.6576,-2.6819,-2.6846,-2.6384,-2.6308,-2.6257,-2.5767,-2.5664,-2.5822,-2.5351,-2.5128,-2.5137,-2.4793,-2.4928,0.0,0.0,0.0,-2.7533,-2.7755,-2.8582,-2.9832,-3.1622,-3.4461,-3.7525,-4.0013,-4.1353,-4.2375,-4.389,-4.5116,-4.6078,-4.6607,-4.7136,-4.7666,-4.8195,-4.8724,-4.9253,-4.9782,-5.0335,-5.0696,-5.0696,-5.0696,-5.0696,-5.0696,-5.0696,-5.0696,-5.0696,-5.0696,-5.0696,-5.0696,-5.0696,-5.0696,-5.0696,-5.0696,-5.0696,-5.0696,-5.0696,-5.0696,-5.0696,-5.1225,-5.173,-5.2187,-5.3221,-5.375,-5.3822,-5.375,-5.375,-5.3822,-5.375,-5.375,-5.3822,-5.3822,-5.3822,-5.3822,-5.3822,-5.3822,-5.3822,-5.3822,-5.3822,-5.3822,0.0,0.0,0.0,0.0,0.0,0.0,0.0,0.0,0.0,0.0,0.0,-1.5804,-1.5804,-1.5804,-1.5804,-1.5804,-1.5804,-1.5924,-1.6212,-1.6979,-1.7748,-1.8518,-1.9047,-1.9336,-1.9336,-2.0394,-2.1067,-2.1284,-2.2654,-2.3592,-2.4097,-2.4695,-2.5175,-2.5489,-2.6021,-2.6166,-2.6142,-2.6695,-2.6935,-2.6962,-2.6745,-2.6723,-2.6772,-2.653,-2.6433,-2.6481,-2.6262,-2.6113,-2.591,-2.5506,-2.5549,-2.5741,-2.551,0.0,0.0,0.0,-2.8313,-2.9576,-3.2156,-3.4582,-3.685,-3.8897,-4.0289,-4.1509,-4.3096,-4.4515,-4.5718,-4.6535,-4.7136,-4.7762,-4.8579,-4.8916,-4.9349,-5.0191,-5.0551,-5.0696,-5.0696,-5.0696,-5.0696,-5.0696,-5.0696,-5.0696,-5.0696,-5.0696,-5.0696,-5.0696,-5.0696,-5.0696,-5.0696,-5.0696,-5.0696,-5.0696,-5.0696,-5.084,-5.1153,-5.1682,-5.2331,-5.3149,-5.3606,-5.3822,-5.3822,-5.3822,-5.3822,-5.3822,-5.3822,-5.3822,-5.3822,-5.3822,-5.3822,-5.3822,-5.3822,-5.3822,-5.3822,-5.3822,-5.3822,-5.3822,0.0,0.0,0.0,0.0,0.0,0.0,0.0,0.0,0.0,0.0,0.0,-1.5804,-1.5804,0.0,0.0,0.0,-1.5804,-1.602,-1.6548,-1.6955,-1.746,-1.7989,-1.8518,-1.8782,-1.8782,-1.9841,-2.0466,-2.0619,-2.2053,-2.3111,-2.3785,-2.429,-2.4795,-2.5324,-2.5853,-2.6166,-2.6358,-2.6911,-2.72,-2.7344,-2.7344,-2.7344,-2.7344,-2.7344,-2.7416,-2.7565,-2.73,-2.7109,-2.6993,-2.6478,-2.6374,-2.6346,-2.5802,-2.6297,0.0,0.0,0.0,-2.9642,-3.2463,-3.4098,-3.5572,-3.7636,-3.9104,-4.0403,-4.199,-4.3601,-4.5044,-4.6102,-4.6848,-4.7617,-4.8676,-4.8988,-4.9445,-5.0527,-5.0696,-5.0696,-5.0696,-5.0696,-5.0696,-5.0696,-5.0696,-5.0696,-5.0696,-5.0696,-5.0696,-5.0696,-5.0696,-5.0696,-5.0696,-5.0696,-5.0696,-5.0696,-5.0696,-5.096,-5.1489,-5.2139,-5.2932,-5.3822,-5.3822,-5.3822,-5.3822,-5.3822,-5.3822,-5.3822,-5.3822,-5.3822,-5.3822,-5.3822,-5.3822,-5.3822,-5.3822,-5.3822,-5.3822,-5.3822,-5.3822,-5.3822,0.0,0.0,0.0,0.0,0.0,0.0,0.0,0.0,0.0,0.0,0.0,-1.5804,-1.5804,-1.5804,-1.5804,-1.5804,-1.5804,-1.602,-1.6548,-1.6642,-1.6907,-1.7436,-1.7965,0.0,-1.8253,-1.9287,-2.0057,-2.0619,-2.1692,-2.2751,-2.3785,-2.429,-2.4795,-2.5324,-2.5853,-2.6382,-2.6935,-2.7464,-2.7969,-2.8426,-2.8426,-2.8426,-2.8426,-2.8426,-2.8875,-2.9326,-2.8329,-2.8358,-2.8758,-2.7803,-2.7434,-2.7336,-2.6795,-2.6871,-2.7236,0.0,0.0,0.0,-3.1723,-3.2744,-3.4125,-3.6909,-3.8282,-3.932,-4.0908,-4.2495,-4.3938,-4.4996,-4.603,-4.7064,-4.8122,-4.8748,-4.9445,-5.0527,-5.0696,-5.0696,-5.0696,-5.0696,-5.0696,-5.0696,-5.0696,-5.0696,-5.0696,-5.0696,-5.0696,-5.0696,-5.0696,-5.0696,-5.0696,-5.0696,-5.0696,-5.0696,-5.0696,-5.096,-5.1489,-5.2524,-5.3293,-5.3822,-5.3822,-5.3822,-5.3822,-5.3822,-5.3822,-5.3822,-5.3822,-5.3822,-5.3822,-5.3822,-5.3822,-5.3822,-5.3822,-5.3822,-5.3822,-5.3822,-5.3822,-5.3822,0.0,0.0,0.0,0.0,0.0,0.0,0.0,0.0,0.0,0.0,0.0,0.0,0.0,-1.6859,-1.6859,-1.6859,-1.65,-1.638,-1.6618,-1.6572,-1.6714,-1.6907,-1.7412,-1.7845,-1.8205,-1.8903,-1.9696,-2.0619,-2.1332,-2.2221,-2.328,-2.3785,-2.4314,-2.4843,-2.5709,-2.6406,-2.6959,-2.7488,-2.8017,-2.8522,-2.8522,-2.8715,-2.9003,-2.9003,-2.9639,-3.0423,-3.0036,-3.0036,-3.0119,-2.9132,-2.8626,-2.8187,-2.7285,-2.7213,-2.7433,-2.7775,-2.8542,-2.9649,-3.0761,-3.1874,-3.3256,-3.5066,-3.6686,-3.819,-3.9801,-4.1653,-4.3337,-4.4419,-4.5742,-4.6944,-4.7642,-4.8507,-4.9325,-5.0046,-5.0479,-5.0696,-5.0696,-5.0696,-5.0696,-5.0696,-5.0696,-5.0696,-5.0696,-5.0696,-5.0696,-5.0696,-5.0696,-5.0696,-5.0696,-5.0696,-5.0696,-5.0696,-5.0696,-5.1129,-5.1994,-5.2716,-5.3317,-5.3822,-5.3822,-5.3822,-5.3822,-5.3822,-5.3822,-5.3822,-5.3822,-5.3822,-5.3822,-5.3822,-5.3822,-5.3822,-5.3822,-5.3822,-5.3822,-5.3822,-5.3822,-5.3822,0.0,0.0,0.0,0.0,0.0,0.0,0.0,0.0,-1.7027,-1.7364,0.0,0.0,0.0,0.0,-1.7412,-1.7412,-1.7099,-1.6883,-1.6883,-1.6883,-1.6763,-1.6596,-1.7315,-1.7748,-1.7941,-1.8638,-1.9432,-2.0354,-2.0875,-2.1668,-2.2727,-2.3256,-2.3857,-2.4554,-2.5252,-2.6069,-2.6959,-2.732,-2.7969,-2.8787,-2.8787,-2.9196,-2.9845,-3.0037,-3.0759,-3.1697,-3.1697,-3.1697,-3.1529,-3.064,-2.9915,-2.9262,-2.8004,-2.7624,-2.7627,-2.7839,-2.8409,-2.9148,-2.9925,-3.1051,-3.234,-3.3663,-3.533,-3.7084,-3.8695,-4.0571,-4.2279,-4.3337,-4.4804,-4.6126,-4.6848,-4.7834,-4.8844,-4.9734,-5.0335,-5.0696,-5.0696,-5.0696,-5.0696,-5.0696,-5.0696,-5.0696,-5.0696,-5.0696,-5.0696,-5.0696,-5.0696,-5.0696,-5.0696,-5.0696,-5.0696,-5.0696,-5.0864,-5.1393,-5.2283,-5.2812,-5.3317,-5.3822,-5.3822,-5.3822,-5.3822,-5.3822,-5.3822,-5.3822,-5.3822,-5.3822,-5.3822,-5.3822,-5.3822,-5.3822,-5.3822,-5.3822,-5.3822,-5.3822,-5.3822,-5.3822,0.0,0.0,0.0,0.0,0.0,0.0,-1.746,-1.7484,-1.7484,-1.7508,0.0,0.0,0.0,0.0,0.0,-1.7484,-1.746,-1.746,-1.7436,-1.7412,-1.7195,-1.662,-1.7628,-1.7941,-1.7436,-1.8446,-1.9239,-1.9768,-2.0346,-2.1139,-2.2173,-2.2727,-2.352,-2.4506,-2.4506,-2.542,-2.6935,-2.6935,-2.7849,-2.9292,-2.9316,-2.9965,-3.0975,-3.1504,-3.2394,-3.3356,-3.3356,-3.3356,-3.3188,-3.213,-3.1408,-3.0663,-2.9051,-2.8186,-2.7777,-2.7753,-2.8114,-2.8619,0.0,0.0,0.0,-3.2803,-3.439,-3.5978,-3.7565,-3.92,-4.0643,-4.1701,-4.3192,-4.4611,-4.5645,-4.6728,-4.7954,-4.9541,-5.0287,-5.0672,-5.0672,-5.0696,-5.0696,-5.0696,-5.0696,-5.0696,-5.0696,-5.0696,-5.0696,-5.0696,-5.0696,-5.0696,-5.0696,-5.0696,-5.0696,-5.0696,-5.1201,-5.173,-5.2283,-5.2788,-5.3317,-5.3822,-5.3822,-5.3822,-5.3822,-5.3822,-5.3822,-5.3822,-5.3822,-5.3822,-5.3822,-5.3822,-5.3822,-5.3822,-5.3822,-5.3822,-5.3822,-5.3822,-5.3822,-5.3822,0.0,0.0,0.0,0.0,0.0,-1.8109,-1.8494,-1.8879,-1.9263,0.0,0.0,0.0,-1.972,-1.9696,-1.9552,-1.9167,-1.8782,-1.8398,-1.8013,-1.7628,-1.7339,-1.7195,-1.7484,-1.7748,-1.7989,-1.8277,-1.8855,-1.9768,-2.0346,-2.0971,-2.1644,-2.2558,-2.3352,-2.4001,-2.4362,-2.542,-2.6935,-2.6935,-2.7849,-2.934,-2.9725,-3.0735,-3.2106,-3.2635,-3.3717,-3.4968,-3.4968,-3.4968,-3.4871,-3.4174,-3.3356,-3.2274,-3.0278,-2.9292,-2.8787,-2.8402,-2.8402,-2.8546,-2.8691,0.0,0.0,0.0,0.0,0.0,-3.6386,-3.8094,-3.9561,-4.0619,-4.2086,-4.3409,-4.4058,-4.5381,-4.6752,-4.7954,-4.9253,-5.0095,-5.0095,-5.0455,-5.0696,-5.0696,-5.0696,-5.0696,-5.0696,-5.0696,-5.0696,-5.0696,-5.0696,-5.0696,-5.0696,-5.0696,-5.0696,-5.0696,-5.084,-5.1369,-5.2283,-5.2427,-5.2932,-5.3822,-5.3822,-5.3822,-5.3822,-5.3822,-5.3822,-5.3822,-5.3822,-5.3822,-5.3822,-5.3822,-5.3822,-5.3822,-5.3822,-5.3822,-5.3822,-5.3822,-5.3822,-5.3822,0.0,0.0,-1.782,-1.8037,-1.8518,-1.9047,-1.9576,-2.0129,-2.0562,0.0,0.0,0.0,-2.1284,-2.126,-2.1043,-2.049,-2.0177,-1.9768,-1.9239,-1.871,-1.8301,-1.8085,-1.8061,-1.8109,-1.8205,-1.8422,-1.8831,-1.9456,-1.9985,-2.0538,-2.1091,-2.1933,-2.2847,-2.3785,-2.429,-2.542,-2.6959,-2.7416,-2.8378,-2.9677,-3.0206,-3.1504,-3.3236,-3.3982,-3.5232,-3.6627,-3.6867,-3.6795,-3.6531,-3.6002,-3.4679,-3.302,-3.1553,-3.0422,-2.9532,-2.9003,-2.8691,-2.8522,-2.8522,-2.8907,-2.9556,-3.0615,0.0,0.0,-3.5328,-3.6988,-3.8383,-3.9224,-4.0667,-4.199,-4.2735,-4.3818,-4.4948,-4.6006,-4.7329,-4.8531,-4.9421,-4.9998,-5.0359,-5.0359,-5.0551,-5.0696,-5.0696,-5.0696,-5.0696,-5.0696,-5.0696,-5.0696,-5.0696,-5.0696,-5.0696,-5.0696,-5.0696,-5.1105,-5.1946,-5.2163,-5.2692,-5.351,-5.3726,-5.3822,-5.3822,-5.3822,-5.3822,-5.3822,-5.3822,-5.3822,-5.3822,-5.3822,-5.3822,-5.3822,-5.3822,-5.3822,-5.3822,-5.3822,-5.3822,-5.3822,0.0,-1.7864,-1.8518,-1.8946,-1.9624,-2.0225,-2.0706,-2.1284,-2.1668,0.0,-2.2125,-2.2462,-2.2462,-2.251,-2.2294,-2.1716,-2.1668,-2.1428,-2.0827,-2.0273,-1.9744,-1.9287,-1.9143,-1.8855,-1.8398,-1.8782,-1.8999,-1.8999,-1.9528,-2.0057,-2.061,-2.1163,-2.2246,-2.3785,-2.429,-2.542,-2.6932,-2.7908,-2.8985,-3.0061,-3.0879,-3.228,-3.415,-3.5349,-3.6795,-3.8166,-3.8767,-3.8623,-3.807,-3.7469,-3.5689,-3.3597,-3.2899,-3.1601,-3.023,-2.9653,-2.91,-2.8667,-2.8619,-2.8955,-2.9532,-3.047,-3.1529,0.0,-3.4222,-3.5785,-3.7084,-3.7613,-3.9008,-4.0427,-4.1437,-4.211,-4.2856,-4.3914,-4.4876,-4.6247,-4.8435,-4.9277,-4.9686,-4.9686,-5.0191,-5.0551,-5.06,-5.06,-5.0648,-5.0696,-5.0696,-5.0696,-5.0696,-5.0696,-5.0696,-5.0696,-5.0696,-5.096,-5.1489,-5.2018,-5.2548,-5.3077,-5.3582,-5.3822,-5.3822,-5.3822,-5.3822,-5.3822,-5.3822,-5.3822,-5.3822,-5.3822,-5.3822,-5.3822,-5.3822,-5.3822,-5.3822,-5.3822,-5.3822,-5.3822,-1.6655,-1.8147,-1.9395,-1.8969,-2.0487,-2.1765,-2.1861,-2.2702,-2.3304,-2.3304,-2.3761,-2.4073,-2.4073,-2.4458,-2.4314,-2.34,-2.3304,-2.2895,-2.1957,-2.138,-2.1043,-2.0947,-2.0081,-1.9576,-1.948,-1.9167,-1.8999,-1.8999,-1.9528,-2.0057,-2.0586,-2.1139,-2.2246,-2.3785,-2.429,-2.542,-2.6932,-2.7149,-2.8073,-2.9565,-3.1865,-3.3315,-3.4225,-3.6629,-3.7998,-3.8791,-3.9753,-3.9753,-3.9152,-3.8166,-3.7204,-3.6122,-3.4294,-3.2947,-3.1841,-3.0855,-3.0182,-2.9677,-2.9268,-2.922,-2.934,-2.9556,-3.0398,0.0,-3.2683,-3.4174,-3.5449,-3.5978,-3.7348,-3.8647,-3.932,-4.021,-4.1196,-4.2254,-4.2615,-4.3625,-4.6175,-4.7738,-4.8603,-4.8603,-4.906,-4.9565,-4.9974,-5.0022,-5.0215,-5.0672,-5.0696,-5.0696,-5.0696,-5.0696,-5.0696,-5.0696,-5.0696,-5.096,-5.1489,-5.2018,-5.2548,-5.3077,-5.3582,-5.3822,-5.3822,-5.3822,-5.3822,-5.3822,-5.3822,-5.3822,-5.3822,-5.3822,-5.3822,-5.3822,-5.3822,-5.3822,-5.3822,-5.3822,-5.3822,-5.3822,-1.7456,-1.845,-1.9432,-2.0006,-2.1296,-2.227,-2.2558,-2.3472,-2.4242,-2.4506,-2.5228,-2.5733,-2.5733,-2.5973,-2.5805,-2.5011,-2.4939,-2.4602,-2.3809,-2.3015,-2.2462,-2.2197,-2.1163,-2.0466,-2.0201,-1.9577,-1.9317,-1.9384,-1.9577,-1.9784,-2.0065,-2.0838,-2.1893,-2.325,-2.3837,-2.5015,-2.6621,-2.7228,-2.7988,-2.9001,-3.1504,-3.3115,-3.4324,-3.693,-3.819,-3.8653,-3.9426,-3.9175,-3.8251,-3.7473,-3.6557,-3.5611,-3.4862,-3.3801,-3.2677,-3.2213,-3.1504,-3.0759,-3.023,-2.9893,-2.9749,-3.0013,-3.047,0.0,0.0,-3.3308,-3.4198,-3.4727,-3.5881,-3.6964,-3.7517,-3.8479,-3.9465,-4.0258,-4.0836,-4.1653,-4.2976,-4.4996,-4.6511,-4.704,-4.7569,-4.8219,-4.9012,-4.9084,-4.9421,-5.0215,-5.0287,-5.0407,-5.0696,-5.0696,-5.0696,-5.0696,-5.0696,-5.084,-5.1105,-5.1634,-5.2163,-5.2692,-5.3197,-5.3582,-5.3822,-5.3822,-5.3822,-5.3822,-5.3822,-5.3822,-5.3822,-5.3822,-5.3822,-5.3822,-5.3822,-5.3822,-5.3822,-5.3822,-5.3822,-5.3822,-1.7917,-1.8484,-1.9158,-2.067,-2.1682,-2.24,-2.2793,-2.3807,-2.4755,-2.5469,-2.6399,-2.7043,-2.7292,-2.7488,-2.732,-2.6767,-2.6622,-2.6334,-2.5805,-2.4795,-2.3977,-2.3448,-2.2288,-2.1367,-2.0923,-1.9957,-1.9516,-1.9769,-1.9424,-1.938,-1.9493,-2.0398,-2.1459,-2.2639,-2.3312,-2.4503,-2.6197,-2.7282,-2.7957,-2.8507,-3.0844,-3.26,-3.4034,-3.6741,-3.7808,-3.8128,-3.8834,-3.843,-3.7645,-3.685,-3.5808,-3.4906,-3.5199,-3.4328,-3.3151,-3.3165,-3.2441,-3.1474,-3.0861,-3.0319,-2.9966,-3.0265,-3.0423,-3.0834,0.0,0.0,0.0,-3.3669,-3.4583,-3.5497,-3.6146,-3.694,-3.7685,-3.8118,-3.9008,-3.9585,-3.9489,-4.1581,-4.3673,-4.514,-4.579,-4.6559,-4.7714,-4.8098,-4.8652,-4.9493,-4.9758,-5.007,-5.0527,-5.0648,-5.0696,-5.0696,-5.0696,-5.0696,-5.0696,-5.1225,-5.1754,-5.2283,-5.2812,-5.3341,-5.3822,-5.3822,-5.3822,-5.3822,-5.3822,-5.3822,-5.3822,-5.3822,-5.3822,-5.3822,-5.3822,-5.3822,-5.3822,-5.3822,-5.3822,-5.3822,-1.6296,-1.7648,-1.8833,-1.9209,-2.1152,-2.2571,-2.2373,-2.37,-2.5148,-2.6115,-2.6817,-2.7672,-2.8898,-2.9436,-2.9508,-2.8979,-2.8498,-2.8017,-2.7488,-2.643,-2.5588,-2.5059,-2.3417,-2.2344,-2.2029,-2.0155,-1.9293,-1.9539,-1.8933,-1.8895,-1.931,-1.977,-2.0817,-2.2265,-2.3166,-2.4385,-2.5801,-2.6809,-2.7579,-2.8551,-3.0975,-3.2364,-3.3149,-3.5685,-3.6956,-3.7473,-3.8371,-3.9122,-3.9517,-3.8065,-3.734,-3.6709,-3.5816,-3.4644,-3.3355,-3.2937,-3.2104,-3.114,-3.0144,-2.965,-2.908,-2.836,-2.888,-2.9635,-2.975,0.0,-3.2611,-3.2659,0.0,-3.4511,-3.5521,0.0,0.0,-3.5978,-3.6483,-3.6699,-3.6218,-3.7637,-3.9801,-4.276,-4.3577,-4.4491,-4.6054,-4.7473,-4.8339,-4.8459,-4.9325,-4.9902,-4.995,-5.0431,-5.0696,-5.0696,-5.0696,-5.0696,-5.0696,-5.1225,-5.1754,-5.2283,-5.2812,-5.3341,-5.3822,-5.3822,-5.3822,-5.3822,-5.3822,-5.3822,-5.3822,-5.3822,-5.3822,-5.3822,-5.3822,-5.3822,-5.3822,-5.3822,-5.3822,-5.3822,-1.6527,-1.7673,-1.8866,-1.9716,-2.1297,-2.2462,-2.2491,-2.4095,-2.5569,-2.6279,-2.7034,-2.7875,-2.872,-2.8969,-2.8991,-2.8788,-2.8584,-2.8245,-2.777,-2.7069,-2.6187,-2.5102,-2.4024,-2.3067,-2.2117,-2.087,-2.0194,-2.0156,-1.9724,-1.9498,-1.9435,-2.0422,-2.1271,-2.1977,-2.2917,-2.4176,-2.5732,-2.6668,-2.7702,-2.8774,-3.0578,-3.1953,-3.3015,-3.584,-3.7219,-3.759,-3.7719,-3.7995,-3.8016,-3.733,-3.6473,-3.5848,-3.6081,-3.5233,-3.4149,-3.4367,-3.3573,-3.2444,-3.1668,-3.0738,-3.0068,-3.0326,-3.0578,-3.0767,-3.1125,-3.1884,-3.2418,-3.2082,0.0,0.0,0.0,0.0,0.0,0.0,-3.5136,-3.5521,-3.5593,-3.6459,-3.8022,-4.0619,-4.1389,-4.2327,-4.3938,-4.5525,-4.6704,-4.7329,-4.8363,-4.9229,-4.983,-5.0407,-5.0696,-5.0696,-5.0696,-5.0696,-5.0696,-5.0912,-5.1297,-5.1826,-5.2355,-5.2884,-5.3389,-5.3678,-5.3822,-5.3822,-5.3822,-5.3822,-5.3822,-5.3822,-5.3822,-5.3822,-5.3822,-5.3822,-5.3822,-5.3822,-5.3822,-5.3822,-1.6786,-1.7527,-1.8622,-1.9858,-2.0984,-2.2008,-2.2883,-2.4235,-2.5529,-2.6405,-2.7415,-2.8279,-2.8942,-2.9115,-2.918,-2.918,-2.9072,-2.8856,-2.8603,-2.7926,-2.7017,-2.5698,-2.4823,-2.3838,-2.2626,-2.1603,-2.0937,-2.0727,-2.0359,-1.992,-1.9465,-2.0731,-2.1456,-2.1659,-2.278,-2.4108,-2.5704,-2.6804,-2.8008,-2.9394,-3.084,-3.2324,-3.3965,-3.5997,-3.7307,-3.7799,-3.737,-3.7168,-3.6992,-3.6875,-3.6133,-3.5348,-3.6113,-3.5503,-3.4677,-3.5077,-3.4265,-3.3127,-3.2538,-3.1464,-3.0639,-3.1222,-3.1285,-3.1233,-3.1662,-3.1855,-3.1949,-3.1825,-3.194,0.0,0.0,0.0,-3.3621,-3.3621,0.0,-3.4438,-3.4535,-3.5232,-3.6555,-3.8695,-3.9681,-4.0691,-4.199,-4.3553,-4.4924,-4.5982,-4.7185,-4.8315,-4.9373,-5.0095,-5.0551,-5.0696,-5.0696,-5.0696,-5.0696,-5.0696,-5.096,-5.1489,-5.2018,-5.2548,-5.3077,-5.3582,-5.3822,-5.3822,-5.3822,-5.3822,-5.3822,-5.3822,-5.3822,-5.3822,-5.3822,-5.3822,-5.3822,-5.3822,-5.3822,-5.3822,-1.645,-1.6887,-1.7777,-1.8831,-1.9905,-2.1161,-2.3083,-2.362,-2.4655,-2.6857,-2.7945,-2.899,-3.0435,-3.0889,-3.117,-3.117,-3.0759,-3.0378,-3.0378,-2.9494,-2.8545,-2.7554,-2.592,-2.4702,-2.4061,-2.219,-2.1133,-2.0978,-2.0257,-1.9687,-1.935,-2.0232,-2.0879,-2.1269,-2.2578,-2.4102,-2.5781,-2.709,-2.8613,-3.0312,-3.2031,-3.4004,-3.5918,-3.6073,-3.6877,-3.7812,-3.7441,-3.7539,-3.7812,-3.7422,-3.6973,-3.6523,-3.6113,-3.5351,-3.4681,-3.425,-3.3524,-3.2642,-3.1799,-3.0917,-3.0035,-2.9192,-2.9393,-2.9891,-2.987,-3.0338,-3.0998,-3.2104,-3.1521,-3.153,-3.36,-3.3212,-3.2539,-3.2539,-3.2996,0.0,0.0,-3.314,-3.4895,-3.7012,-3.8671,-3.985,-4.0427,-4.1918,-4.3265,-4.4347,-4.5886,-4.7233,-4.8291,-4.9325,-5.0143,-5.0696,-5.0696,-5.0696,-5.0696,-5.0696,-5.096,-5.1489,-5.2018,-5.2548,-5.3077,-5.3582,-5.3822,-5.3822,-5.3822,-5.3822,-5.3822,-5.3822,-5.3822,-5.3822,-5.3822,-5.3822,-5.3822,-5.3822,-5.3822,-5.3822,-1.7568,-1.7898,-1.8323,-1.8563,-1.9411,-2.0584,-2.2116,-2.3371,-2.4716,-2.6192,-2.7436,-2.841,-2.9359,-2.9931,-3.0194,-3.0194,-3.0052,-2.9742,-2.9439,-2.9137,-2.8571,-2.7703,-2.6803,-2.5864,-2.4795,-2.3545,-2.2585,-2.1947,-2.1509,-2.1152,-2.1016,-2.1582,-2.209,-2.2559,-2.3848,-2.5234,-2.668,-2.8262,-2.9746,-3.1269,-3.3594,-3.5469,-3.6836,-3.6562,-3.707,-3.7949,-3.8086,-3.8242,-3.834,-3.8184,-3.7851,-3.748,-3.7324,-3.6699,-3.5918,-3.5488,-3.4746,-3.3926,-3.3359,-3.2363,-3.1584,-3.1667,-3.1391,-3.1221,-3.1254,-3.1499,-3.1614,-3.1614,-3.1119,-3.0865,-3.1591,-3.1044,-3.0578,-3.1252,-3.1274,-3.1313,0.0,-3.2442,-3.3549,0.0,0.0,0.0,0.0,0.0,-4.2158,-4.3216,-4.478,-4.6295,-4.769,-4.8772,-4.9589,-5.0143,-5.0503,-5.0696,-5.0696,-5.0696,-5.0792,-5.0984,-5.1513,-5.2043,-5.2572,-5.3077,-5.351,-5.3822,-5.3822,-5.3822,-5.3822,-5.3822,-5.3822,-5.3822,-5.3822,-5.3822,-5.3822,-5.3822,-5.3822,-5.3822,-1.8155,-1.843,-1.8709,-1.8583,-1.9709,-2.0957,-2.2114,-2.3786,-2.5309,-2.6506,-2.7709,-2.8746,-2.9551,-3.0,-3.0332,-3.0488,-3.0488,-3.0371,-3.0098,-2.9941,-2.9453,-2.8613,-2.8008,-2.709,-2.5781,-2.4922,-2.3984,-2.2969,-2.2539,-2.2187,-2.1894,-2.2305,-2.2734,-2.3223,-2.4492,-2.5879,-2.7344,-2.8906,-3.0508,-3.2187,-3.4629,-3.6465,-3.7715,-3.7441,-3.7773,-3.8437,-3.8887,-3.9043,-3.9043,-3.9043,-3.8848,-3.8594,-3.8437,-3.791,-3.7266,-3.6816,-3.6074,-3.5273,-3.4707,-3.3828,-3.3178,-3.3155,-3.269,-3.2214,-3.2301,-3.2148,-3.1881,-3.1741,-3.1253,-3.0845,-3.1084,-3.0383,-2.9991,-3.0845,-3.0341,-3.0194,0.0,-3.195,0.0,0.0,0.0,0.0,0.0,0.0,0.0,0.0,0.0,0.0,0.0,-4.8122,-4.9133,-4.9854,-5.0407,-5.0696,-5.0696,-5.0696,-5.0696,-5.072,-5.1249,-5.1778,-5.2307,-5.2836,-5.3341,-5.3822,-5.3822,-5.3822,-5.3822,-5.3822,-5.3822,-5.3822,-5.3822,-5.3822,-5.3822,-5.3822,-5.3822,-5.3822,-1.832,-1.8559,-1.8911,-1.9102,-2.0667,-2.2133,-2.315,-2.4887,-2.6487,-2.7718,-2.8972,-2.998,-3.0859,-3.1328,-3.1758,-3.2187,-3.2226,-3.2226,-3.2226,-3.1836,-3.123,-3.0371,-2.9512,-2.8457,-2.7207,-2.6289,-2.5195,-2.3926,-2.3457,-2.2793,-2.1992,-2.2363,-2.2793,-2.3281,-2.4551,-2.6074,-2.7773,-2.9082,-3.0918,-3.3144,-3.5254,-3.7109,-3.8613,-3.8652,-3.8926,-3.9316,-3.9746,-3.9902,-3.9902,-3.9902,-3.9902,-3.9824,-3.9375,-3.8965,-3.8555,-3.8125,-3.7422,-3.6601,-3.5762,-3.5176,-3.4629,-3.3769,-3.3223,-3.2891,-3.2871,-3.2207,-3.1722,-3.2411,-3.184,-3.1387,-3.1954,-3.1197,-3.0701,-3.1133,-3.0231,-2.9525,-3.0171,0.0,0.0,0.0,0.0,0.0,0.0,0.0,0.0,0.0,0.0,0.0,0.0,-4.7329,-4.8676,-4.9782,-5.0359,-5.0672,-5.0696,-5.0696,-5.0696,-5.072,-5.1225,-5.1754,-5.2307,-5.2812,-5.3317,-5.3822,-5.3822,-5.3822,-5.3822,-5.3822,-5.3822,-5.3822,-5.3822,-5.3822,-5.3822,-5.3822,-5.3822,-5.3822,-1.9916,-2.0228,-2.0686,-2.1379,-2.1839,-2.241,-2.333,-2.5088,-2.6729,-2.7891,-2.9353,-3.0626,-3.1738,-3.2207,-3.2637,-3.3066,-3.3105,-3.3105,-3.3105,-3.2988,-3.2695,-3.2148,-3.1309,-3.041,-2.9434,-2.793,-2.6699,-2.5723,-2.4629,-2.3828,-2.3301,-2.3086,-2.3379,-2.4141,-2.5117,-2.6523,-2.8242,-2.9863,-3.2344,-3.5332,-3.6836,-3.8086,-3.9121,-3.9766,-4.0098,-4.0156,-3.9961,-3.9902,-3.9902,-3.9902,-3.9902,-3.9883,-3.9766,-3.9648,-3.9473,-3.9004,-3.873,-3.8359,-3.75,-3.6953,-3.6426,-3.5566,-3.4785,-3.4121,-3.3809,-3.332,-3.2936,-3.2749,-3.2336,-3.1721,-3.1311,-3.0429,-3.0052,-3.0577,-3.0381,-3.0252,0.0,0.0,0.0,-3.2984,0.0,0.0,0.0,0.0,0.0,0.0,0.0,0.0,-4.5213,-4.6102,-4.7377,-4.9229,-4.9806,-5.0287,-5.0696,-5.0696,-5.0696,-5.0696,-5.084,-5.1393,-5.2283,-5.2427,-5.298,-5.3822,-5.3822,-5.3822,-5.3822,-5.3822,-5.3822,-5.3822,-5.3822,-5.3822,-5.3822,-5.3822,-5.3822,-5.3822,-2.1053,-2.1511,-2.2116,-2.274,-2.3437,-2.4079,-2.4519,-2.5885,-2.7397,-2.8521,-3.0043,-3.1277,-3.237,-3.298,-3.3613,-3.4219,-3.4277,-3.4277,-3.4277,-3.4277,-3.4004,-3.3379,-3.2715,-3.1855,-3.082,-2.9473,-2.8164,-2.6953,-2.582,-2.4863,-2.4062,-2.3809,-2.3945,-2.4473,-2.5742,-2.7031,-2.8476,-3.1152,-3.3828,-3.6406,-3.7695,-3.8848,0.0,-4.0332,-4.0644,-4.0781,-4.0547,-4.0449,-4.0449,-4.0449,-4.0449,-4.0449,-4.0449,-4.0332,-4.0117,-3.9863,-3.9648,-3.9355,-3.8672,-3.8301,-3.7969,-3.7305,-3.6621,-3.5996,-3.5586,-3.5156,-3.4609,-3.3789,-3.3437,-3.2949,-3.1914,-3.1016,-3.0305,-2.9828,-3.0346,0.0,0.0,0.0,0.0,0.0,-3.195,0.0,0.0,0.0,0.0,0.0,0.0,0.0,0.0,-4.5261,-4.6776,-4.8676,-4.9469,-5.0143,-5.0696,-5.0696,-5.0696,-5.0696,-5.0696,-5.1249,-5.2283,-5.2283,-5.2836,-5.3822,-5.3822,-5.3822,-5.3822,-5.3822,-5.3822,-5.3822,-5.3822,-5.3822,-5.3822,-5.3822,-5.3822,-5.3822,-2.2061,-2.2703,-2.34,-2.3785,-2.5161,-2.6224,-2.6334,-2.7179,-2.8294,-2.9524,-3.085,-3.2076,-3.3162,-3.3843,-3.4687,-3.5566,-3.5644,-3.5644,-3.5644,-3.5644,-3.5273,-3.4453,-3.3945,-3.3105,-3.1875,-3.0879,-2.959,-2.8008,-2.7031,-2.5937,-2.4766,-2.4648,-2.4609,-2.4746,-2.6367,-2.7734,-2.9043,-3.2637,-3.5156,-3.6875,-3.8144,-3.9414,-4.0527,-4.0586,-4.084,-4.1172,-4.1172,-4.1172,-4.1172,-4.1172,-4.1172,-4.1172,-4.1172,-4.0918,-4.0605,-4.0605,-4.0351,-3.9961,-3.9492,-3.9375,-3.9277,-3.8848,-3.8418,-3.7988,-3.7637,-3.7226,-3.6562,-3.5293,-3.5039,-3.4629,-3.3301,-3.2305,-3.1152,-2.9531,-3.0329,0.0,0.0,0.0,0.0,0.0,0.0,0.0,0.0,0.0,0.0,0.0,0.0,0.0,0.0,0.0,-4.6295,-4.8026,-4.9109,-4.995,-5.06,-5.0672,-5.0696,-5.0696,-5.0696,-5.1249,-5.2283,-5.2283,-5.2836,-5.3822,-5.3822,-5.3822,-5.3822,-5.3822,-5.3822,-5.3822,-5.3822,-5.3822,-5.3822,-5.3822,-5.3822,-5.3822,-2.373,-2.439,-2.5069,-2.5472,-2.6591,-2.7673,-2.8352,-2.8923,-2.9561,-3.0792,-3.1766,-3.291,-3.4854,-3.524,-3.5762,-3.6894,-3.6973,-3.6973,-3.6973,-3.6973,-3.6738,-3.623,-3.5469,-3.4609,-3.3652,-3.209,-3.0781,-2.9746,-2.8203,-2.7148,-2.6543,-2.584,-2.5703,-2.6094,-2.7109,-2.9023,-3.1621,-3.3711,-3.5586,-3.7305,-3.8574,-3.9668,-4.0566,-4.0918,-4.1113,-4.1172,-4.1172,-4.1172,-4.1172,-4.1172,-4.1172,-4.1172,-4.1172,-4.1113,-4.1055,-4.1055,-4.1016,-4.0859,-4.041,-4.0293,-4.0195,-3.9766,-3.9316,-3.8965,-3.8887,-3.8535,-3.7969,-3.7031,-3.6836,-3.6328,-3.4668,-3.3379,-3.2246,-3.123,-3.1231,0.0,0.0,0.0,0.0,0.0,0.0,0.0,0.0,0.0,0.0,0.0,0.0,0.0,0.0,0.0,-4.4443,-4.692,-4.8002,-4.9036,-4.9998,-5.0479,-5.0696,-5.0696,-5.0696,-5.1249,-5.2283,-5.2283,-5.2836,-5.3822,-5.3822,-5.3822,-5.3822,-5.3822,-5.3822,-5.3822,-5.3822,-5.3822,-5.3822,-5.3822,-5.3822,-5.3822,-2.5087,-2.5913,-2.6683,-2.6866,-2.8077,-2.9232,-2.9819,-3.0567,-3.1246,-3.1616,-3.2655,-3.3838,-3.513,-3.5572,-3.6112,-3.7009,-3.7209,-3.7332,-3.7332,-3.7475,-3.7441,-3.7012,-3.6387,-3.5644,-3.4785,-3.3496,-3.2207,-3.0879,-2.9609,-2.8535,-2.7676,-2.7246,-2.7051,-2.7109,-2.8398,-3.0293,-3.2598,-3.4336,-3.6055,-3.7734,-3.9043,-4.0078,-4.0879,-4.1094,-4.1172,-4.1172,-4.1172,-4.1172,-4.1172,-4.1172,-4.1172,-4.1172,-4.1172,-4.1172,-4.1172,-4.1172,-4.1172,-4.1133,-4.0918,-4.0859,-4.082,-4.0605,-4.0391,-4.0156,-3.9941,-3.9726,-3.9336,-3.8457,-3.8281,-3.7754,-3.6035,-3.4668,-3.3574,-3.2949,0.0,0.0,0.0,0.0,0.0,0.0,0.0,0.0,0.0,0.0,0.0,0.0,0.0,0.0,0.0,0.0,-4.3203,0.0,-4.7593,-4.8796,-4.9854,-5.0431,-5.0696,-5.0696,-5.0696,-5.1249,-5.2283,-5.2283,-5.2836,-5.3822,-5.3822,-5.3822,-5.3822,-5.3822,-5.3822,-5.3822,-5.3822,-5.3822,-5.3822,-5.3822,-5.3822,-5.3822,-2.6481,-2.7453,-2.8278,-2.8278,-2.9635,-3.0809,-3.1121,-3.2203,-3.2845,-3.2441,-3.3576,-3.4548,-3.5172,-3.5811,-3.6368,-3.7169,-3.7479,-3.7663,-3.7904,-3.8195,-3.8184,-3.7871,-3.7363,-3.6719,-3.5937,-3.4902,-3.3594,-3.207,-3.0976,-2.975,-2.8437,-2.8505,-2.8574,-2.8418,-2.9941,-3.1582,-3.332,-3.5059,-3.6719,-3.8301,-3.9531,-4.0488,-4.1172,-4.1172,-4.1172,-4.1172,-4.1172,-4.1172,-4.1172,-4.1172,-4.1172,-4.1172,-4.1172,-4.1172,-4.1172,-4.1172,-4.1172,-4.1172,-4.1172,-4.1172,-4.1172,-4.1172,-4.1172,-4.1074,-4.0742,-4.0664,-4.043,-3.9648,-3.9336,-3.8789,-3.7461,-3.6133,-3.5117,-3.4687,-3.3828,0.0,0.0,0.0,0.0,0.0,0.0,0.0,0.0,0.0,0.0,0.0,0.0,0.0,-3.9712,0.0,0.0,0.0,-4.7233,-4.8628,-4.9686,-5.0359,-5.0696,-5.0696,-5.0696,-5.1249,-5.2283,-5.2283,-5.2836,-5.3822,-5.3822,-5.3822,-5.3822,-5.3822,-5.3822,-5.3822,-5.3822,-5.3822,-5.3822,-5.3822,-5.3822,-5.3822,-2.8168,-2.914,-2.9965,-2.9965,-3.1304,-3.2386,-3.2423,-3.345,-3.4092,-3.3688,-3.4055,-3.4784,-3.601,-3.6141,-3.6769,-3.8303,-3.8509,-3.8831,-3.9537,-3.9707,-3.9687,-3.9648,-3.8848,-3.8164,-3.7695,-3.6094,-3.4805,-3.3828,-3.2208,-3.0547,-2.8867,-2.9312,-2.9891,-3.0625,-3.1562,-3.293,-3.4629,-3.6387,-3.7871,-3.916,-4.0098,-4.0742,-4.1172,-4.1172,-4.1172,-4.1172,-4.1172,-4.1172,-4.1172,-4.1172,-4.1172,-4.1172,-4.1172,-4.1172,-4.1172,-4.1172,-4.1172,-4.1172,-4.1172,-4.1172,-4.1172,-4.1172,-4.1172,-4.1172,-4.1113,-4.1113,-4.0976,-4.0488,-3.9766,-3.916,-3.8984,-3.791,-3.6914,-3.6504,-3.5351,0.0,0.0,0.0,-3.3066,-3.2617,0.0,0.0,0.0,-3.2281,0.0,0.0,0.0,0.0,0.0,0.0,0.0,-4.4443,-4.6487,-4.8074,-4.9133,-5.0191,-5.0696,-5.0696,-5.0696,-5.1249,-5.2283,-5.2283,-5.2836,-5.3822,-5.3822,-5.3822,-5.3822,-5.3822,-5.3822,-5.3822,-5.3822,-5.3822,-5.3822,-5.3822,-5.3822,-5.3822,-2.947,-3.0644,-3.1634,-3.1634,-3.2771,-3.367,-3.367,-3.4513,-3.5155,-3.5247,-3.5394,-3.5705,-3.6441,-3.6717,-3.7144,-3.7763,-3.8103,-3.833,-3.8804,-3.8975,-3.9127,-3.9127,-3.8801,-3.8451,-3.7904,-3.6977,-3.5976,-3.4863,-3.3695,-3.2373,-3.0895,-3.1123,-3.1494,-3.209,-3.3203,-3.4355,-3.5586,-3.7051,-3.8418,-3.9668,-4.0273,-4.0781,-4.1172,-4.1172,-4.1172,-4.1172,-4.1172,-4.1172,-4.1172,-4.1172,-4.1172,-4.1172,-4.1172,-4.1172,-4.1172,-4.1172,-4.1172,-4.1172,-4.1172,-4.1172,-4.1172,-4.1172,-4.1172,-4.1172,-4.1172,-4.1172,-4.1133,-4.0957,-4.043,-4.0,-4.0,-3.9141,-3.8379,-3.8223,-3.7305,-3.6484,0.0,0.0,0.0,-3.4062,0.0,0.0,0.0,0.0,0.0,0.0,0.0,0.0,0.0,0.0,0.0,-4.4175,-4.6391,-4.8002,-4.906,-5.0167,-5.0696,-5.0696,-5.0696,-5.1249,-5.2283,-5.2283,-5.2836,-5.3822,-5.3822,-5.3822,-5.3822,-5.3822,-5.3822,-5.3822,-5.3822,-5.3822,-5.3822,-5.3822,-5.3822,-5.3822,-3.1066,-3.2184,-3.312,-3.312,-3.4037,-3.4807,-3.4917,-3.5522,-3.6127,-3.6512,-3.6677,-3.6806,-3.6989,-3.7264,-3.7466,-3.7748,-3.8075,-3.8284,-3.855,-3.8877,-3.9031,-3.9031,-3.8917,-3.888,-3.8586,-3.8039,-3.7197,-3.6133,-3.5182,-3.3989,-3.2614,-3.2478,-3.2816,-3.3613,-3.4766,-3.5762,-3.666,-3.7949,-3.9121,-4.0117,-4.0547,-4.0898,-4.1172,-4.1172,-4.1172,-4.1172,-4.1172,-4.1172,-4.1172,-4.1172,-4.1172,-4.1172,-4.1172,-4.1172,-4.1172,-4.1172,-4.1172,-4.1172,-4.1172,-4.1172,-4.1172,-4.1172,-4.1172,-4.1172,-4.1172,-4.1172,-4.1172,-4.1172,-4.0937,-4.0723,-4.0723,-4.0098,-3.959,-3.959,-3.8867,-3.8203,-3.7891,-3.75,0.0,-3.5605,-3.5469,-3.4902,-3.3496,-3.3359,0.0,0.0,0.0,0.0,0.0,0.0,0.0,0.0,-4.6704,-4.8243,-4.9301,-5.0239,-5.0696,-5.0696,-5.0696,-5.1249,-5.2283,-5.2596,-5.3125,-5.3822,-5.3822,-5.3822,-5.3822,-5.3822,-5.3822,-5.3822,-5.3822,-5.3822,-5.3822,-5.3822,-5.3822,-5.3822,-3.3101,-3.3835,-3.4385,-3.4385,-3.5064,-3.5742,-3.6127,-3.6549,-3.6971,-3.7356,-3.7759,-3.7851,-3.7466,-3.7429,-3.7748,-3.862,-3.8657,-3.8981,-3.9864,-3.9883,-3.9883,-3.9883,-3.9951,-3.9875,-3.9875,-3.907,-3.834,-3.7891,-3.663,-3.5124,-3.3398,-3.2988,-3.3711,-3.541,-3.6269,-3.7109,-3.7988,-3.9316,-4.0117,-4.0547,-4.0996,-4.1172,-4.1172,-4.1172,-4.1172,-4.1172,-4.1172,-4.1172,-4.1172,-4.1172,-4.1172,-4.1172,-4.1172,-4.1172,-4.1172,-4.1172,-4.1172,-4.1172,-4.1172,-4.1172,-4.1172,-4.1172,-4.1172,-4.1172,-4.1172,-4.1172,-4.1172,-4.1172,-4.1172,-4.1172,-4.1172,-4.0801,-4.0508,-4.0508,-3.9766,-3.918,-3.918,-3.8828,0.0,-3.7363,-3.7266,-3.6582,-3.4844,-3.4668,0.0,0.0,0.0,0.0,0.0,0.0,0.0,-4.5734,-4.7449,-4.8796,-4.9854,-5.0431,-5.0696,-5.0696,-5.0696,-5.1249,-5.2307,-5.3341,-5.3798,-5.3822,-5.3822,-5.3822,-5.3822,-5.3822,-5.3822,-5.3822,-5.3822,-5.3822,-5.3822,-5.3822,-5.3822,-5.3822,-3.4,-3.4678,-3.532,-3.5577,-3.6091,-3.6586,-3.6971,-3.7154,-3.7374,-3.7778,-3.7924,-3.8071,-3.8236,-3.8255,-3.831,-3.8596,-3.8614,-3.8669,-3.8956,-3.8956,-3.8956,-3.8956,-3.8984,-3.8937,-3.8968,-3.8726,-3.833,-3.7925,-3.7345,-3.6607,-3.5673,-3.5539,-3.6028,-3.7148,-3.8008,-3.8711,-3.9316,-4.0019,-4.0566,-4.0976,-4.1113,-4.1172,-4.1172,-4.1172,-4.1172,-4.1172,-4.1172,-4.1172,-4.1172,-4.1172,-4.1172,-4.1172,-4.1172,-4.1172,-4.1172,-4.1172,-4.1172,-4.1172,-4.1172,-4.1172,-4.1172,-4.1172,-4.1172,-4.1172,-4.1172,-4.1172,-4.1172,-4.1172,-4.1172,-4.1172,-4.1172,-4.1055,-4.0976,-4.0976,-4.0723,-4.0449,-4.0137,-3.998,-3.957,-3.8691,-3.834,-3.7715,-3.6582,-3.6211,0.0,0.0,0.0,0.0,0.0,0.0,0.0,0.0,-4.5932,-4.7789,-4.9854,-5.0431,-5.0696,-5.0696,-5.0696,-5.1249,-5.2307,-5.3341,-5.3822,-5.3822,-5.3822,-5.3822,-5.3822,-5.3822,-5.3822,-5.3822,-5.3822,-5.3822,-5.3822,-5.3822,-5.3822,-5.3822,-3.5504,-3.5944,-3.6384,-3.6622,-3.6879,-3.7191,-3.7576,-3.7649,-3.7796,-3.8199,-3.8255,-3.8346,-3.8621,-3.864,-3.864,-3.864,-3.864,-3.864,-3.864,-3.864,-3.864,-3.864,-3.8798,-3.8827,-3.8881,-3.8887,-3.8704,-3.8501,-3.8028,-3.784,-3.7644,-3.7773,-3.8067,-3.8691,-3.9394,-3.9863,-4.0156,-4.0586,-4.0918,-4.1172,-4.1172,-4.1172,-4.1172,-4.1172,-4.1172,-4.1172,-4.1172,-4.1172,-4.1172,-4.1172,-4.1172,-4.1172,-4.1172,-4.1172,-4.1172,-4.1172,-4.1172,-4.1172,-4.1172,-4.1172,-4.1172,-4.1172,-4.1172,-4.1172,-4.1172,-4.1172,-4.1172,-4.1172,-4.1172,-4.1172,-4.1172,-4.1172,-4.1172,-4.1172,-4.1172,-4.1074,-4.0801,-4.0762,-4.0508,-3.9785,-3.9473,-3.8965,0.0,-3.7773,-3.7441,0.0,0.0,0.0,0.0,0.0,-4.0801,-4.4589,-4.5898,-4.7726,-5.0167,-5.0527,-5.0696,-5.072,-5.1105,-5.1634,-5.2307,-5.3341,-5.3822,-5.3822,-5.3822,-5.3822,-5.3822,-5.3822,-5.3822,-5.3822,-5.3822,-5.3822,-5.3822,-5.3822,-5.3822,-5.3822,-3.7356,-3.7429,-3.7429,-3.7466,-3.7466,-3.7594,-3.7998,-3.8053,-3.8199,-3.8585,-3.864,-3.864,-3.864,-3.864,-3.864,-3.864,-3.864,-3.864,-3.864,-3.864,-3.864,-3.864,-3.8956,-3.9272,-3.9272,-3.9212,-3.9179,-3.9179,-3.8802,-3.8747,-3.9184,-3.9184,-3.9507,-4.0,-4.0391,-4.0566,-4.0586,-4.0996,-4.1172,-4.1172,-4.1172,-4.1172,-4.1172,-4.1172,-4.1172,-4.1172,-4.1172,-4.1172,-4.1172,-4.1172,-4.1172,-4.1172,-4.1172,-4.1172,-4.1172,-4.1172,-4.1172,-4.1172,-4.1172,-4.1172,-4.1172,-4.1172,-4.1172,-4.1172,-4.1172,-4.1172,-4.1172,-4.1172,-4.1172,-4.1172,-4.1172,-4.1172,-4.1172,-4.1172,-4.1172,-4.1172,-4.1172,-4.1172,-4.1035,-4.0625,-4.0547,-4.0195,-3.9375,-3.9258,-3.9082,0.0,0.0,0.0,0.0,-3.9959,-4.2394,-4.5781,-4.6763,-4.8399,-5.0554,-5.0696,-5.0696,-5.072,-5.1778,-5.2283,-5.2307,-5.3341,-5.3822,-5.3822,-5.3822,-5.3822,-5.3822,-5.3822,-5.3822,-5.3822,-5.3822,-5.3822,-5.3822,-5.3822,-5.3822,-5.3822,-3.7411,-3.7429,-3.7521,-3.7814,-3.7869,-3.8016,-3.8438,-3.8493,-3.853,-3.864,-3.864,-3.864,-3.864,-3.864,-3.864,-3.864,-3.864,-3.864,-3.864,-3.864,-3.864,-3.864,-3.864,-3.8798,-3.8798,-3.8706,-3.8827,-3.8827,-3.8716,-3.8817,-3.9287,-3.9599,-3.991,-4.0376,-4.0802,-4.1016,-4.1035,-4.1133,-4.1172,-4.1172,-4.1172,-4.1172,-4.1172,-4.1172,-4.1172,-4.1172,-4.1172,-4.1172,-4.1172,-4.1172,-4.1172,-4.1172,-4.1172,-4.1172,-4.1172,-4.1172,-4.1172,-4.1172,-4.1172,-4.1172,-4.1172,-4.1172,-4.1172,-4.1172,-4.1172,-4.1172,-4.1172,-4.1172,-4.1172,-4.1172,-4.1172,-4.1172,-4.1172,-4.1172,-4.1172,-4.1172,-4.1172,-4.1172,-4.1133,-4.1035,-4.0723,-4.0449,-4.0234,-3.9922,-3.9687,-3.959,-3.959,-3.959,-3.959,-4.0164,-4.14,-4.3043,-4.491,-4.6771,-4.891,-5.0104,-5.0696,-5.072,-5.1778,-5.2283,-5.2307,-5.3341,-5.3822,-5.3822,-5.3822,-5.3822,-5.3822,-5.3822,-5.3822,-5.3822,-5.3822,-5.3822,-5.3822,-5.3822,-5.3822,-5.3822,-3.7979,-3.7979,-3.8053,-3.8273,-3.831,-3.8383,-3.8603,-3.864,-3.864,-3.864,-3.864,-3.864,-3.864,-3.864,-3.864,-3.864,-3.864,-3.864,-3.864,-3.864,-3.864,-3.864,-3.864,-3.864,-3.864,-3.864,-3.864,-3.864,-3.864,-3.8798,-3.9272,-3.9588,-3.9902,-4.0216,-4.0529,-4.0685,-4.0841,-4.0841,-4.0997,-4.1172,-4.1172,-4.1172,-4.1172,-4.1172,-4.1172,-4.1172,-4.1172,-4.1172,-4.1172,-4.1172,-4.1172,-4.1172,-4.1172,-4.1172,-4.1172,-4.1172,-4.1172,-4.1172,-4.1172,-4.1172,-4.1172,-4.1172,-4.1172,-4.1172,-4.1172,-4.1328,-4.1465,-4.1465,-4.1465,-4.1465,-4.1465,-4.1308,-4.1172,-4.1172,-4.1172,-4.1172,-4.1172,-4.1172,-4.1172,-4.1172,-4.0976,-4.082,-4.082,-4.0605,-4.0488,-4.0488,-4.0488,-4.0488,-4.0488,-4.0703,-4.135,-4.2518,-4.4568,-4.6411,-4.8308,-4.9961,-5.0696,-5.072,-5.1778,-5.2283,-5.2307,-5.3341,-5.3822,-5.3822,-5.3822,-5.3822,-5.3822,-5.3822,-5.3822,-5.3822,-5.3822,-5.3822,-5.3822,-5.3822,-5.3822,-5.3822,-3.8145,-3.8481,-3.864,-3.864,-3.864,-3.864,-3.864,-3.864,-3.864,-3.864,-3.864,-3.864,-3.864,-3.864,-3.864,-3.864,-3.864,-3.864,-3.864,-3.864,-3.864,-3.864,-3.864,-3.864,-3.864,-3.864,-3.864,-3.864,-3.864,-3.8798,-3.9272,-3.9272,-3.943,-3.9745,-3.9902,-4.0059,-4.0509,-4.0509,-4.0841,-4.1172,-4.1172,-4.1172,-4.1172,-4.1172,-4.1172,-4.1172,-4.1172,-4.1172,-4.1172,-4.1172,-4.1172,-4.1172,-4.1172,-4.1172,-4.1172,-4.1172,-4.1172,-4.1172,-4.1172,-4.1172,-4.1172,-4.1172,-4.1172,-4.1191,-4.125,-4.1543,-4.1816,-4.1875,-4.1836,-4.1797,-4.1797,-4.1465,-4.1172,-4.1172,-4.1172,-4.1172,-4.1172,-4.1172,-4.1172,-4.1172,-4.1172,-4.1172,-4.1172,-4.1172,-4.1172,-4.1172,-4.1172,-4.1172,-4.1172,-4.1172,-4.1594,-4.2543,-4.4528,-4.6381,-4.7872,-4.9509,-5.0412,-5.0412,-5.1633,-5.2283,-5.2307,-5.3341,-5.3822,-5.3822,-5.3822,-5.3822,-5.3822,-5.3822,-5.3822,-5.3822,-5.3822,-5.3822,-5.3822,-5.3822,-5.3822,-5.3822,-3.6333,-3.7649,-3.864,-3.864,-3.864,-3.864,-3.864,-3.864,-3.864,-3.864,-3.864,-3.864,-3.864,-3.864,-3.864,-3.864,-3.864,-3.864,-3.864,-3.864,-3.864,-3.864,-3.864,-3.864,-3.864,-3.864,-3.864,-3.864,-3.864,-3.864,-3.8798,-3.9114,-3.9272,-3.943,-3.9745,-4.0059,-4.0509,-4.0509,-4.0841,-4.1172,-4.1172,-4.1172,-4.1172,-4.1172,-4.1172,-4.1172,-4.1172,-4.1172,-4.1172,-4.1172,-4.1172,-4.1172,-4.1172,-4.1172,-4.1172,-4.1172,-4.1172,-4.1172,-4.1172,-4.1172,-4.1172,-4.1172,-4.1172,-4.1269,-4.1621,-4.1758,-4.1894,-4.2266,-4.2051,-4.1797,-4.1797,-4.1465,-4.1172,-4.1172,-4.1172,-4.1172,-4.1172,-4.1172,-4.1172,-4.1172,-4.1172,-4.1172,-4.1172,-4.1172,-4.1172,-4.1172,-4.1172,-4.1172,-4.1172,-4.1172,-4.1288,-4.1519,-4.3055,-4.4591,-4.6211,-4.7872,-4.8598,-4.8766,-5.115,-5.2283,-5.2307,-5.3341,-5.3822,-5.3822,-5.3822,-5.3822,-5.3822,-5.3822,-5.3822,-5.3822,-5.3822,-5.3822,-5.3822,-5.3822,-5.3822,-5.3822,-3.5833,-3.6654,-3.749,-3.8481,-3.864,-3.864,-3.864,-3.864,-3.864,-3.864,-3.864,-3.864,-3.864,-3.864,-3.864,-3.864,-3.864,-3.864,-3.864,-3.864,-3.864,-3.864,-3.864,-3.864,-3.864,-3.864,-3.875,-3.8951,-3.8951,-3.908,-3.9281,-3.9443,-3.9603,-3.9603,-3.9764,-3.9973,-4.0243,-4.0243,-4.0426,-4.0841,-4.0841,-4.0997,-4.1172,-4.1172,-4.1172,-4.1172,-4.1172,-4.1172,-4.1172,-4.1172,-4.1172,-4.1211,-4.1445,-4.1348,-4.1211,-4.1445,-4.1348,-4.1172,-4.1172,-4.1172,-4.1172,-4.1172,-4.1348,-4.1562,-4.1758,-4.2148,-4.2539,-4.2734,-4.2617,-4.248,-4.248,-4.2129,-4.1777,-4.1543,-4.1504,-4.1426,-4.1211,-4.1172,-4.1172,-4.1172,-4.1172,-4.1172,-4.1172,-4.1172,-4.1172,-4.1172,-4.1172,-4.1172,-4.1172,-4.1172,-4.1172,-4.1172,-4.2657,-4.4289,-4.5915,-4.6677,-4.6971,-4.6971,-4.8873,-4.9674,-4.9697,-5.1618,-5.1931,-5.1139,-5.2084,-5.1931,-5.1139,-5.1139,-5.1601,-5.2412,-5.2412,-5.302,-5.3822,-5.3822,-5.3822,-5.3822,-3.5025,-3.5672,-3.6494,-3.8322,-3.864,-3.864,-3.864,-3.864,-3.864,-3.864,-3.864,-3.864,-3.864,-3.864,-3.864,-3.864,-3.864,-3.864,-3.864,-3.864,-3.864,-3.864,-3.8731,-3.8786,-3.8786,-3.8878,-3.9061,-3.9373,-3.9373,-3.9538,-3.985,-3.985,-3.985,-3.985,-3.985,-3.9992,-4.0055,-4.0055,-4.033,-4.066,-4.0817,-4.0974,-4.1308,-4.1465,-4.1465,-4.1465,-4.1465,-4.1465,-4.1465,-4.1465,-4.1465,-4.1523,-4.1836,-4.1719,-4.1523,-4.1855,-4.1719,-4.1426,-4.123,-4.1172,-4.1191,-4.1289,-4.1562,-4.1855,-4.2051,-4.2598,-4.3105,-4.3203,-4.3144,-4.3086,-4.3086,-4.2715,-4.2324,-4.1992,-4.1953,-4.1797,-4.1387,-4.1328,-4.1328,-4.1328,-4.123,-4.1211,-4.1308,-4.123,-4.1172,-4.1172,-4.1172,-4.1172,-4.1172,-4.1172,-4.1172,-4.1172,-4.235,-4.3553,-4.4741,-4.5191,-4.5319,-4.5341,-4.6637,-4.7204,-4.7378,-4.9468,-4.9695,-4.8605,-4.985,-4.9762,-4.8602,-4.8602,-4.9451,-5.0675,-5.0675,-5.1777,-5.3195,-5.3195,-5.3497,-5.3822,-3.3233,-3.4863,-3.6494,-3.8322,-3.864,-3.864,-3.864,-3.864,-3.864,-3.864,-3.864,-3.864,-3.864,-3.864,-3.864,-3.864,-3.864,-3.864,-3.864,-3.864,-3.864,-3.864,-3.8988,-3.919,-3.919,-3.9557,-3.9758,-3.9795,-3.9795,-3.9813,-3.985,-3.985,-3.985,-3.985,-3.985,-4.0158,-4.0465,-4.0465,-4.0771,-4.1076,-4.156,-4.1702,-4.1882,-4.2184,-4.2344,-4.2344,-4.2344,-4.2344,-4.2344,-4.2344,-4.2344,-4.2344,-4.2363,-4.2363,-4.2344,-4.2363,-4.2363,-4.2168,-4.1387,-4.1172,-4.1269,-4.166,-4.1777,-4.2012,-4.2812,-4.3027,-4.3183,-4.3574,-4.3359,-4.3086,-4.3086,-4.2715,-4.2422,-4.2383,-4.2383,-4.2226,-4.1816,-4.1758,-4.1758,-4.1758,-4.1406,-4.1328,-4.1719,-4.1406,-4.1172,-4.1172,-4.1172,-4.1172,-4.1172,-4.1172,-4.1172,-4.1172,-4.1327,-4.1483,-4.1618,-4.2943,-4.3684,-4.3684,-4.5837,-4.6679,-4.6701,-4.7531,-4.775,-4.7619,-4.7772,-4.786,-4.8099,-4.8099,-4.8518,-4.8934,-4.8934,-5.0031,-5.1447,-5.1447,-5.2412,-5.3822,-3.1437,-3.2247,-3.3397,-3.5025,-3.6333,-3.6992,-3.6992,-3.7986,-3.864,-3.864,-3.864,-3.864,-3.864,-3.864,-3.864,-3.864,-3.864,-3.864,-3.864,-3.864,-3.875,-3.8988,-3.9153,-3.9355,-3.9612,-3.9758,-3.996,-4.0235,-4.0235,-4.0363,-4.0602,-4.0602,-4.0602,-4.0602,-4.0602,-4.0621,-4.0565,-4.0565,-4.0581,-4.0828,-4.1133,-4.1475,-4.1798,-4.2281,-4.2422,-4.2422,-4.2422,-4.2422,-4.2422,-4.2422,-4.2422,-4.248,-4.2754,-4.2637,-4.2422,-4.2422,-4.2422,-4.2363,-4.2031,-4.1953,-4.1992,-4.2148,-4.2402,-4.2676,-4.3008,-4.3281,-4.3516,-4.3672,-4.3574,-4.3457,-4.3457,-4.334,-4.3125,-4.2871,-4.2832,-4.2676,-4.2246,-4.1973,-4.1894,-4.2148,-4.1816,-4.1719,-4.2148,-4.1816,-4.1562,-4.1562,-4.1328,-4.1172,-4.1172,-4.1172,-4.1172,-4.1172,-4.1172,-4.1172,-4.1172,-4.1773,-4.2062,-4.2062,-4.3103,-4.3616,-4.3792,-4.5314,-4.5367,-4.4427,-4.5502,-4.5451,-4.4535,-4.4535,-4.525,-4.6541,-4.6659,-4.8496,-5.1033,-5.1179,-5.2389,-5.3822,-3.0455,-3.0788,-3.1271,-3.3069,-3.4863,-3.5994,-3.5994,-3.749,-3.864,-3.864,-3.864,-3.864,-3.864,-3.864,-3.864,-3.864,-3.864,-3.864,-3.864,-3.8768,-3.8951,-3.9226,-3.9483,-3.9758,-4.0033,-4.0162,-4.0363,-4.0657,-4.0657,-4.0785,-4.106,-4.106,-4.106,-4.106,-4.106,-4.0914,-4.0657,-4.0657,-4.0658,-4.0729,-4.1367,-4.1694,-4.2039,-4.267,-4.2832,-4.2832,-4.2832,-4.2832,-4.2832,-4.2832,-4.2832,-4.2871,-4.3183,-4.3066,-4.2832,-4.2832,-4.2832,-4.2832,-4.2832,-4.2832,-4.2793,-4.2656,-4.2851,-4.3105,-4.3242,-4.3496,-4.3711,-4.3711,-4.3711,-4.3711,-4.3711,-4.3711,-4.3613,-4.332,-4.3281,-4.3125,-4.2695,-4.2383,-4.2305,-4.2598,-4.2246,-4.2168,-4.2598,-4.2246,-4.1992,-4.1992,-4.1738,-4.1504,-4.1387,-4.125,-4.1172,-4.1172,-4.1172,-4.1172,-4.1172,-4.1172,-4.1172,-4.1172,-4.1465,-4.1601,-4.1621,-4.3134,-4.3098,-4.2031,-4.3255,-4.3178,-4.2226,-4.2226,-4.2923,-4.4152,-4.4457,-4.6279,-4.8982,-4.9318,-5.058,-5.2178,-3.0455,-3.0788,-3.1286,-3.3069,-3.4863,-3.6011,-3.6011,-3.749,-3.8658,-3.864,-3.864,-3.864,-3.864,-3.864,-3.864,-3.864,-3.864,-3.864,-3.864,-3.9025,-3.9245,-3.9245,-4.0033,-4.0473,-4.0473,-4.0859,-4.106,-4.106,-4.106,-4.106,-4.106,-4.106,-4.106,-4.106,-4.106,-4.106,-4.106,-4.106,-4.106,-4.1229,-4.2068,-4.2402,-4.2569,-4.338,-4.3711,-4.3711,-4.3711,-4.3711,-4.3711,-4.3711,-4.3711,-4.3711,-4.3711,-4.3711,-4.3711,-4.3711,-4.3711,-4.3711,-4.3711,-4.3711,-4.3594,-4.3183,-4.3086,-4.3183,-4.3613,-4.3711,-4.3711,-4.3711,-4.3711,-4.3711,-4.3711,-4.3711,-4.3711,-4.3711,-4.3711,-4.3555,-4.3144,-4.3086,-4.3086,-4.3086,-4.2695,-4.2598,-4.3047,-4.2695,-4.2441,-4.2441,-4.2422,-4.2246,-4.1816,-4.1406,-4.1172,-4.1172,-4.1172,-4.1172,-4.1172,-4.1172,-4.1172,-4.1172,-4.1172,-4.1172,-4.1172,-4.1172,-4.1172,-4.1172,-4.1172,-4.1406,-4.1797,-4.1797,-4.2031,-4.2422,-4.2422,-4.3499,-4.5117,-4.5395,-4.6647,-4.8432,-2.881,-2.9157,-2.9478,-2.9973,-3.1638,-3.3457,-3.4629,-3.6102,-3.7576,-3.8883,-3.8823,-3.864,-3.864,-3.864,-3.864,-3.864,-3.864,-3.8768,-3.9043,-3.9428,-3.9795,-4.0088,-4.0345,-4.0602,-4.0877,-4.1005,-4.106,-4.106,-4.106,-4.106,-4.106,-4.106,-4.106,-4.106,-4.106,-4.106,-4.106,-4.106,-4.106,-4.1229,-4.1714,-4.2049,-4.2402,-4.3068,-4.338,-4.3711,-4.3711,-4.3711,-4.3711,-4.3711,-4.3711,-4.3711,-4.3711,-4.3711,-4.3711,-4.3711,-4.3711,-4.3711,-4.3711,-4.3711,-4.3672,-4.3555,-4.3516,-4.3555,-4.3672,-4.3711,-4.3711,-4.3711,-4.3711,-4.3711,-4.3711,-4.3711,-4.3711,-4.3711,-4.3711,-4.3652,-4.3535,-4.3262,-4.3183,-4.3476,-4.3144,-4.3047,-4.3476,-4.3125,-4.2891,-4.2891,-4.2324,-4.1933,-4.1816,-4.1406,-4.1172,-4.1172,-4.1172,-4.1172,-4.1172,-4.1172,-4.1172,-4.1172,-4.1172,-4.1172,-4.1172,-4.1172,-4.1172,-4.1172,-4.1172,-4.125,-4.1367,-4.1367,-4.1426,-4.1582,-4.1875,-4.3058,-4.4639,-4.494,-4.6181,-4.7773,-2.831,-2.8484,-2.8644,-2.8764,-3.0437,-3.2082,-3.3105,-3.5161,-3.6938,-3.7915,-3.8399,-3.864,-3.864,-3.864,-3.864,-3.864,-3.8786,-3.9043,-3.9447,-3.9868,-4.0272,-4.0694,-4.0712,-4.0822,-4.106,-4.106,-4.106,-4.106,-4.106,-4.106,-4.106,-4.106,-4.106,-4.106,-4.106,-4.106,-4.106,-4.106,-4.106,-4.106,-4.1546,-4.1882,-4.2216,-4.2569,-4.2902,-4.3214,-4.338,-4.338,-4.3546,-4.3711,-4.3711,-4.3711,-4.3711,-4.3711,-4.3711,-4.3711,-4.3711,-4.3711,-4.3711,-4.3711,-4.3711,-4.3711,-4.3711,-4.3711,-4.3711,-4.3711,-4.3711,-4.3711,-4.3711,-4.3711,-4.3711,-4.3711,-4.3711,-4.3711,-4.3711,-4.3711,-4.3711,-4.3496,-4.3418,-4.3672,-4.3476,-4.3418,-4.3691,-4.3476,-4.332,-4.332,-4.2539,-4.2051,-4.2051,-4.1484,-4.1172,-4.1172,-4.1172,-4.1172,-4.1172,-4.1172,-4.1172,-4.1172,-4.1172,-4.1172,-4.1172,-4.1172,-4.1172,-4.1172,-4.1172,-4.1172,-4.1172,-4.1172,-4.1172,-4.1191,-4.1445,-4.2149,-4.3103,-4.3548,-4.4338,-4.5469,-2.8591,-2.8671,-2.8764,-2.9032,-3.0461,-3.1655,-3.1798,-3.4207,-3.6136,-3.6266,-3.7417,-3.8145,-3.8145,-3.8145,-3.8145,-3.8304,-3.8846,-3.941,-3.9813,-4.0235,-4.0639,-4.1042,-4.106,-4.106,-4.106,-4.106,-4.106,-4.106,-4.106,-4.106,-4.106,-4.106,-4.106,-4.106,-4.106,-4.106,-4.106,-4.106,-4.106,-4.106,-4.1546,-4.1695,-4.1695,-4.2216,-4.2402,-4.2402,-4.2902,-4.3068,-4.3234,-4.3546,-4.3711,-4.3711,-4.3711,-4.3711,-4.3711,-4.3711,-4.3711,-4.3711,-4.3711,-4.3711,-4.3711,-4.3711,-4.3711,-4.3711,-4.3711,-4.3711,-4.3711,-4.3711,-4.3711,-4.3711,-4.3711,-4.3711,-4.3711,-4.3711,-4.3711,-4.3711,-4.3711,-4.3711,-4.3711,-4.3711,-4.3711,-4.3711,-4.3711,-4.3711,-4.3711,-4.3711,-4.291,-4.2422,-4.2422,-4.1621,-4.1172,-4.1172,-4.1172,-4.1172,-4.1172,-4.1172,-4.1172,-4.1172,-4.1172,-4.1172,-4.1172,-4.1172,-4.1172,-4.1172,-4.1172,-4.1172,-4.1172,-4.1172,-4.1172,-4.1172,-4.1172,-4.1172,-4.1211,-4.1601,-4.1738,-4.1955,-2.8885,-2.9138,-2.9312,-2.9379,-2.992,-3.0682,-3.1975,-3.2528,-3.3229,-3.4451,-3.4605,-3.4538,-3.4538,-3.4538,-3.5025,-3.6494,-3.8168,-3.941,-3.9813,-4.0235,-4.0639,-4.1042,-4.106,-4.106,-4.106,-4.106,-4.106,-4.106,-4.106,-4.106,-4.106,-4.106,-4.106,-4.106,-4.106,-4.106,-4.106,-4.106,-4.106,-4.106,-4.1229,-4.1378,-4.1695,-4.1863,-4.2049,-4.2402,-4.2569,-4.2735,-4.3234,-4.3546,-4.3711,-4.3711,-4.3711,-4.3711,-4.3711,-4.3711,-4.3711,-4.3711,-4.3711,-4.3711,-4.3711,-4.3711,-4.3711,-4.3711,-4.3711,-4.3711,-4.3711,-4.3711,-4.3711,-4.3711,-4.3711,-4.3711,-4.3711,-4.3711,-4.3711,-4.3711,-4.3711,-4.3711,-4.3711,-4.3711,-4.3711,-4.3711,-4.3711,-4.3711,-4.3711,-4.3711,-4.291,-4.2422,-4.2422,-4.1621,-4.1172,-4.1172,-4.1172,-4.1172,-4.1172,-4.1172,-4.1172,-4.1172,-4.1172,-4.1172,-4.1172,-4.1172,-4.1172,-4.1172,-4.1172,-4.1172,-4.1172,-4.1172,-4.1172,-4.1172,-4.1172,-4.1172,-4.1191,-4.1269,-4.1308,-4.1367,-2.9192,-2.9379,-2.9526,-2.9673,-2.97,-3.0001,-3.0881,-3.1311,-3.1786,-3.2602,-3.3109,-3.3397,-3.3397,-3.3397,-3.405,-3.5833,-3.734,-3.8761,-3.9832,-4.0418,-4.084,-4.1042,-4.106,-4.106,-4.106,-4.106,-4.106,-4.106,-4.106,-4.106,-4.106,-4.106,-4.106,-4.106,-4.106,-4.106,-4.106,-4.106,-4.106,-4.106,-4.106,-4.1229,-4.1378,-4.1378,-4.1565,-4.1733,-4.2049,-4.2383,-4.2902,-4.3214,-4.338,-4.338,-4.3711,-4.3711,-4.3711,-4.3711,-4.3711,-4.3711,-4.3711,-4.3711,-4.3711,-4.3711,-4.3711,-4.3711,-4.3711,-4.3711,-4.3711,-4.3711,-4.3711,-4.3711,-4.3711,-4.3711,-4.3711,-4.3711,-4.3711,-4.3711,-4.3711,-4.3711,-4.3711,-4.3711,-4.3711,-4.3711,-4.3711,-4.3711,-4.3711,-4.3711,-4.291,-4.2422,-4.2422,-4.1621,-4.1172,-4.1172,-4.1172,-4.1172,-4.1172,-4.1172,-4.1172,-4.1172,-4.1172,-4.1172,-4.1172,-4.1172,-4.1172,-4.1172,-4.1172,-4.1172,-4.1172,-4.1172,-4.1172,-4.1172,-4.1172,-4.1172,-4.1172,-4.1172,-4.1172,-4.1211,-2.9499,-2.9513,-2.9566,-2.9806,-2.9606,-2.9392,-2.9339,-3.0093,-3.0749,-3.0692,-3.1768,-3.2577,-3.2577,-3.2741,-3.356,-3.5025,-3.6022,-3.7474,-3.9322,-4.025,-4.0705,-4.106,-4.106,-4.106,-4.106,-4.106,-4.106,-4.106,-4.106,-4.106,-4.106,-4.106,-4.106,-4.106,-4.106,-4.106,-4.106,-4.106,-4.106,-4.106,-4.106,-4.106,-4.106,-4.106,-4.106,-4.106,-4.1546,-4.1882,-4.2402,-4.2902,-4.2902,-4.3068,-4.338,-4.3546,-4.3546,-4.3546,-4.3546,-4.3546,-4.3711,-4.3711,-4.3711,-4.3711,-4.3711,-4.3711,-4.3711,-4.3711,-4.3711,-4.3711,-4.3711,-4.3711,-4.3711,-4.3711,-4.3711,-4.3711,-4.3711,-4.3711,-4.3711,-4.3711,-4.3711,-4.3711,-4.3711,-4.3711,-4.3711,-4.3711,-4.3672,-4.3594,-4.2871,-4.2402,-4.2324,-4.1582,-4.1172,-4.1172,-4.1172,-4.1172,-4.1172,-4.1172,-4.1172,-4.1172,-4.1172,-4.1172,-4.1172,-4.1172,-4.1172,-4.1172,-4.1172,-4.1172,-4.1172,-4.1172,-4.1172,-4.1172,-4.1172,-4.1172,-4.1172,-4.1172,-4.1172,-4.1172,-2.9806,-2.9659,-2.9499,-2.9539,-2.9299,-2.9018,-2.8764,-2.8829,-2.8839,-2.8568,-2.8824,-2.8964,-2.8964,-3.0289,-3.1271,-3.1437,-3.3547,-3.5623,-3.7474,-3.8199,-3.9331,-4.106,-4.106,-4.106,-4.106,-4.106,-4.106,-4.106,-4.106,-4.106,-4.106,-4.106,-4.106,-4.106,-4.106,-4.106,-4.106,-4.106,-4.106,-4.106,-4.106,-4.106,-4.106,-4.106,-4.106,-4.106,-4.1229,-4.1378,-4.1882,-4.2402,-4.2569,-4.2569,-4.2569,-4.2569,-4.2735,-4.3068,-4.3234,-4.3234,-4.3546,-4.3711,-4.3711,-4.3711,-4.3711,-4.3711,-4.3711,-4.3711,-4.3711,-4.3711,-4.3711,-4.3711,-4.3711,-4.3711,-4.3711,-4.3711,-4.3711,-4.3711,-4.3711,-4.3711,-4.3711,-4.3711,-4.3711,-4.3711,-4.3711,-4.3711,-4.3555,-4.3183,-4.2695,-4.2266,-4.1894,-4.1426,-4.1172,-4.1172,-4.1172,-4.1172,-4.1172,-4.1172,-4.1172,-4.1172,-4.1172,-4.1172,-4.1172,-4.1172,-4.1172,-4.1172,-4.1172,-4.1172,-4.1172,-4.1172,-4.1172,-4.1172,-4.1172,-4.1172,-4.1172,-4.1172,-4.1172,-4.1172,-2.9646,-2.9432,-2.9232,-2.9232,-2.8991,-2.8751,-2.8631,-2.8457,-2.8297,-2.8163,-2.8136,-2.8136,-2.8136,-2.8978,-2.9873,-3.0869,-3.2139,-3.3847,-3.575,-3.747,-3.8631,-3.9501,-4.0536,-4.106,-4.106,-4.0028,-4.0028,-4.106,-4.106,-4.106,-4.106,-4.106,-4.106,-4.106,-4.106,-4.106,-4.106,-4.106,-4.106,-4.106,-4.106,-4.106,-4.106,-4.106,-4.106,-4.106,-4.106,-4.121,-4.1378,-4.1882,-4.2049,-4.2049,-4.2402,-4.2402,-4.2569,-4.2902,-4.3068,-4.3234,-4.3546,-4.3711,-4.3711,-4.3711,-4.3711,-4.3711,-4.3711,-4.3711,-4.3711,-4.3711,-4.3711,-4.3711,-4.3711,-4.3711,-4.3711,-4.3711,-4.3711,-4.3711,-4.3711,-4.3711,-4.3711,-4.3711,-4.3711,-4.3711,-4.3711,-4.3711,-4.3535,-4.3105,-4.2676,-4.2246,-4.1816,-4.1406,-4.1172,-4.1172,-4.1172,-4.1172,-4.1172,-4.1172,-4.1172,-4.1172,-4.1172,-4.1172,-4.1172,-4.1172,-4.1172,-4.1172,-4.1172,-4.1172,-4.1172,-4.1172,-4.1172,-4.1172,-4.1172,-4.1172,-4.1172,-4.1172,-4.1172,-4.1172]}]]